[[{"header":{"parameterUnit":"m.s-1","parameterCategory":1,"la1":30.6,"la2":28.766,"lo1":-90.7593,"lo2":-88.6598,"dy":0.0162,"dx":0.0183,"nx":116,"ny":114,"refTime":"2023-06-26T06:00:00:Z","depth":0,"parameterNumber":2,"parameterNumberName":"U-component_of_WINDS"},"data":[0.0,0.0,0.0,0.0,0.0,0.0,0.0,0.0,0.0,0.0,0.0,0.0,0.0,0.0,0.0,0.0,0.0,0.0,0.0,0.0,0.0,0.0,0.0,0.0,0.0,0.0,0.0,0.0,0.0,0.0,0.0,0.0,0.0,0.0,0.0,0.0,0.0,0.0,0.0,0.0,0.0,0.0,0.0,0.0,0.0,0.0,0.0,0.0,0.0,0.0,0.0,0.0,0.0,0.0,0.0,0.0,0.0,0.0,0.0,0.0,0.0,0.0,0.0,0.0,0.0,0.0,0.0,0.0,0.0,0.0,0.0,0.0,0.0,0.0,0.0,0.0,0.0,0.0,0.0,0.0,0.0,0.0,0.0,0.0,0.0,0.0,0.0,0.0,0.0,0.0,0.0,0.0,0.0,0.0,0.0,0.0,0.0,0.0,0.0,0.0,0.0,0.0,0.0,0.0,0.0,0.0,0.0,0.0,0.0,0.0,0.0,0.0,0.0,0.0,0.0,0.0,0.0,0.0,0.0,0.0,0.0,0.0,0.0,0.0,0.0,0.0,0.0,0.0,0.0,0.0,0.0,0.0,0.0,0.0,0.0,0.0,0.0,0.0,0.0,0.0,0.0,0.0,0.0,0.0,0.0,0.0,0.0,0.0,0.0,0.0,0.0,0.0,0.0,0.0,0.0,0.0,0.0,0.0,0.0,0.0,0.0,0.0,0.0,0.0,0.0,0.0,0.0,0.0,0.0,0.0,0.0,0.0,0.0,0.0,0.0,0.0,0.0,0.0,0.0,0.0,0.0,0.0,0.0,0.0,0.0,0.0,0.0,0.0,0.0,0.0,0.0,0.0,0.0,0.0,0.0,0.0,0.0,0.0,0.0,0.0,0.0,0.0,0.0,0.0,0.0,0.0,0.0,0.0,0.0,0.0,0.0,0.0,0.0,0.0,0.0,0.0,0.0,0.0,0.0,0.0,0.0,0.0,0.0,0.0,0.0,0.0,0.0,0.0,0.0,0.0,0.0,0.0,0.0,0.0,0.0,0.0,0.0,0.0,0.0,0.0,0.0,0.0,0.0,0.0,0.0,0.0,0.0,0.0,0.0,0.0,0.0,0.0,0.0,0.0,0.0,0.0,0.0,0.0,0.0,0.0,0.0,0.0,0.0,0.0,0.0,0.0,0.0,0.0,0.0,0.0,0.0,0.0,0.0,0.0,0.0,0.0,0.0,0.0,0.0,0.0,0.0,0.0,0.0,0.0,0.0,0.0,0.0,0.0,0.0,0.0,0.0,0.0,0.0,0.0,0.0,0.0,0.0,0.0,0.0,0.0,0.0,0.0,0.0,0.0,0.0,0.0,0.0,0.0,0.0,0.0,0.0,0.0,0.0,0.0,0.0,0.0,0.0,0.0,0.0,0.0,0.0,0.0,0.0,0.0,0.0,0.0,0.0,0.0,0.0,0.0,0.0,0.0,0.0,0.0,0.0,0.0,0.0,0.0,0.0,0.0,0.0,0.0,0.0,0.0,0.0,0.0,0.0,0.0,0.0,0.0,0.0,0.0,0.0,0.0,0.0,0.0,0.0,0.0,0.0,0.0,0.0,0.0,0.0,0.0,0.0,0.0,0.0,0.0,0.0,0.0,0.0,0.0,0.0,0.0,0.0,0.0,0.0,0.0,0.0,0.0,0.0,0.0,0.0,0.0,0.0,0.0,0.0,0.0,0.0,0.0,0.0,0.0,0.0,0.0,0.0,0.0,0.0,0.0,0.0,0.0,0.0,0.0,0.0,0.0,0.0,0.0,0.0,0.0,0.0,0.0,0.0,0.0,0.0,0.0,0.0,0.0,0.0,0.0,0.0,0.0,0.0,0.0,0.0,0.0,0.0,0.0,0.0,0.0,0.0,0.0,0.0,0.0,0.0,0.0,0.0,0.0,0.0,0.0,0.0,0.0,0.0,0.0,0.0,0.0,0.0,0.0,0.0,0.0,0.0,0.0,0.0,0.0,0.0,0.0,0.0,0.0,0.0,0.0,0.0,0.0,0.0,0.0,0.0,0.0,0.0,0.0,0.0,0.0,0.0,0.0,0.0,0.0,0.0,0.0,0.0,0.0,0.0,0.0,0.0,0.0,0.0,0.0,0.0,0.0,0.0,0.0,0.0,0.0,0.0,0.0,0.0,0.0,0.0,0.0,0.0,0.0,0.0,0.0,0.0,0.0,0.0,0.0,0.0,0.0,0.0,0.0,0.0,0.0,0.0,0.0,0.0,0.0,0.0,0.0,0.0,0.0,0.0,0.0,0.0,0.0,0.0,0.0,0.0,0.0,0.0,0.0,0.0,0.0,0.0,0.0,0.0,0.0,0.0,0.0,0.0,0.0,0.0,0.0,0.0,0.0,0.0,0.0,0.0,0.0,0.0,0.0,0.0,0.0,0.0,0.0,0.0,0.0,0.0,0.0,0.0,0.0,0.0,0.0,0.0,0.0,0.0,0.0,0.0,0.0,0.0,0.0,0.0,0.0,0.0,0.0,0.0,0.0,0.0,0.0,0.0,0.0,0.0,0.0,0.0,0.0,0.0,0.0,0.0,0.0,0.0,0.0,0.0,0.0,0.0,0.0,0.0,0.0,0.0,0.0,0.0,0.0,0.0,0.0,0.0,0.0,0.0,0.0,0.0,0.0,0.0,0.0,0.0,0.0,0.0,0.0,0.0,0.0,0.0,0.0,0.0,0.0,0.0,0.0,0.0,0.0,0.0,0.0,0.0,0.0,0.0,0.0,0.0,0.0,0.0,0.0,0.0,0.0,0.0,0.0,0.0,0.0,0.0,0.0,0.0,0.0,0.0,0.0,0.0,0.0,0.0,0.0,0.0,0.0,0.0,0.0,0.0,0.0,0.0,0.0,0.0,0.0,0.0,0.0,0.0,0.0,0.0,0.0,0.0,0.0,0.0,0.0,0.0,0.0,0.0,0.0,0.0,0.0,0.0,0.0,0.0,0.0,0.0,0.0,0.0,0.0,0.0,0.0,0.0,0.0,0.0,0.0,0.0,0.0,0.0,0.0,0.0,0.0,0.0,0.0,0.0,0.0,0.0,0.0,0.0,0.0,0.0,0.0,0.0,0.0,0.0,0.0,0.0,0.0,0.0,0.0,0.0,0.0,0.0,0.0,0.0,0.0,0.0,0.0,0.0,0.0,0.0,0.0,0.0,0.0,0.0,0.0,0.0,0.0,0.0,0.0,0.0,0.0,0.0,0.0,0.0,0.0,0.0,0.0,0.0,0.0,0.0,0.0,0.0,0.0,0.0,0.0,0.0,0.0,0.0,0.0,0.0,0.0,0.0,0.0,0.0,0.0,0.0,0.0,0.0,0.0,0.0,0.0,0.0,0.0,0.0,0.0,0.0,0.0,0.0,0.0,0.0,0.0,0.0,0.0,0.0,0.0,0.0,0.0,0.0,0.0,0.0,0.0,0.0,0.0,0.0,0.0,0.0,0.0,0.0,0.0,0.0,0.0,0.0,0.0,0.0,0.0,0.0,0.0,0.0,0.0,0.0,0.0,0.0,0.0,0.0,0.0,0.0,0.0,0.0,0.0,0.0,0.0,0.0,0.0,0.0,0.0,0.0,0.0,0.0,0.0,0.0,0.0,0.0,0.0,0.0,0.0,0.0,0.0,0.0,0.0,0.0,0.0,0.0,0.0,0.0,0.0,0.0,0.0,0.0,0.0,0.0,0.0,0.0,0.0,0.0,0.0,0.0,0.0,0.0,0.0,0.0,0.0,0.0,0.0,0.0,0.0,0.0,0.0,0.0,0.0,0.0,0.0,0.0,0.0,0.0,0.0,0.0,0.0,0.0,0.0,0.0,0.0,0.0,0.0,0.0,0.0,0.0,0.0,0.0,0.0,0.0,0.0,0.0,0.0,0.0,0.0,0.0,0.0,0.0,0.0,0.0,0.0,0.0,0.0,0.0,0.0,0.0,0.0,0.0,0.0,0.0,0.0,0.0,0.0,0.0,0.0,0.0,0.0,0.0,0.0,0.0,0.0,0.0,0.0,0.0,0.0,0.0,0.0,0.0,0.0,0.0,0.0,0.0,0.0,0.0,0.0,0.0,0.0,0.0,0.0,0.0,0.0,0.0,0.0,0.0,0.0,0.0,0.0,0.0,0.0,0.0,0.0,0.0,0.0,0.0,0.0,0.0,0.0,0.0,0.0,0.0,0.0,0.0,0.0,0.0,0.0,0.0,0.0,0.0,0.0,0.0,0.0,0.0,0.0,0.0,0.0,0.0,0.0,0.0,0.0,0.0,0.0,0.0,0.0,0.0,0.0,0.0,0.0,0.0,0.0,0.0,0.0,0.0,0.0,0.0,0.0,0.0,0.0,0.0,0.0,0.0,0.0,0.0,0.0,0.0,0.0,0.0,0.0,0.0,0.0,0.0,0.0,0.0,0.0,0.0,0.0,0.0,0.0,0.0,0.0,0.0,0.0,0.0,0.0,0.0,0.0,0.0,0.0,0.0,0.0,0.0,0.0,0.0,0.0,0.0,0.0,0.0,0.0,0.0,0.0,0.0,0.0,0.0,0.0,0.0,0.0,0.0,0.0,0.0,0.0,0.0,0.0,0.0,0.0,0.0,0.0,0.0,0.0,0.0,0.0,0.0,0.0,0.0,0.0,0.0,0.0,0.0,0.0,0.0,0.0,0.0,0.0,0.0,0.0,0.0,0.0,0.0,0.0,0.0,0.0,0.0,0.0,0.0,0.0,0.0,0.0,0.0,0.0,0.0,0.0,0.0,0.0,0.0,0.0,0.0,0.0,0.0,0.0,0.0,0.0,0.0,0.0,0.0,0.0,0.0,0.0,0.0,0.0,0.0,0.0,0.0,0.0,0.0,0.0,0.0,0.0,0.0,0.0,0.0,0.0,0.0,0.0,0.0,0.0,0.0,0.0,0.0,0.0,0.0,0.0,0.0,0.0,0.0,0.0,0.0,0.0,0.0,0.0,0.0,0.0,0.0,0.0,0.0,0.0,0.0,0.0,0.0,0.0,0.0,0.0,0.0,0.0,0.0,0.0,0.0,0.0,0.0,0.0,0.0,0.0,0.0,0.0,0.0,0.0,0.0,0.0,0.0,0.0,0.0,0.0,0.0,0.0,0.0,0.0,0.0,0.0,0.0,0.0,0.0,0.0,0.0,0.0,0.0,0.0,0.0,0.0,0.0,0.0,0.0,0.0,0.0,0.0,0.0,0.0,0.0,0.0,0.0,0.0,0.0,0.0,0.0,0.0,0.0,0.0,0.0,0.0,0.0,0.0,0.0,0.0,0.0,0.0,0.0,0.0,0.0,0.0,0.0,0.0,0.0,0.0,0.0,0.0,0.0,0.0,0.0,0.0,0.0,0.0,0.0,0.0,0.0,0.0,0.0,0.0,0.0,0.0,0.0,0.0,0.0,0.0,0.0,0.0,0.0,0.0,0.0,0.0,0.0,0.0,0.0,0.0,0.0,0.0,0.0,0.0,0.0,0.0,0.0,0.0,0.0,0.0,0.0,0.0,0.0,0.0,0.0,0.0,0.0,0.0,0.0,0.0,0.0,0.0,0.0,0.0,0.0,0.0,0.0,0.0,0.0,0.0,0.0,0.0,0.0,0.0,0.0,0.0,0.0,0.0,0.0,0.0,0.0,0.0,0.0,0.0,0.0,0.0,0.0,0.0,0.0,0.0,0.0,0.0,0.0,0.0,0.0,0.0,0.0,0.0,0.0,0.0,0.0,0.0,0.0,0.0,0.0,0.0,0.0,0.0,0.0,0.0,0.0,0.0,0.0,0.0,0.0,0.0,0.0,0.0,0.0,0.0,0.0,0.0,0.0,0.0,0.0,0.0,0.0,0.0,0.0,0.0,0.0,0.0,0.0,0.0,0.0,0.0,0.0,0.0,0.0,0.0,0.0,0.0,0.0,0.0,0.0,0.0,0.0,0.0,0.0,0.0,0.0,0.0,0.0,0.0,0.0,0.0,0.0,0.0,0.0,0.0,0.0,0.0,0.0,0.0,0.0,0.0,0.0,0.0,0.0,0.0,0.0,0.0,0.0,0.0,0.0,0.0,0.0,0.0,0.0,0.0,-2.9175,0.0,0.0,0.0,0.0,0.0,0.0,0.0,0.0,0.0,0.0,0.0,0.0,0.0,0.0,0.0,0.0,0.0,0.0,0.0,0.0,0.0,0.0,0.0,0.0,0.0,0.0,0.0,0.0,0.0,0.0,0.0,0.0,0.0,0.0,0.0,0.0,0.0,0.0,0.0,-3.5163,-3.6134,-3.7249,-3.7367,-3.749,-3.7613,0.0,0.0,0.0,0.0,0.0,0.0,0.0,0.0,0.0,0.0,0.0,0.0,0.0,0.0,0.0,0.0,0.0,0.0,0.0,0.0,0.0,0.0,0.0,0.0,0.0,0.0,0.0,0.0,0.0,0.0,0.0,0.0,0.0,0.0,0.0,0.0,0.0,0.0,0.0,0.0,0.0,0.0,0.0,0.0,0.0,0.0,0.0,0.0,0.0,0.0,0.0,0.0,0.0,0.0,0.0,0.0,0.0,0.0,0.0,0.0,0.0,0.0,0.0,0.0,0.0,0.0,0.0,0.0,0.0,0.0,0.0,-2.8936,0.0,0.0,0.0,0.0,0.0,0.0,0.0,0.0,0.0,0.0,0.0,0.0,0.0,0.0,0.0,0.0,0.0,0.0,0.0,0.0,0.0,0.0,0.0,0.0,0.0,0.0,0.0,0.0,0.0,0.0,0.0,0.0,0.0,0.0,0.0,0.0,0.0,0.0,-3.5848,-3.7259,-3.9306,-3.9516,-3.908,-3.8119,0.0,0.0,0.0,0.0,0.0,0.0,0.0,0.0,0.0,0.0,0.0,0.0,0.0,0.0,0.0,0.0,0.0,0.0,0.0,0.0,0.0,0.0,0.0,0.0,0.0,0.0,0.0,0.0,0.0,0.0,0.0,0.0,0.0,0.0,0.0,0.0,0.0,0.0,0.0,0.0,0.0,0.0,0.0,0.0,0.0,0.0,0.0,0.0,0.0,0.0,0.0,0.0,0.0,0.0,0.0,0.0,0.0,0.0,0.0,0.0,0.0,0.0,0.0,0.0,-3.2001,-3.1963,-3.194,-3.1363,-3.1083,-3.0905,-2.967,-2.9027,-2.8816,0.0,0.0,0.0,0.0,0.0,0.0,0.0,0.0,0.0,0.0,0.0,0.0,0.0,0.0,0.0,0.0,0.0,0.0,0.0,0.0,0.0,0.0,0.0,0.0,0.0,0.0,0.0,0.0,0.0,0.0,0.0,0.0,0.0,0.0,-3.4472,-3.5061,-3.5527,-3.7557,-3.9207,-4.0486,-4.0506,-4.0409,-4.0217,-4.0226,0.0,0.0,0.0,0.0,0.0,0.0,0.0,0.0,0.0,0.0,0.0,0.0,0.0,0.0,0.0,0.0,0.0,0.0,0.0,0.0,0.0,0.0,0.0,0.0,0.0,0.0,0.0,0.0,0.0,0.0,0.0,0.0,0.0,0.0,0.0,0.0,0.0,0.0,0.0,0.0,0.0,0.0,0.0,-3.3433,-3.3099,0.0,0.0,0.0,0.0,0.0,0.0,0.0,0.0,0.0,0.0,0.0,0.0,0.0,-3.3556,-3.3284,-3.3048,-3.2799,-3.2525,-3.1999,-3.1734,-3.171,-3.1101,-3.0842,-3.0816,-3.0604,0.0,-2.959,-2.9052,0.0,0.0,0.0,0.0,0.0,0.0,0.0,0.0,0.0,0.0,0.0,0.0,0.0,0.0,0.0,0.0,0.0,0.0,0.0,0.0,0.0,0.0,0.0,0.0,0.0,0.0,0.0,0.0,0.0,0.0,0.0,0.0,-3.4696,-3.5225,-3.6156,-3.7509,-3.8969,-4.0054,-4.0752,-4.0752,-4.0746,-4.0713,-4.0751,-4.0668,-4.0499,-4.0503,0.0,0.0,0.0,0.0,0.0,0.0,0.0,0.0,0.0,0.0,0.0,0.0,0.0,0.0,0.0,0.0,0.0,0.0,0.0,0.0,0.0,0.0,0.0,0.0,0.0,0.0,0.0,0.0,0.0,0.0,0.0,0.0,0.0,0.0,0.0,0.0,0.0,0.0,0.0,-3.3229,-3.3081,-3.307,-3.3589,-3.3936,0.0,0.0,0.0,0.0,0.0,0.0,0.0,0.0,0.0,-3.395,-3.3707,-3.3343,-3.2931,-3.3223,-3.3344,-3.3214,-3.3103,-3.3064,-3.3039,-3.2463,-3.2196,-3.218,-3.171,-3.1356,-3.1052,-3.0322,-3.0049,-3.009,0.0,0.0,0.0,0.0,-3.0282,-3.0282,0.0,0.0,0.0,0.0,0.0,0.0,0.0,0.0,0.0,0.0,0.0,0.0,0.0,0.0,0.0,-3.4031,0.0,0.0,0.0,0.0,0.0,0.0,0.0,-3.4723,-3.5411,-3.6257,-3.7557,-3.9309,-4.0018,-4.0518,-4.0797,-4.0827,-4.0825,-4.0831,-4.0903,-4.081,-4.0642,-4.0648,-4.0623,0.0,0.0,0.0,0.0,0.0,0.0,0.0,0.0,0.0,0.0,0.0,0.0,0.0,0.0,0.0,0.0,0.0,0.0,0.0,0.0,0.0,0.0,0.0,0.0,0.0,0.0,0.0,0.0,0.0,0.0,0.0,0.0,0.0,0.0,0.0,0.0,0.0,0.0,-3.3516,-3.3435,-3.3536,-3.4103,-3.4478,0.0,0.0,0.0,0.0,0.0,0.0,-3.4784,-3.4934,-3.473,-3.415,-3.4147,-3.395,-3.3538,-3.4063,-3.4323,-3.4315,-3.4401,-3.4446,-3.442,-3.4017,-3.383,-3.3799,-3.2982,-3.2657,-3.2578,-3.1457,-3.1002,-3.1002,-3.1158,-3.1198,-3.1198,-3.1198,-3.1198,-3.1198,0.0,0.0,0.0,0.0,0.0,0.0,0.0,0.0,0.0,0.0,0.0,0.0,0.0,0.0,-3.4093,-3.4099,-3.4161,-3.4173,0.0,0.0,0.0,0.0,0.0,-3.5135,-3.5496,-3.769,-3.9278,-4.0128,-4.0561,-4.0784,-4.0797,-4.0872,-4.0878,-4.0903,-4.0972,-4.0921,-4.0787,-4.0791,-4.0791,-4.0687,0.0,0.0,0.0,0.0,0.0,0.0,0.0,0.0,0.0,0.0,0.0,0.0,0.0,0.0,0.0,0.0,0.0,0.0,0.0,0.0,0.0,0.0,0.0,0.0,0.0,0.0,0.0,0.0,0.0,0.0,0.0,0.0,0.0,0.0,0.0,0.0,0.0,0.0,0.0,-3.473,-3.4764,0.0,0.0,0.0,0.0,-3.4653,-3.5337,-3.5607,-3.5275,-3.6003,-3.6323,-3.6159,-3.6349,-3.6409,-3.6386,-3.6129,-3.5985,-3.5985,-3.5541,-3.534,-3.534,-3.5312,-3.5284,-3.5252,-3.451,-3.4194,-3.4036,-3.1886,-3.1002,-3.1002,-3.1158,-3.1198,-3.1198,-3.1198,-3.1198,-3.1198,0.0,0.0,0.0,0.0,0.0,0.0,0.0,0.0,0.0,0.0,0.0,0.0,0.0,-3.3147,-3.372,-3.4011,-3.4257,-3.4351,-3.4293,0.0,0.0,0.0,0.0,-3.6324,-3.7908,-3.9301,-4.0466,-4.1354,-4.1499,-4.1854,-4.2402,-4.19,-4.168,-4.1646,-4.1242,-4.1008,-4.0929,-4.0935,-4.0893,-4.082,-4.0334,-3.9451,0.0,0.0,0.0,0.0,0.0,0.0,0.0,0.0,0.0,0.0,0.0,0.0,0.0,0.0,0.0,0.0,0.0,0.0,0.0,0.0,0.0,0.0,0.0,0.0,0.0,0.0,0.0,0.0,0.0,0.0,0.0,0.0,0.0,0.0,0.0,0.0,0.0,-3.4907,-3.5313,0.0,-3.539,-3.5829,-3.6085,-3.6036,-3.6558,-3.6895,-3.6921,-3.7519,-3.7661,-3.7274,-3.7322,-3.7239,-3.6918,-3.642,-3.6157,-3.6157,-3.5653,-3.5394,-3.5394,-3.5394,-3.5394,-3.5379,-3.511,-3.4999,-3.4936,-3.4166,-3.3303,-3.2499,-3.2524,-3.2566,-3.2566,-3.2566,-3.2566,-3.2566,0.0,0.0,0.0,0.0,0.0,0.0,0.0,0.0,0.0,0.0,0.0,-3.1721,-3.2551,-3.306,-3.3514,-3.3934,-3.4209,-3.4381,-3.4381,0.0,0.0,0.0,-3.5918,-3.763,-3.9536,-4.0523,-4.1357,-4.1994,-4.2266,-4.2718,-4.3317,-4.2811,-4.2427,-4.2151,-4.1724,-4.1353,-4.1033,-4.1023,-4.1005,-4.0956,-4.082,-4.01,-3.9107,0.0,0.0,0.0,0.0,0.0,0.0,0.0,0.0,0.0,0.0,0.0,0.0,0.0,0.0,0.0,0.0,0.0,0.0,0.0,0.0,0.0,0.0,0.0,0.0,0.0,0.0,0.0,0.0,0.0,0.0,0.0,0.0,0.0,0.0,0.0,-3.5332,-3.5667,-3.6205,-3.6427,-3.6168,-3.6904,-3.7314,-3.7159,-3.7591,-3.7927,-3.8063,-3.8452,-3.8485,-3.8142,-3.8263,-3.8174,-3.784,-3.7485,-3.7319,-3.7319,-3.694,-3.6769,-3.6769,-3.6769,-3.6769,-3.6753,-3.6295,-3.6105,-3.6058,-3.5584,-3.4841,-3.4004,-3.4004,-3.4004,-3.3972,-3.3719,-3.364,-3.3609,0.0,0.0,0.0,0.0,0.0,0.0,0.0,0.0,0.0,0.0,-3.2299,-3.2616,-3.2685,-3.3166,-3.3588,-3.3855,-3.4011,-3.4148,-3.4281,-3.4252,0.0,0.0,0.0,-3.8936,-4.009,-4.1295,-4.1935,-4.2026,-4.2837,-4.3318,-4.3471,-4.3491,-4.3075,-4.2339,-4.2341,-4.1894,-4.1092,-4.1108,-4.1104,-4.1095,-4.0953,-4.0365,-3.9578,0.0,0.0,0.0,0.0,0.0,0.0,0.0,0.0,0.0,0.0,0.0,0.0,0.0,0.0,0.0,0.0,0.0,0.0,0.0,0.0,0.0,0.0,0.0,0.0,0.0,0.0,0.0,0.0,0.0,0.0,0.0,0.0,0.0,-3.7058,-3.6841,-3.6716,-3.7048,-3.7408,-3.7413,-3.6922,-3.7922,-3.8425,-3.7882,-3.8368,-3.8675,-3.8665,-3.8819,-3.8915,-3.889,-3.9193,-3.9373,-3.9373,-3.9463,-3.9534,-3.9565,-3.9534,-3.9534,-3.9534,-3.9534,-3.9534,-3.9455,-3.8142,-3.7573,-3.7462,-3.6102,-3.5549,-3.5533,-3.5426,-3.5422,-3.5328,-3.4589,-3.4347,-3.4252,0.0,0.0,0.0,0.0,0.0,0.0,0.0,0.0,0.0,0.0,-3.2073,-3.2266,-3.2335,-3.2732,-3.3027,-3.3163,-3.3657,-3.3972,-3.4011,0.0,0.0,0.0,0.0,-3.9059,-4.0359,-4.1378,-4.2202,-4.2795,-4.3647,-4.4406,-4.5032,-4.3943,-4.3307,-4.3045,-4.1956,-4.1326,-4.1108,-4.1103,-4.11,-4.1097,-4.106,-4.0773,-4.0383,0.0,0.0,0.0,0.0,0.0,0.0,0.0,0.0,0.0,0.0,0.0,0.0,0.0,0.0,0.0,0.0,0.0,0.0,0.0,0.0,0.0,0.0,0.0,0.0,0.0,0.0,0.0,0.0,0.0,0.0,0.0,0.0,-3.5933,-3.6165,-3.6422,-3.6705,-3.6925,-3.7461,-3.7895,-3.8088,-3.8889,-3.9221,-3.8778,-4.0192,-4.0737,-3.994,-4.0772,-4.1033,-4.0541,-4.0633,-4.0904,-4.141,-4.0587,-4.0372,-4.0794,-4.0162,-3.9875,-3.9875,-3.9875,-3.9875,-3.9828,-3.9231,-3.895,-3.8949,-3.8796,-3.8743,-3.8505,-3.6283,-3.5502,-3.5621,-3.5225,-3.5229,-3.5372,0.0,0.0,0.0,0.0,0.0,0.0,0.0,0.0,0.0,0.0,-3.1983,-3.2161,-3.2267,-3.2489,-3.2685,-3.284,-3.3372,-3.3734,-3.3802,0.0,0.0,0.0,0.0,-3.9429,-4.0345,-4.1712,-4.2633,-4.3092,-4.4349,-4.5214,-4.5715,-4.4506,-4.3759,-4.3396,-4.2184,-4.1441,-4.1107,-4.1101,-4.1095,-4.1108,-4.1099,-4.0992,-4.0803,-4.0657,-4.0412,-4.0119,-3.9886,-3.9701,-3.9508,-3.9277,0.0,0.0,0.0,0.0,0.0,0.0,0.0,0.0,0.0,0.0,0.0,0.0,0.0,0.0,0.0,0.0,0.0,0.0,0.0,0.0,0.0,0.0,0.0,0.0,-3.5694,-3.5868,-3.5815,-3.6246,-3.6748,-3.7261,-3.7961,-3.8405,-3.843,-3.9573,-4.0237,-4.0034,-4.1313,-4.1927,-4.1594,-4.227,-4.2627,-4.2579,-4.2347,-4.2525,-4.3252,-4.226,-4.1963,-4.229,-4.1963,-4.1645,-4.1357,-4.1483,-4.1368,0.0,-4.0604,-4.0384,-4.0352,-4.0262,-4.0224,0.0,0.0,0.0,0.0,0.0,-3.6101,-3.6007,0.0,0.0,0.0,0.0,0.0,0.0,0.0,0.0,0.0,0.0,0.0,-3.2179,-3.2388,-3.2406,-3.2507,-3.2732,-3.3136,-3.353,0.0,0.0,0.0,-3.7016,-3.8746,-3.9851,-4.0196,-4.2021,-4.2948,-4.2949,-4.4595,-4.5441,-4.5473,-4.4744,-4.404,-4.3301,-4.2578,-4.1829,-4.1105,-4.1099,-4.1106,-4.1109,-4.1072,-4.1048,-4.097,-4.0721,-4.0585,-4.0453,-4.0032,-3.978,-3.963,-3.9364,0.0,0.0,0.0,0.0,0.0,0.0,0.0,0.0,0.0,0.0,0.0,0.0,0.0,0.0,0.0,0.0,0.0,0.0,0.0,0.0,0.0,0.0,0.0,0.0,-3.6109,-3.6313,-3.6141,-3.6551,-3.7107,-3.7872,-3.8709,-3.9068,-3.8594,-4.0311,-4.1475,-4.1541,-4.2259,-4.2932,-4.3469,0.0,0.0,0.0,0.0,-4.4059,-4.4674,-4.4052,-4.3756,-4.3878,-4.4219,-4.4035,-4.3458,-4.3735,-4.3523,-4.2859,-4.2259,-4.192,-4.179,-4.117,-4.0891,-4.0824,-4.0631,-4.0151,-3.9457,-3.8172,-3.7291,-3.6707,0.0,0.0,0.0,0.0,0.0,0.0,0.0,0.0,0.0,-3.1783,-3.1983,-3.2179,-3.2388,-3.2406,-3.2422,-3.2473,-3.2988,-3.3828,0.0,0.0,-3.6959,-3.7816,-3.9101,-3.9912,-4.0177,-4.1417,-4.2047,-4.2055,-4.3102,-4.3607,-4.3617,-4.2917,-4.2514,-4.2332,-4.1653,-4.1254,-4.1093,-4.1094,-4.1103,-4.1093,-4.097,-4.0933,-4.0902,-4.0864,-4.0711,-4.0484,-4.0406,-4.0213,-3.9992,-3.988,-3.969,-3.9489,-3.9439,0.0,0.0,0.0,0.0,0.0,0.0,0.0,0.0,0.0,0.0,0.0,0.0,0.0,0.0,0.0,0.0,0.0,0.0,0.0,0.0,-3.6528,-3.7316,-3.7953,-3.8127,-3.8592,-3.8747,-3.828,-3.9353,-4.0261,-4.0602,-4.2,-4.2937,-4.3078,-4.4732,-4.5629,-4.5319,-4.5782,-4.5604,-4.4704,-4.4561,-4.4561,-4.4706,-4.4034,-4.4102,-4.4919,0.0,0.0,-4.4886,-4.495,-4.4901,-4.4754,-4.435,-4.3832,-4.3313,-4.3434,-4.3289,-4.2858,-4.1455,-4.0665,-4.031,-4.0299,-3.9846,-3.918,0.0,0.0,0.0,0.0,0.0,0.0,0.0,0.0,0.0,0.0,-3.1838,-3.2036,-3.2232,-3.2249,-3.2319,-3.249,-3.3083,0.0,0.0,-3.594,-3.6887,-3.7521,-3.9003,-3.9932,-4.0177,-4.1244,-4.1788,-4.1788,-4.2662,-4.3126,-4.3127,-4.2421,-4.212,-4.212,-4.1401,-4.1097,-4.1092,-4.1067,-4.1022,-4.0997,-4.0929,-4.0878,-4.0849,-4.0853,-4.0761,-4.0622,-4.0492,-4.0336,-4.0176,-4.0022,-3.9769,-3.9551,-3.9514,-3.9219,-3.891,0.0,0.0,0.0,0.0,0.0,0.0,0.0,0.0,0.0,0.0,0.0,0.0,0.0,0.0,-3.6371,0.0,0.0,-3.6928,-3.7474,-3.7968,-3.85,-3.9036,-3.9639,-3.9864,-3.9421,-4.0021,-4.0762,-4.1329,-4.2378,-4.3297,-4.4048,-4.5061,-4.5791,-4.6187,-4.6173,-4.6188,-4.6243,-4.5571,-4.5369,-4.5741,-4.5085,-4.5085,-4.5741,-4.5824,-4.5846,-4.5799,-4.6026,-4.5892,-4.5546,-4.5371,-4.5094,-4.475,-4.4924,-4.4651,-4.4045,-4.3198,-4.2308,-4.1471,-4.1272,-4.0967,-4.0654,0.0,0.0,0.0,0.0,0.0,0.0,0.0,0.0,0.0,0.0,-3.1709,-3.1873,-3.2037,-3.209,-3.2249,0.0,0.0,0.0,0.0,-3.5706,-3.6732,-3.6928,-3.8776,-3.9912,-4.012,-4.1055,-4.1546,-4.1546,-4.2258,-4.2611,-4.2658,-4.2106,-4.1883,-4.1891,-4.134,-4.1083,-4.1081,-4.101,-4.0949,-4.09,-4.0887,-4.0844,-4.0794,-4.0788,-4.0808,-4.077,-4.0549,-4.043,-4.0326,-4.012,-3.9816,-3.9568,-3.9568,-3.9272,-3.891,-3.891,-3.881,0.0,0.0,0.0,0.0,0.0,0.0,0.0,0.0,0.0,-3.6998,-3.7223,-3.7188,-3.7155,-3.7436,-3.7602,-3.7869,-3.8411,-3.8752,-3.91,-3.9644,-4.034,-4.0817,-4.0855,-4.096,-4.1209,-4.1746,-4.2592,-4.3611,-4.4802,-4.5016,-4.5584,-4.6804,-4.6362,-4.652,-4.7572,-4.652,-4.6124,-4.6585,-4.612,-4.6048,-4.6442,-4.6807,-4.6875,-4.6635,-4.6961,-4.6792,-4.6212,-4.6079,-4.6013,-4.5997,-4.5847,-4.5433,-4.4903,-4.4903,-4.4092,-4.285,-4.2092,-4.1756,-4.1595,0.0,0.0,0.0,0.0,0.0,0.0,0.0,0.0,0.0,0.0,0.0,0.0,0.0,0.0,0.0,0.0,0.0,0.0,-3.4068,-3.5719,-3.6699,-3.6719,-3.8704,-3.9819,-3.984,-4.0362,-4.065,-4.065,-4.0746,-4.0793,-4.0796,-4.0906,-4.0959,-4.096,-4.0991,-4.101,-4.1013,-4.0937,-4.09,-4.0888,-4.0832,-4.0812,-4.0794,-4.0809,-4.0797,-4.079,-4.0694,-4.0614,-4.0559,-4.0539,-4.0185,-3.9765,-3.9765,-3.9358,-3.891,-3.891,0.0,-3.8707,-3.8707,-3.8562,-3.8382,-3.8323,-3.8224,-3.814,0.0,0.0,-3.8073,-3.7638,-3.7677,-3.7853,-3.805,-3.8636,-3.9127,-3.9255,-4.0337,-4.0982,-4.0547,-4.1051,-4.1732,-4.2368,-4.2477,-4.2473,-4.2568,-4.3727,-4.4801,-4.563,-4.6176,-4.686,-4.77,-4.7669,-4.7408,-4.6921,-4.6767,-4.6416,-4.59,-4.614,-4.6442,-4.6842,-4.7184,-4.7522,-4.7803,-4.7852,-4.7835,-4.7719,-4.7057,-4.6775,-4.6725,-4.6063,-4.5748,-4.5665,-4.5665,-4.5168,-4.4357,-4.3645,-4.2936,-4.2373,0.0,0.0,0.0,0.0,0.0,0.0,0.0,0.0,0.0,0.0,0.0,0.0,0.0,0.0,0.0,0.0,0.0,0.0,-3.3787,-3.5197,-3.6248,-3.6789,-3.8094,-3.9173,-3.9903,-4.012,-4.0295,-4.0427,-4.0427,-4.0465,-4.0506,-4.0578,-4.066,-4.0754,-4.0839,-4.0876,-4.0873,-4.0903,-4.0878,-4.0832,-4.0812,-4.0776,-4.0733,-4.0612,-4.0542,-4.0508,-4.0485,-4.0407,0.0,0.0,-3.9912,-3.9621,-3.9585,-3.9253,-3.8877,-3.8848,-3.8762,0.0,-3.8562,-3.8465,0.0,0.0,-3.857,-3.8863,-3.8705,-3.8974,-3.9248,-3.9136,-3.9081,-3.9214,-3.9679,-4.0017,-4.0331,0.0,-4.113,-4.1417,-4.1212,-4.1778,-4.2347,-4.2647,-4.339,-4.3864,-4.3864,-4.4379,-4.5014,-4.5732,-4.6028,-4.6486,-4.7238,-4.6878,-4.6705,-4.6793,-4.6442,-4.61,-4.5807,-4.614,-4.6512,-4.6911,-4.7252,-4.7588,-4.8001,-4.8001,-4.8001,-4.7984,-4.7669,-4.7537,-4.752,-4.7206,-4.6825,-4.6444,-4.6444,-4.598,-4.5235,-4.4506,-4.3777,-4.3135,0.0,0.0,0.0,0.0,0.0,0.0,0.0,0.0,0.0,0.0,0.0,0.0,0.0,0.0,0.0,0.0,0.0,0.0,0.0,-3.4636,-3.5651,-3.6422,-3.7505,-3.8505,-3.9426,-3.9737,-3.9973,-4.0177,-4.0252,-4.0294,-4.0315,-4.0396,-4.0477,-4.0539,-4.0597,-4.061,-4.0604,-4.0706,-4.0713,-4.0668,-4.0726,-4.0713,-4.0647,-4.0454,-4.0326,-4.0274,-4.0202,-4.0166,0.0,0.0,-3.9648,-3.9464,-3.9414,-3.9156,-3.8848,-3.8822,-3.8912,-3.8951,-3.8519,0.0,0.0,-3.8623,-3.9115,-3.966,-3.9464,-3.9873,-4.0317,-4.0291,-4.0195,-4.0287,-4.0813,-4.0996,0.0,-4.158,-4.1742,-4.1801,-4.1739,-4.2287,-4.2758,-4.2932,-4.4006,-4.4796,-4.5001,-4.5017,-4.5238,-4.5776,-4.5807,-4.5992,-4.6496,-4.6064,-4.6028,-4.6496,-4.6064,-4.5844,-4.5936,-4.6474,-4.6846,-4.7048,-4.76,-4.7902,-4.8001,-4.8001,-4.8001,-4.8001,-4.8001,-4.8001,-4.8001,-4.8001,-4.7686,-4.7206,-4.7206,-4.6742,-4.603,-4.5483,-4.4705,-4.388,0.0,0.0,0.0,0.0,0.0,0.0,0.0,0.0,0.0,0.0,0.0,0.0,0.0,0.0,0.0,0.0,0.0,0.0,0.0,-3.4255,-3.4981,-3.5336,-3.7043,-3.8022,-3.8053,-3.9079,-3.9622,-3.9622,-3.9872,-3.9953,-3.984,-4.0147,-4.0227,-4.0128,-4.0116,-4.0126,-4.0137,-4.0268,-4.0321,-4.0334,-4.0537,-4.0595,-4.0581,-4.0375,-4.0255,-4.0184,-3.9983,0.0,0.0,0.0,-3.9614,-3.9401,-3.9389,-3.9129,0.0,-3.8807,-3.9298,-3.9648,0.0,0.0,-4.0501,-3.9584,-3.993,-4.0456,-4.0456,-4.0906,-4.1176,-4.0612,-4.0645,-4.0793,-4.0871,-4.1171,-4.151,-4.1914,-4.2315,-4.2443,-4.2142,-4.2453,-4.2932,-4.3598,-4.4275,-4.4986,0.0,-4.5776,-4.5792,-4.5807,-4.5807,-4.5807,-4.5844,-4.5807,-4.5807,-4.5844,-4.5807,-4.5972,-4.6285,-4.7397,-4.7747,-4.7387,-4.8513,-4.8663,-4.8001,-4.8001,-4.8001,-4.8001,-4.8001,-4.8001,-4.8001,-4.8001,-4.7984,-4.7968,-4.7968,-4.752,-4.6858,-4.6841,-4.5897,-4.4655,0.0,0.0,0.0,0.0,0.0,0.0,0.0,0.0,0.0,0.0,0.0,0.0,0.0,0.0,0.0,0.0,0.0,0.0,0.0,-3.2914,-3.3716,-3.4082,-3.5151,-3.6431,-3.7904,-3.8288,-3.8777,-3.9396,-3.9493,-3.9559,-3.9597,-3.9717,-3.9783,-3.9827,-3.9934,-3.9945,-3.9905,-4.0043,-4.0072,-4.0043,-4.0109,-4.0137,-4.0091,-3.9813,-3.9679,-3.9625,0.0,0.0,0.0,-3.9344,-3.9178,-3.9059,-3.9017,-3.8906,-3.8902,-3.9393,-4.0013,-4.0484,0.0,0.0,-4.0632,-4.022,-4.0709,-4.1252,-4.1122,-4.1562,-4.1897,-4.1527,-4.156,-4.1736,-4.198,-4.2301,-4.2582,-4.2712,-4.2841,-4.2726,-4.2174,-4.3001,-4.3695,-4.3712,-4.4717,0.0,0.0,0.0,0.0,-4.5807,-4.5807,-4.5807,-4.5807,-4.5807,-4.6013,-4.6455,-4.6712,-4.7153,-4.7762,-4.8615,-4.9003,-4.8862,-4.9537,-4.9707,-4.9458,-4.8961,-4.873,-4.8713,-4.8216,-4.8001,-4.8001,-4.8001,-4.8001,-4.8001,-4.8001,-4.7852,-4.7636,-4.7636,-4.7007,-4.6079,0.0,0.0,0.0,0.0,0.0,0.0,0.0,0.0,0.0,0.0,0.0,0.0,0.0,0.0,0.0,0.0,0.0,0.0,0.0,0.0,-3.2349,-3.2733,-3.3614,-3.4859,-3.6468,-3.718,-3.7815,-3.8362,-3.8739,-3.8929,-3.8999,-3.9216,-3.9338,-3.9389,-3.9543,-3.9421,-3.9145,-3.9558,-3.9545,-3.9239,-3.9648,-3.9792,-3.9765,-3.9476,-3.9364,0.0,0.0,0.0,0.0,-3.9007,-3.8925,-3.8866,-3.8822,-3.8979,-3.9225,-3.9352,-4.0333,0.0,0.0,-4.0922,-4.1469,-4.1035,-4.1524,-4.2084,-4.1971,-4.2251,-4.2374,-4.192,-4.2036,-4.2227,-4.2363,-4.2715,-4.3051,-4.324,-4.3174,-4.2959,-4.2507,-4.3457,-4.412,-4.3915,-4.5009,0.0,0.0,0.0,0.0,-4.5807,-4.5807,-4.5807,-4.5807,-4.6044,-4.636,-4.6787,-4.7446,-4.8091,-4.8666,-4.9541,-5.0063,-5.0204,-5.0216,-5.022,-5.0187,-4.9723,-4.9508,-4.9458,-4.8713,-4.8398,-4.8382,-4.8117,-4.8001,-4.8001,-4.8001,-4.8001,-4.8001,-4.8001,-4.7735,-4.7237,0.0,0.0,0.0,0.0,0.0,0.0,0.0,0.0,0.0,0.0,0.0,0.0,0.0,0.0,0.0,0.0,0.0,0.0,0.0,0.0,0.0,-3.1296,-3.2404,-3.3283,-3.3845,-3.5752,-3.6699,-3.6604,-3.766,-3.8107,-3.8047,-3.8623,-3.8808,-3.8674,-3.8869,-3.853,-3.7894,-3.8822,-3.8743,-3.8065,-3.913,-3.9564,-3.9541,-3.9338,0.0,0.0,0.0,0.0,0.0,0.0,0.0,0.0,0.0,-3.9301,-3.9738,-3.887,-4.0304,-4.1824,-4.014,-4.1342,-4.2886,-4.1977,-4.2339,-4.2901,-4.2901,-4.2863,-4.2634,-4.1881,-4.2068,-4.2272,0.0,0.0,-4.2941,-4.3462,-4.3309,-4.3113,-4.3113,-4.3719,-4.4189,0.0,0.0,0.0,0.0,0.0,0.0,-4.5807,0.0,-4.5823,-4.5855,-4.6455,-4.6834,-4.6913,-4.8009,-4.8746,-4.9091,-5.0206,-5.0961,-5.1365,-5.0651,-5.032,-5.032,-5.0286,-5.027,-5.022,-4.9491,-4.9144,-4.9061,-4.8349,-4.8034,-4.8001,-4.8001,-4.8001,-4.8001,-4.8001,-4.8082,-4.8063,0.0,0.0,0.0,0.0,0.0,0.0,0.0,0.0,0.0,0.0,0.0,0.0,0.0,0.0,0.0,0.0,0.0,0.0,0.0,0.0,0.0,0.0,0.0,0.0,0.0,0.0,0.0,-3.5437,-3.7039,-3.7555,-3.7066,-3.7371,-3.7244,-3.6798,-3.705,-3.704,-3.6924,-3.7752,-3.7988,-3.784,0.0,-3.9082,-3.9069,0.0,0.0,0.0,0.0,0.0,0.0,0.0,0.0,0.0,0.0,-3.9227,-3.9896,-4.0193,-4.1079,-4.1995,-4.2141,-4.2559,-4.2884,-4.2666,-4.2737,-4.2901,-4.2901,-4.2516,-4.2092,-4.1881,-4.1737,-4.1596,0.0,0.0,0.0,-4.2767,-4.3175,0.0,-4.3143,-4.3522,0.0,0.0,0.0,-4.5207,-4.576,-4.5807,0.0,0.0,-4.5807,-4.6029,-4.6518,-4.6708,-4.7277,-4.832,-4.9229,-4.9976,-5.0584,-5.151,-5.2021,-5.2127,-5.191,-5.1827,-5.181,-5.1264,-5.0999,-5.0966,-5.0237,-4.9624,-4.9094,-4.8912,-4.8514,-4.8001,-4.8001,-4.8001,-4.8001,-4.8001,-4.8033,-4.8033,0.0,0.0,0.0,0.0,0.0,0.0,0.0,0.0,0.0,0.0,0.0,0.0,0.0,0.0,0.0,0.0,0.0,0.0,0.0,0.0,0.0,0.0,0.0,0.0,0.0,0.0,0.0,0.0,0.0,0.0,-3.5226,-3.5804,-3.5979,-3.5815,-3.6091,-3.6131,-3.5984,-3.6758,0.0,0.0,0.0,0.0,0.0,0.0,0.0,0.0,0.0,0.0,0.0,0.0,0.0,-3.8609,-3.8578,-3.9132,-3.9792,-3.9765,0.0,-4.1923,-4.196,-4.2412,-4.2901,-4.2901,-4.2901,-4.2844,-4.2634,-4.2458,-4.2154,-4.1477,-4.1643,0.0,0.0,0.0,0.0,0.0,0.0,0.0,-4.3292,-4.3675,-4.4042,0.0,-4.4708,0.0,-4.5744,-4.5807,-4.5807,0.0,-4.6076,-4.6408,-4.6787,-4.7387,-4.8067,-4.8857,-4.9795,-5.0655,-5.1397,-5.2069,-5.2409,-5.2409,-5.2409,-5.2409,-5.2409,-5.1978,-5.1796,-5.1746,0.0,-5.0436,-5.0005,-4.9375,-4.8862,-4.8465,-4.8133,-4.8001,-4.8001,-4.8001,-4.8033,-4.8115,0.0,0.0,0.0,0.0,0.0,0.0,0.0,0.0,0.0,0.0,0.0,0.0,0.0,0.0,0.0,0.0,0.0,0.0,0.0,0.0,0.0,0.0,0.0,0.0,0.0,0.0,0.0,0.0,0.0,0.0,0.0,0.0,0.0,0.0,0.0,0.0,0.0,0.0,0.0,0.0,0.0,0.0,0.0,0.0,0.0,0.0,0.0,0.0,0.0,0.0,-3.8593,-3.8478,-3.843,-3.8958,-3.9451,-3.8667,-3.9998,-4.156,-4.0854,-4.1759,-4.2901,-4.2901,-4.2901,-4.2787,-4.2318,-4.2458,-4.2284,-4.0793,0.0,-4.1804,-4.0718,0.0,-4.1771,-4.2316,0.0,-4.2704,-4.335,-4.3822,-4.42,-4.4577,-4.4871,-4.5247,-4.5674,-4.576,-4.5807,-4.5807,-4.6518,-4.6945,-4.6945,-4.8177,-4.8998,-4.9208,-5.009,-5.0984,-5.1851,-5.223,-5.2409,-5.2409,-5.2409,-5.2409,-5.2409,-5.2409,-5.2409,-5.234,-5.173,0.0,-5.1199,-4.9806,-4.9193,-4.9028,-4.8299,-4.8001,-4.8001,-4.8001,-4.8082,-4.8195,0.0,0.0,0.0,0.0,0.0,0.0,0.0,0.0,0.0,0.0,0.0,0.0,0.0,0.0,0.0,0.0,0.0,0.0,0.0,0.0,0.0,0.0,0.0,0.0,0.0,0.0,0.0,0.0,0.0,0.0,0.0,0.0,0.0,0.0,0.0,0.0,0.0,0.0,0.0,0.0,0.0,0.0,0.0,0.0,0.0,0.0,0.0,0.0,0.0,0.0,-3.8449,-3.8415,-3.8478,-3.8526,-3.8649,-3.9161,-3.9982,-4.0836,-4.1361,-4.2176,-4.2901,-4.2901,-4.2901,-4.2787,-4.2318,-4.1952,0.0,0.0,0.0,-3.9491,-3.9051,-3.9594,0.0,-4.0713,0.0,0.0,0.0,0.0,-4.3557,0.0,0.0,0.0,0.0,0.0,0.0,0.0,0.0,-4.7703,-4.7703,-4.8462,-4.9451,-5.0682,-5.0903,-5.1397,-5.2302,-5.2373,-5.2409,-5.2409,-5.2409,-5.2409,-5.2409,-5.2409,-5.2409,-5.2373,-5.2277,0.0,-5.1249,-5.0369,-4.9657,-4.9028,-4.8299,-4.8001,-4.8001,-4.8001,-4.8082,-4.8227,0.0,0.0,0.0,0.0,0.0,0.0,0.0,0.0,0.0,0.0,0.0,0.0,0.0,0.0,0.0,0.0,0.0,0.0,0.0,0.0,0.0,0.0,0.0,0.0,0.0,0.0,0.0,0.0,0.0,0.0,0.0,0.0,0.0,0.0,0.0,0.0,0.0,0.0,0.0,0.0,0.0,0.0,0.0,0.0,0.0,0.0,0.0,0.0,0.0,0.0,-3.8467,-3.8354,-3.8336,-3.8322,-3.8363,-3.8729,-3.9349,-4.0003,-4.0401,-4.1379,-4.2285,-4.2285,-4.2285,-4.2116,-4.1428,0.0,0.0,0.0,0.0,-3.8809,-3.8822,0.0,0.0,0.0,0.0,0.0,0.0,0.0,0.0,0.0,0.0,0.0,0.0,0.0,0.0,0.0,0.0,-4.7893,-4.7915,-4.905,-5.0058,-5.0778,-5.121,-5.1635,-5.2069,-5.2302,-5.2409,-5.2409,-5.2409,-5.2409,-5.2409,-5.2409,-5.2409,-5.2409,-5.2409,0.0,-5.1829,-5.1065,-5.0336,-4.9607,-4.8862,-4.8349,-4.8001,-4.8001,-4.8033,-4.8115,0.0,0.0,0.0,0.0,0.0,0.0,0.0,0.0,0.0,0.0,0.0,0.0,0.0,0.0,0.0,0.0,0.0,0.0,0.0,0.0,0.0,0.0,0.0,0.0,0.0,0.0,0.0,0.0,0.0,0.0,0.0,0.0,0.0,0.0,0.0,0.0,0.0,0.0,0.0,0.0,0.0,0.0,0.0,0.0,0.0,0.0,0.0,0.0,0.0,0.0,-3.8517,-3.8322,-3.8274,-3.8257,-3.8274,-3.8224,-3.877,-3.9387,-3.9387,-4.0401,-4.1433,-4.1433,-4.1433,-4.1211,-4.0344,-3.9929,0.0,0.0,-3.8065,-3.8517,-3.8681,0.0,0.0,0.0,0.0,0.0,0.0,0.0,0.0,0.0,0.0,0.0,0.0,0.0,0.0,0.0,0.0,0.0,-4.837,-4.97,-5.0602,-5.0755,-5.1429,-5.1851,-5.1941,-5.223,-5.2409,-5.2409,-5.2409,-5.2409,-5.2409,-5.2409,-5.2409,-5.2409,-5.2409,0.0,0.0,-5.1413,-5.0717,-5.0121,-4.9226,-4.8514,-4.8001,-4.8001,-4.8033,-4.8017,0.0,0.0,0.0,0.0,0.0,0.0,0.0,0.0,0.0,0.0,0.0,0.0,0.0,0.0,0.0,0.0,0.0,0.0,0.0,0.0,0.0,0.0,0.0,0.0,0.0,0.0,0.0,0.0,0.0,0.0,0.0,0.0,0.0,0.0,0.0,0.0,0.0,0.0,0.0,0.0,0.0,0.0,0.0,0.0,0.0,0.0,0.0,0.0,0.0,0.0,0.0,-3.8478,-3.8399,-3.8305,-3.8225,-3.8274,0.0,0.0,-3.9387,-4.0003,-4.0601,-4.0601,-4.0601,-4.0382,-3.9511,0.0,0.0,-3.7223,-3.7479,-3.7929,-3.7829,-3.8254,0.0,0.0,0.0,0.0,0.0,0.0,0.0,0.0,0.0,0.0,0.0,0.0,0.0,0.0,0.0,0.0,-4.9858,-5.0262,-5.087,-5.1668,-5.1741,-5.1977,-5.2338,-5.2373,-5.2409,-5.2409,-5.2409,-5.2409,-5.2409,-5.2409,-5.2409,-5.2409,-5.2409,0.0,0.0,-5.0883,-5.027,-5.0071,-4.8647,-4.8067,-4.8001,-4.8001,-4.8099,-4.8163,0.0,0.0,0.0,0.0,0.0,0.0,0.0,0.0,0.0,0.0,0.0,0.0,0.0,0.0,0.0,0.0,0.0,0.0,0.0,0.0,0.0,0.0,0.0,0.0,0.0,0.0,0.0,0.0,0.0,0.0,0.0,0.0,0.0,0.0,0.0,0.0,0.0,0.0,0.0,0.0,0.0,0.0,0.0,0.0,0.0,0.0,0.0,0.0,0.0,0.0,0.0,0.0,-3.8478,-3.8368,0.0,0.0,-3.8477,-3.868,-3.868,-3.9242,-3.984,-3.984,-3.984,-3.9608,-3.8755,0.0,0.0,-3.6332,-3.6705,-3.7341,-3.7636,-3.8178,-3.8789,0.0,0.0,0.0,0.0,0.0,0.0,0.0,0.0,0.0,0.0,0.0,0.0,0.0,0.0,0.0,-4.86,-5.0317,-5.121,-5.1005,-5.1247,-5.145,-5.1635,-5.1635,-5.1871,-5.2409,-5.2409,-5.2409,-5.2409,-5.2409,-5.2409,-5.2409,-5.2409,0.0,0.0,-5.128,-5.0601,-5.0104,-4.9077,-4.8398,-4.8001,-4.8001,-4.8033,-4.8082,0.0,0.0,0.0,0.0,0.0,0.0,0.0,0.0,0.0,0.0,0.0,0.0,0.0,0.0,0.0,0.0,0.0,0.0,0.0,0.0,0.0,0.0,0.0,0.0,0.0,0.0,0.0,0.0,0.0,0.0,0.0,0.0,0.0,0.0,0.0,0.0,0.0,0.0,0.0,0.0,0.0,0.0,0.0,0.0,0.0,0.0,0.0,0.0,0.0,0.0,0.0,0.0,0.0,0.0,0.0,0.0,-3.8274,-3.8209,-3.8209,-3.8625,-3.906,-3.906,-3.906,-3.8815,0.0,0.0,-3.6641,-3.5739,-3.6225,-3.6986,-3.7537,-3.8178,-3.8789,-3.9394,0.0,-3.973,0.0,0.0,0.0,0.0,0.0,0.0,0.0,0.0,0.0,0.0,0.0,0.0,0.0,-4.9475,-5.0532,-5.029,-5.0592,-5.0707,-5.0707,-5.0951,-5.1268,-5.1619,-5.1891,-5.2017,-5.2017,-5.2017,-5.2142,-5.2409,-5.2177,0.0,0.0,-5.1032,-5.0336,-4.9806,-4.9077,-4.8465,-4.8001,-4.8001,-4.8001,-4.8001,0.0,0.0,0.0,0.0,0.0,0.0,0.0,0.0,0.0,0.0,0.0,0.0,0.0,0.0,0.0,0.0,0.0,0.0,0.0,0.0,0.0,0.0,0.0,0.0,0.0,0.0,0.0,0.0,0.0,0.0,0.0,0.0,0.0,0.0,0.0,0.0,0.0,0.0,0.0,0.0,0.0,0.0,0.0,0.0,0.0,0.0,0.0,0.0,0.0,0.0,0.0,0.0,0.0,0.0,0.0,0.0,-3.8305,-3.8209,-3.8209,-3.8209,-3.8209,-3.8209,-3.8209,-3.7968,0.0,0.0,-3.662,-3.5684,-3.6196,-3.6939,-3.7424,-3.8087,-3.8789,-3.9394,-3.9395,0.0,0.0,0.0,0.0,0.0,0.0,0.0,0.0,0.0,0.0,0.0,0.0,0.0,0.0,-4.7516,-4.8514,-4.9758,-4.9805,-4.9805,-4.9805,-5.0669,-5.0669,-4.9844,-5.0707,-5.1118,-5.1118,-5.1118,-5.1582,0.0,0.0,0.0,0.0,-4.9723,-4.9127,-4.9044,-4.8299,-4.8017,-4.8001,-4.8001,-4.8001,-4.8001,0.0,0.0,0.0,0.0,0.0,0.0,0.0,0.0,0.0,0.0,0.0,0.0,0.0,0.0,0.0,0.0,0.0,0.0,0.0,0.0,0.0,0.0,0.0,0.0,0.0,0.0,0.0,0.0,0.0,0.0,0.0,0.0,0.0,0.0,0.0,0.0,0.0,0.0,0.0,0.0,0.0,0.0,0.0,0.0,0.0,0.0,0.0,0.0,0.0,0.0,0.0,0.0,0.0,0.0,0.0,-3.8322,0.0,0.0,-3.8209,-3.8209,-3.8209,-3.8209,-3.795,-3.7578,-3.7017,0.0,-3.6305,-3.5633,-3.6127,-3.6821,-3.7269,-3.7978,-3.8661,-3.9262,-3.9325,0.0,0.0,0.0,0.0,0.0,0.0,0.0,0.0,0.0,0.0,0.0,0.0,0.0,0.0,-4.5309,-4.6091,-4.7581,-4.7596,-4.7596,-4.7596,-4.8399,-4.893,-4.9266,-5.0076,-5.0481,-5.0481,-5.0481,0.0,0.0,0.0,0.0,0.0,-4.9508,-4.911,-4.9028,-4.8299,-4.8001,-4.8001,-4.8001,-4.7671,-4.7186,0.0,0.0,0.0,0.0,0.0,0.0,0.0,0.0,0.0,0.0,0.0,0.0,0.0,0.0,0.0,0.0,0.0,0.0,0.0,0.0,0.0,0.0,0.0,0.0,0.0,0.0,0.0,0.0,0.0,0.0,0.0,0.0,0.0,0.0,0.0,0.0,0.0,0.0,0.0,0.0,0.0,0.0,-3.305,0.0,0.0,0.0,0.0,0.0,0.0,0.0,0.0,0.0,0.0,0.0,0.0,0.0,-3.7862,-3.7774,0.0,-3.8209,-3.8157,-3.7967,-3.7721,0.0,0.0,0.0,-3.6131,-3.5543,-3.5822,-3.6306,-3.6729,-3.7245,-3.7777,-3.8354,-3.8692,0.0,0.0,0.0,0.0,0.0,0.0,0.0,0.0,0.0,0.0,0.0,0.0,0.0,0.0,-4.3902,-4.4364,-4.5315,-4.5858,-4.6117,-4.6117,-4.6905,-4.7545,-4.8073,-4.8877,-4.9426,-4.9705,-4.9705,0.0,0.0,0.0,0.0,0.0,-4.8995,-4.8696,-4.8614,-4.7852,-4.7555,-4.7521,-4.7236,-4.6809,-4.6429,0.0,0.0,0.0,0.0,0.0,0.0,0.0,0.0,0.0,0.0,0.0,0.0,0.0,0.0,0.0,0.0,0.0,0.0,0.0,0.0,0.0,0.0,0.0,0.0,0.0,0.0,0.0,-2.8993,-2.8264,-2.7469,-2.6725,0.0,0.0,0.0,0.0,0.0,0.0,0.0,0.0,0.0,0.0,0.0,0.0,0.0,0.0,0.0,0.0,0.0,0.0,0.0,0.0,0.0,0.0,0.0,0.0,0.0,0.0,0.0,0.0,-3.8123,0.0,0.0,0.0,0.0,0.0,0.0,0.0,-3.5412,-3.54,-3.5572,-3.5933,-3.6107,-3.638,-3.7011,-3.7731,0.0,0.0,0.0,0.0,0.0,0.0,0.0,0.0,0.0,0.0,0.0,0.0,0.0,0.0,-4.329,-4.329,-4.329,-4.4526,-4.5155,-4.5155,-4.602,-4.6443,-4.6348,-4.7175,-4.7967,-4.8767,-4.8767,0.0,0.0,0.0,0.0,0.0,-4.8101,-4.782,-4.7754,-4.6999,-4.6742,-4.6708,-4.6005,-4.5769,-4.5877,0.0,0.0,0.0,0.0,0.0,0.0,0.0,0.0,0.0,0.0,0.0,0.0,0.0,0.0,0.0,0.0,0.0,0.0,0.0,0.0,0.0,0.0,0.0,0.0,0.0,0.0,0.0,-2.8993,-2.8824,-2.8045,-2.6725,-2.8282,0.0,0.0,0.0,0.0,0.0,0.0,0.0,0.0,0.0,0.0,0.0,0.0,0.0,0.0,-3.4317,-3.5116,0.0,0.0,0.0,0.0,0.0,0.0,0.0,0.0,-3.6978,-3.6939,-3.715,0.0,-3.7578,-3.7151,-3.7055,0.0,0.0,0.0,0.0,0.0,0.0,-3.5345,-3.5884,-3.6033,-3.6265,-3.6986,-3.7731,0.0,0.0,0.0,0.0,0.0,0.0,0.0,0.0,0.0,0.0,0.0,0.0,0.0,0.0,-4.329,-4.329,-4.329,-4.3589,-4.3753,-4.3753,-4.4578,-4.4987,-4.4987,-4.5802,-4.657,-4.7278,-4.7278,-4.7399,0.0,0.0,0.0,-4.6474,-4.6298,-4.6234,-4.6234,-4.602,-4.6288,-4.6777,-4.6604,-4.6534,-4.6569,0.0,0.0,0.0,0.0,0.0,0.0,0.0,0.0,0.0,0.0,0.0,0.0,0.0,0.0,0.0,0.0,0.0,0.0,0.0,0.0,0.0,0.0,0.0,0.0,0.0,0.0,0.0,0.0,0.0,-2.8383,0.0,0.0,0.0,0.0,0.0,0.0,0.0,0.0,0.0,0.0,-3.2666,0.0,0.0,0.0,0.0,0.0,-3.3822,-3.4585,0.0,-3.565,-3.6416,-3.7189,0.0,0.0,0.0,0.0,-3.6474,-3.6291,-3.6291,-3.6744,-3.7132,-3.6739,-3.6577,-3.6433,-3.6002,0.0,0.0,0.0,0.0,-3.5174,-3.5453,-3.5495,0.0,0.0,0.0,0.0,0.0,0.0,0.0,0.0,0.0,0.0,0.0,0.0,0.0,0.0,0.0,0.0,0.0,-4.329,-4.329,-4.329,-4.329,-4.329,-4.329,-4.3732,-4.4143,-4.451,-4.4962,-4.5536,-4.6288,-4.6288,-4.6288,0.0,0.0,0.0,-4.5697,-4.5697,-4.5913,-4.6182,-4.5841,-4.6147,-4.6742,-4.6429,-4.6288,-4.6324,0.0,0.0,0.0,0.0,0.0,0.0,0.0,0.0,0.0,0.0,0.0,0.0,0.0,0.0,0.0,0.0,0.0,0.0,0.0,0.0,0.0,0.0,0.0,0.0,0.0,0.0,0.0,0.0,0.0,0.0,0.0,0.0,-2.9467,0.0,0.0,0.0,0.0,0.0,0.0,0.0,-3.2601,0.0,0.0,0.0,0.0,0.0,0.0,0.0,0.0,-3.5066,-3.5912,-3.6801,-3.6721,0.0,0.0,0.0,0.0,0.0,-3.5577,-3.6118,-3.66,-3.6259,-3.6135,-3.5985,-3.5566,0.0,0.0,0.0,0.0,0.0,0.0,0.0,0.0,0.0,0.0,0.0,0.0,0.0,0.0,0.0,0.0,0.0,0.0,0.0,0.0,0.0,0.0,0.0,0.0,-4.314,-4.3185,-4.329,-4.3409,-4.3433,-4.329,-4.329,-4.363,-4.4335,-4.4335,-4.4812,-4.5697,-4.5588,-4.5588,-4.5697,0.0,0.0,-4.5332,-4.5478,-4.5897,-4.6394,-4.5753,-4.604,-4.6708,-4.6076,-4.5949,-4.6127,0.0,0.0,0.0,0.0,0.0,0.0,0.0,0.0,0.0,0.0,0.0,0.0,0.0,0.0,0.0,0.0,0.0,0.0,0.0,0.0,0.0,0.0,0.0,0.0,0.0,0.0,0.0,0.0,0.0,0.0,-2.7718,-2.8419,-2.9685,0.0,0.0,0.0,-3.2283,-3.1932,-3.2003,-3.23,-3.2368,0.0,0.0,0.0,0.0,0.0,0.0,0.0,0.0,-3.5375,-3.5948,-3.6326,-3.592,0.0,0.0,0.0,0.0,0.0,-3.552,-3.5611,-3.5701,-3.5633,-3.5849,-3.5963,-3.5452,0.0,0.0,0.0,0.0,0.0,0.0,0.0,0.0,0.0,0.0,0.0,0.0,0.0,0.0,0.0,0.0,0.0,0.0,0.0,0.0,0.0,0.0,0.0,0.0,-4.2545,-4.2761,-4.3275,-4.3966,-4.4004,-4.329,-4.329,-4.3369,-4.3472,-4.3472,-4.4259,-4.566,-4.4999,-4.5073,-4.5697,0.0,-4.4924,-4.3732,-4.4396,-4.4737,-4.4834,-4.4737,-4.5556,-4.6777,-4.6673,-4.705,-4.7671,0.0,0.0,0.0,0.0,0.0,0.0,0.0,0.0,0.0,0.0,0.0,0.0,0.0,0.0,0.0,0.0,0.0,0.0,0.0,0.0,0.0,0.0,0.0,0.0,0.0,0.0,0.0,0.0,0.0,-2.9011,-2.8266,-2.9408,-3.0417,-3.1276,0.0,0.0,-3.1693,-3.1506,-3.1543,-3.1712,0.0,0.0,0.0,0.0,0.0,0.0,0.0,0.0,0.0,0.0,-3.5625,-3.5871,-3.5667,0.0,0.0,0.0,0.0,0.0,-3.5514,-3.5446,-3.536,-3.5291,-3.5418,-3.5509,-3.5251,0.0,0.0,0.0,0.0,0.0,0.0,0.0,0.0,0.0,0.0,0.0,0.0,0.0,0.0,0.0,0.0,0.0,0.0,0.0,0.0,0.0,0.0,0.0,0.0,0.0,-4.2006,-4.2267,-4.2636,-4.2636,-4.2282,-4.2282,-4.2626,-4.329,-4.3732,-4.4335,-4.5073,-4.511,-4.5369,-4.5697,0.0,-4.541,-4.4743,-4.5101,-4.552,-4.5881,-4.5773,-4.6429,-4.7389,-4.6995,-4.7078,-4.7355,0.0,0.0,0.0,0.0,0.0,0.0,0.0,0.0,0.0,0.0,0.0,0.0,0.0,0.0,0.0,0.0,0.0,0.0,0.0,0.0,0.0,0.0,0.0,0.0,0.0,0.0,-3.0451,-2.9044,-2.958,-2.9506,-2.8927,-3.0331,-3.0975,0.0,0.0,0.0,-3.119,-3.119,-3.1249,-3.1349,0.0,0.0,0.0,0.0,0.0,0.0,0.0,0.0,0.0,0.0,0.0,0.0,0.0,0.0,0.0,-3.5594,-3.5543,-3.5492,-3.5423,-3.5314,-3.5222,-3.5105,-3.5065,-3.5088,-3.5065,0.0,0.0,0.0,0.0,0.0,0.0,0.0,0.0,0.0,0.0,0.0,0.0,0.0,0.0,0.0,0.0,0.0,0.0,0.0,0.0,0.0,0.0,0.0,0.0,0.0,-4.122,-4.1422,-4.1558,-4.1581,-4.1422,-4.1581,-4.213,-4.3085,-4.3708,-4.4183,-4.4538,-4.5011,-4.5334,-4.5511,-4.5655,-4.5585,-4.5393,-4.5585,-4.6019,-4.6495,-4.6173,-4.6545,-4.7144,-4.6421,-4.6257,-4.632,0.0,0.0,0.0,0.0,0.0,0.0,0.0,0.0,0.0,0.0,0.0,0.0,0.0,0.0,0.0,0.0,0.0,0.0,0.0,0.0,0.0,0.0,0.0,0.0,0.0,-3.1012,-3.0549,-2.982,-2.9697,-2.9599,-2.9565,-3.0466,-3.0952,-3.0995,0.0,0.0,-3.119,-3.119,-3.137,-3.1675,-3.1677,0.0,0.0,0.0,0.0,0.0,0.0,0.0,0.0,0.0,0.0,0.0,0.0,0.0,-3.5577,-3.552,-3.5492,-3.5446,-3.5198,-3.5128,-3.5065,-3.4947,-3.4994,0.0,-3.4947,-3.4899,0.0,-3.4899,0.0,0.0,0.0,0.0,0.0,0.0,0.0,0.0,0.0,0.0,0.0,0.0,0.0,0.0,0.0,0.0,0.0,0.0,0.0,0.0,0.0,0.0,0.0,-4.1392,-4.2041,-4.2077,-4.1422,-4.2093,-4.2452,-4.245,-4.2523,-4.3282,-4.4571,-4.4068,-4.4253,-4.4967,-4.5098,-4.4655,-4.3931,-4.4671,-4.4886,-4.4721,-4.4097,-4.4317,-4.495,-4.4203,-4.4372,-4.4951,0.0,0.0,0.0,0.0,0.0,0.0,0.0,0.0,0.0,0.0,0.0,0.0,0.0,0.0,0.0,0.0,0.0,0.0,0.0,0.0,0.0,0.0,0.0,-3.0851,-3.1012,-3.0496,-3.0087,-2.9842,-2.9671,-2.9829,-3.0296,-3.0758,0.0,0.0,0.0,0.0,-3.119,-3.119,-3.1271,-3.1389,-3.1389,-3.1485,0.0,0.0,0.0,0.0,0.0,0.0,0.0,0.0,-3.5756,-3.56,-3.5566,-3.5543,-3.552,-3.5423,-3.5331,-3.5222,-3.5128,-3.5041,-3.497,-3.4923,-3.4947,0.0,0.0,-3.4899,-3.4899,0.0,0.0,0.0,0.0,0.0,0.0,0.0,0.0,0.0,0.0,0.0,0.0,0.0,0.0,0.0,0.0,0.0,0.0,0.0,0.0,0.0,0.0,0.0,0.0,-4.0157,-4.042,-4.0456,-4.0157,-4.042,-4.0985,-4.1841,-4.2399,-4.2945,-4.3476,-4.3904,-4.4225,-4.4541,-4.4657,-4.4542,-4.4226,-4.4542,-4.4608,-4.4542,-4.4476,-4.4673,-4.4887,-4.4463,-4.4236,-4.4107,0.0,0.0,0.0,0.0,0.0,0.0,0.0,0.0,0.0,0.0,0.0,0.0,0.0,0.0,0.0,0.0,0.0,0.0,0.0,0.0,0.0,0.0,0.0,-3.0794,-3.0831,-3.0112,-2.9861,-3.0095,-2.9942,-3.0172,-3.0692,0.0,0.0,0.0,0.0,0.0,0.0,-3.1171,-3.119,-3.119,-3.119,-3.119,0.0,0.0,0.0,0.0,0.0,0.0,0.0,0.0,-3.56,-3.5577,-3.5537,-3.5492,-3.5469,-3.5291,-3.5175,-3.5088,-3.5041,-3.497,-3.4899,0.0,0.0,0.0,-3.4899,-3.4899,-3.4899,0.0,0.0,0.0,0.0,0.0,0.0,0.0,0.0,0.0,0.0,0.0,0.0,0.0,0.0,0.0,0.0,0.0,0.0,0.0,0.0,0.0,0.0,0.0,0.0,0.0,-3.9517,-3.9388,-3.9388,-3.9388,-3.9915,-4.094,-4.1593,-4.2217,-4.2861,-4.3417,-4.365,-4.3683,-4.3815,-4.3831,-4.3815,-4.3815,-4.3618,-4.3336,-4.3536,-4.3618,-4.3521,-4.3154,-4.3025,-4.3009,0.0,0.0,0.0,0.0,0.0,0.0,0.0,0.0,0.0,0.0,0.0,0.0,0.0,0.0,0.0,0.0,0.0,0.0,0.0,0.0,0.0,0.0,0.0,-3.0895,-3.0692,-2.9976,-2.9959,-3.0692,-3.0551,-3.0568,-3.0692,-3.0851,0.0,0.0,0.0,0.0,0.0,-3.1151,-3.119,-3.119,-3.119,-3.119,-3.119,0.0,0.0,0.0,0.0,0.0,0.0,0.0,-3.56,-3.5577,-3.5537,-3.5492,-3.5446,-3.5175,-3.5088,-3.5065,-3.4947,-3.4899,0.0,0.0,0.0,0.0,0.0,-3.4899,-3.4899,0.0,0.0,0.0,0.0,0.0,0.0,0.0,0.0,0.0,0.0,0.0,0.0,0.0,0.0,0.0,0.0,0.0,0.0,0.0,0.0,0.0,0.0,0.0,0.0,0.0,-3.9758,-3.9394,-3.9409,-3.9409,-3.9517,-3.9717,-3.9925,-4.1021,-4.2868,-4.2459,-4.2285,-4.2285,-4.2426,-4.2411,-4.2269,-4.2269,-4.1656,-4.0703,-4.0703,-4.0634,-4.0409,-3.9717,-4.0305,-4.1525,0.0,0.0,0.0,0.0,0.0,0.0,0.0,0.0,0.0,0.0,0.0,0.0,0.0,0.0,0.0,0.0,0.0,0.0,0.0,0.0,0.0,0.0,0.0,0.0,0.0,0.0,-3.0087,-2.9788,-3.036,-3.0651,0.0,0.0,0.0,-3.0912,0.0,0.0,-3.0995,-3.1151,-3.119,-3.119,-3.119,-3.119,-3.119,0.0,0.0,0.0,0.0,0.0,0.0,0.0,0.0,0.0,-3.5406,-3.5377,-3.5314,-3.5041,-3.497,-3.4947,-3.4923,0.0,0.0,0.0,0.0,0.0,0.0,0.0,0.0,0.0,0.0,0.0,0.0,0.0,0.0,0.0,0.0,0.0,0.0,0.0,0.0,0.0,0.0,0.0,0.0,0.0,0.0,0.0,0.0,0.0,0.0,0.0,0.0,-3.9671,-3.9444,-3.9579,-4.0093,-3.9785,-4.0152,-4.1176,-4.0509,-4.0505,-4.1104,-4.1541,-4.1475,-4.1057,-4.1558,-4.1492,-4.1039,-4.1039,-4.1057,-4.1176,-4.1524,-4.1541,-4.1428,-4.211,-4.2317,-4.2349,0.0,0.0,0.0,0.0,0.0,0.0,0.0,0.0,0.0,0.0,0.0,0.0,0.0,0.0,0.0,0.0,0.0,0.0,0.0,0.0,0.0,0.0,0.0,0.0,0.0,-3.0568,-3.0274,0.0,0.0,0.0,0.0,0.0,0.0,-3.0831,0.0,-3.0995,0.0,-3.1151,-3.119,-3.119,-3.119,-3.119,-3.119,0.0,0.0,0.0,0.0,0.0,0.0,0.0,0.0,0.0,-3.536,0.0,-3.5175,-3.497,-3.4899,-3.4899,-3.4899,0.0,0.0,0.0,0.0,0.0,0.0,0.0,0.0,0.0,0.0,0.0,0.0,0.0,0.0,0.0,0.0,0.0,0.0,0.0,0.0,0.0,0.0,0.0,0.0,0.0,0.0,0.0,0.0,0.0,0.0,0.0,-3.933,-3.933,-3.9077,-3.9281,-3.996,-3.9508,-3.9841,-4.1008,-4.0197,-3.998,-4.0327,-4.0874,-4.087,-4.0524,-4.0938,-4.087,-4.0489,-4.0489,-4.0646,-4.0938,-4.1256,-4.1225,-4.1127,-4.19,-4.2094,-4.2013,0.0,0.0,0.0,0.0,0.0,0.0,0.0,0.0,0.0,0.0,0.0,0.0,0.0,0.0,0.0,0.0,0.0,0.0,0.0,0.0,0.0,0.0,0.0,0.0,0.0,0.0,0.0,0.0,0.0,0.0,0.0,0.0,-3.0692,-3.0712,0.0,-3.0975,0.0,-3.1131,-3.119,-3.119,-3.119,-3.119,-3.119,-3.119,0.0,0.0,0.0,0.0,0.0,0.0,0.0,0.0,-3.5331,-3.5198,-3.5065,-3.4947,-3.4899,-3.4899,0.0,0.0,0.0,0.0,0.0,0.0,0.0,0.0,0.0,0.0,0.0,0.0,0.0,0.0,0.0,0.0,0.0,0.0,0.0,0.0,0.0,0.0,0.0,0.0,0.0,0.0,0.0,0.0,0.0,0.0,0.0,-3.9711,-3.9405,-3.9405,-3.8762,-3.8714,-3.9329,-3.8808,-3.8967,-3.9765,-3.9267,-3.9424,-4.0148,-4.0469,-4.06,-4.0593,-4.0524,-4.0489,-4.0489,-4.0489,-4.0436,-4.0312,-4.0381,-4.0261,-4.0101,-4.0172,-4.0578,-4.1109,0.0,0.0,0.0,0.0,0.0,0.0,0.0,0.0,0.0,0.0,0.0,0.0,0.0,0.0,0.0,0.0,0.0,0.0,0.0,0.0,0.0,0.0,0.0,0.0,0.0,0.0,0.0,0.0,0.0,0.0,0.0,0.0,0.0,-3.0692,0.0,-3.0855,-3.0995,-3.1035,-3.1095,-3.119,-3.119,-3.119,-3.119,-3.119,-3.1667,0.0,0.0,0.0,0.0,0.0,0.0,0.0,-3.5222,-3.5128,-3.5065,-3.4947,-3.4899,-3.4899,0.0,-3.4899,0.0,0.0,0.0,0.0,0.0,0.0,0.0,0.0,0.0,0.0,0.0,0.0,0.0,0.0,0.0,0.0,0.0,0.0,0.0,0.0,0.0,0.0,0.0,0.0,0.0,0.0,0.0,0.0,-3.8805,-3.9119,-3.9319,-3.9319,-3.8809,-3.8882,-3.9593,-3.8726,-3.867,0.0,-3.8867,-3.8705,-3.8947,-4.0484,-4.123,-4.1243,-4.0715,-4.0489,-4.0489,-4.0489,-4.0436,-4.0347,-4.0901,-4.0972,-4.0854,-4.144,-4.1753,-4.1867,0.0,0.0,0.0,0.0,0.0,0.0,0.0,0.0,0.0,0.0,0.0,0.0,0.0,0.0,0.0,0.0,0.0,0.0,0.0,0.0,0.0,0.0,0.0,0.0,0.0,0.0,0.0,0.0,0.0,0.0,0.0,0.0,0.0,-3.0794,0.0,-3.0834,-3.1075,-3.1015,-3.1092,-3.119,-3.119,-3.119,-3.119,-3.119,-3.1607,-3.2259,-3.2596,0.0,0.0,0.0,0.0,0.0,0.0,0.0,-3.4994,-3.4923,-3.4899,-3.4899,0.0,0.0,0.0,0.0,0.0,0.0,0.0,0.0,0.0,0.0,0.0,0.0,0.0,0.0,0.0,0.0,0.0,0.0,0.0,0.0,0.0,0.0,0.0,0.0,0.0,0.0,0.0,0.0,0.0,-3.9023,-3.8351,-3.8673,-3.8925,-3.8925,-3.8728,-3.898,-3.9693,-3.8963,-3.8766,-3.9165,-3.8658,-3.8403,-3.8496,-3.9534,-4.0022,-4.0072,-4.0029,-4.0013,-4.0043,-4.0366,-4.047,-4.0436,-4.0799,-4.0836,-4.0802,-4.1174,-4.1307,-4.1374,0.0,0.0,0.0,0.0,0.0,0.0,0.0,0.0,0.0,0.0,0.0,0.0,0.0,0.0,0.0,0.0,0.0,0.0,0.0,0.0,0.0,0.0,0.0,0.0,0.0,0.0,0.0,0.0,0.0,0.0,0.0,0.0,0.0,-3.0871,0.0,-3.0855,-3.1151,-3.1035,-3.1052,-3.1171,-3.1171,-3.1238,-3.1357,-3.1337,-3.1729,-3.237,-3.2959,-3.3616,-3.4298,-3.4883,0.0,0.0,0.0,0.0,-3.4899,-3.4899,-3.4899,-3.4899,0.0,0.0,0.0,0.0,0.0,0.0,0.0,0.0,0.0,0.0,0.0,0.0,0.0,0.0,0.0,0.0,0.0,0.0,0.0,0.0,0.0,0.0,0.0,0.0,0.0,0.0,0.0,0.0,0.0,-3.9077,-3.8535,-3.8601,-3.8684,-3.8712,-3.8734,-3.9022,-3.9582,-3.9125,-3.8892,-3.8865,-3.8379,-3.8171,-3.8225,-3.8181,-3.8292,-3.8539,-3.9108,-3.9339,-3.94,-4.0043,-4.032,-4.0336,-4.0443,-4.0489,-4.0489,-4.0489,-4.0489,-4.0593,0.0,0.0,0.0,0.0,0.0,0.0,0.0,0.0,0.0,0.0,0.0,0.0,0.0,0.0,0.0,0.0,0.0,0.0,-3.0995,0.0,0.0,-3.0568,-3.0547,0.0,0.0,0.0,0.0,0.0,0.0,0.0,0.0,0.0,0.0,-3.0712,0.0,0.0,-3.1015,-3.0952,-3.0972,-3.1015,-3.1015,-3.1422,-3.1978,-3.1909,-3.2383,-3.3043,-3.3019,-3.3528,-3.4191,-3.4184,-3.4588,0.0,0.0,0.0,-3.4899,-3.4899,-3.4899,-3.4899,0.0,0.0,0.0,0.0,0.0,0.0,0.0,0.0,0.0,0.0,0.0,0.0,0.0,0.0,0.0,0.0,0.0,0.0,0.0,0.0,0.0,0.0,0.0,0.0,0.0,0.0,0.0,0.0,-3.895,-3.9325,-3.9352,-3.9352,-3.9415,-3.953,-3.9152,-3.9001,-3.9098,-3.8629,-3.839,-3.8407,-3.7796,-3.7508,-3.7529,-3.7002,-3.74,-3.8508,-3.86,-3.8646,-3.8708,-3.9351,-3.9613,-3.9674,-4.0259,-4.0489,-4.0489,-4.0489,-4.0489,-4.0593,0.0,0.0,0.0,0.0,0.0,0.0,0.0,0.0,0.0,0.0,0.0,0.0,0.0,0.0,0.0,-3.1131,-3.1112,-3.1055,-3.0952,-3.1032,-3.0972,-3.0733,-3.0712,-3.0712,0.0,0.0,0.0,0.0,0.0,0.0,0.0,-3.0506,-3.0568,0.0,0.0,0.0,0.0,-3.0834,-3.0855,-3.1029,-3.1433,-3.1806,-3.2143,-3.2618,-3.3203,-3.3804,-3.3706,-3.4119,-3.4685,-3.4552,-3.4705,-3.497,-3.4923,0.0,0.0,0.0,0.0,0.0,0.0,0.0,0.0,0.0,0.0,0.0,0.0,0.0,0.0,0.0,0.0,0.0,0.0,0.0,0.0,0.0,0.0,0.0,0.0,0.0,0.0,0.0,0.0,0.0,0.0,0.0,0.0,0.0,-3.788,-3.814,-3.8243,-3.8746,-3.9066,-3.9177,-3.9469,-3.9618,-3.9618,-3.9401,-3.9135,-3.8794,-3.8181,-3.7738,-3.7387,-3.7134,-3.7142,-3.74,-3.7784,-3.7938,-3.8,-3.8677,-3.8954,-3.9031,-3.9659,-3.992,-3.9982,-4.0351,-4.0489,-4.0593,0.0,0.0,0.0,0.0,0.0,0.0,0.0,0.0,0.0,0.0,0.0,0.0,0.0,0.0,0.0,0.0,-3.119,-3.1112,-3.0952,-3.1072,-3.1072,-3.0912,-3.0871,-3.0851,-3.0851,0.0,0.0,0.0,0.0,0.0,-3.0506,-3.0506,-3.0568,0.0,-3.0531,0.0,0.0,0.0,0.0,0.0,-3.1849,-3.2324,-3.2753,-3.3368,-3.4021,-3.4577,-3.4493,-3.4747,-3.5088,-3.4994,-3.4923,-3.4899,-3.4899,-3.4899,0.0,0.0,0.0,0.0,0.0,0.0,0.0,0.0,0.0,0.0,0.0,0.0,0.0,0.0,0.0,0.0,0.0,0.0,0.0,0.0,0.0,0.0,0.0,0.0,0.0,0.0,0.0,0.0,0.0,0.0,0.0,0.0,-3.7028,-3.7219,-3.7328,-3.7995,-3.8421,-3.8562,-3.9192,-3.9639,-3.9825,-4.0011,-3.9876,-3.9418,-3.8821,-3.8294,-3.7854,-3.7679,-3.7371,-3.6968,-3.7172,-3.7246,-3.7292,-3.7984,-3.8262,-3.8323,-3.8967,-3.9228,-3.9339,-3.9982,-4.0243,-4.0362,0.0,0.0,0.0,0.0,0.0,0.0,0.0,0.0,0.0,0.0,0.0,0.0,-3.119,-3.119,-3.119,-3.119,-3.119,-3.1151,-3.0995,-3.0995,-3.0992,-3.0912,-3.0773,0.0,-3.0712,0.0,0.0,0.0,0.0,0.0,-3.0506,-3.0506,-3.0489,-3.051,-3.0506,-3.0589,-3.0712,0.0,0.0,0.0,0.0,-3.2916,-3.4268,-3.4192,-3.4701,0.0,0.0,0.0,-3.5088,-3.5088,-3.4994,-3.4899,-3.4899,-3.4899,-3.4899,0.0,0.0,0.0,0.0,0.0,0.0,0.0,0.0,0.0,0.0,0.0,0.0,0.0,0.0,0.0,0.0,0.0,0.0,0.0,0.0,0.0,0.0,0.0,0.0,0.0,0.0,0.0,0.0,0.0,0.0,0.0,-3.6821,-3.7353,-3.7484,-3.7657,-3.7812,-3.7932,-3.8007,-3.8345,-3.9039,-3.9757,-4.007,-4.0045,-3.9444,-3.9152,-3.9098,-3.8518,-3.8238,-3.8137,-3.7029,-3.6538,-3.6599,-3.7277,-3.7554,-3.7615,-3.8292,-3.8554,-3.8646,-3.929,-3.9536,-3.9748,0.0,0.0,0.0,0.0,0.0,0.0,0.0,0.0,0.0,0.0,0.0,0.0,0.0,-3.1151,-3.1171,-3.1092,-3.1151,-3.1151,-3.0995,-3.1092,-3.1072,-3.0912,-3.0851,-3.079,-3.0692,0.0,0.0,0.0,0.0,-3.0506,-3.0506,-3.0506,-3.0506,-3.0506,-3.0506,-3.0568,-3.0725,-3.1108,0.0,0.0,0.0,0.0,0.0,0.0,0.0,0.0,0.0,0.0,0.0,-3.5175,-3.5065,-3.5018,-3.4923,-3.4899,-3.4899,0.0,0.0,0.0,0.0,0.0,0.0,0.0,0.0,0.0,0.0,0.0,0.0,0.0,0.0,0.0,0.0,0.0,0.0,0.0,0.0,0.0,0.0,0.0,0.0,0.0,0.0,0.0,0.0,0.0,0.0,0.0,0.0,-3.5863,-3.6078,-3.6585,-3.6973,-3.7178,-3.7652,-3.8041,-3.8294,-3.9022,-3.9402,-3.9394,-3.9657,-3.9575,-3.9206,-3.8974,-3.8657,-3.8294,-3.7838,-3.7431,-3.7089,-3.734,-3.7433,-3.7466,-3.7744,-3.8103,-3.8513,-3.9201,-3.9451,-3.9642,0.0,0.0,0.0,0.0,0.0,0.0,0.0,0.0,0.0,0.0,0.0,0.0,0.0,0.0,-3.0881,-3.1038,-3.1151,-3.1151,-3.0995,-3.1075,-3.1072,-3.0912,-3.0871,-3.0794,-3.0692,0.0,0.0,0.0,0.0,0.0,0.0,-3.0506,-3.051,-3.0568,-3.0526,-3.0547,0.0,0.0,0.0,-3.2274,0.0,0.0,-3.4695,0.0,0.0,0.0,0.0,0.0,0.0,0.0,0.0,0.0,0.0,0.0,0.0,0.0,0.0,0.0,0.0,0.0,0.0,0.0,0.0,0.0,0.0,0.0,0.0,0.0,0.0,0.0,0.0,0.0,0.0,0.0,0.0,0.0,0.0,0.0,0.0,0.0,0.0,0.0,0.0,0.0,0.0,0.0,0.0,0.0,-3.5354,-3.586,-3.6205,-3.6383,-3.7127,-3.7533,-3.7533,-3.8261,-3.8751,-3.9005,-3.9503,-3.9657,-3.9497,-3.9497,-3.9269,-3.8887,-3.8887,-3.8322,-3.7417,-3.7637,-3.746,-3.7135,-3.7589,-3.7884,-3.8175,-3.9039,-3.9354,-3.9511,0.0,0.0,0.0,0.0,0.0,0.0,0.0,0.0,0.0,-3.1157,0.0,0.0,0.0,0.0,0.0,-3.114,-3.119,-3.1151,-3.0995,-3.0995,-3.0972,-3.0892,-3.077,-3.0692,-3.0692,0.0,0.0,0.0,0.0,0.0,0.0,0.0,-3.0568,-3.0692,-3.0568,-3.0506,-3.0593,0.0,-3.224,-3.2995,0.0,-3.4745,-3.5492,0.0,0.0,0.0,-3.56,-3.5549,0.0,0.0,0.0,0.0,0.0,0.0,0.0,0.0,0.0,0.0,0.0,0.0,0.0,0.0,0.0,0.0,0.0,0.0,0.0,0.0,0.0,0.0,0.0,0.0,0.0,0.0,0.0,0.0,0.0,0.0,0.0,0.0,0.0,0.0,0.0,0.0,0.0,0.0,-3.5222,-3.5377,-3.5492,-3.5571,-3.56,-3.56,-3.6349,-3.6761,-3.6761,-3.7499,-3.8227,-3.8937,-3.8954,-3.9368,-4.0079,-4.0079,-4.0079,-4.0096,-4.0096,-3.9109,-3.749,-3.8096,-3.765,-3.6693,-3.7838,-3.7953,-3.7599,-3.884,-3.9285,-3.9383,0.0,0.0,0.0,0.0,0.0,0.0,0.0,0.0,0.0,0.0,0.0,0.0,-2.9827,-3.0334,-3.0774,-3.1018,-3.1072,-3.1015,-3.0915,-3.0932,-3.0892,-3.0753,-3.0712,-3.0651,-3.0568,0.0,0.0,0.0,0.0,0.0,0.0,0.0,0.0,0.0,-3.0692,-3.095,-3.1478,-3.2149,0.0,0.0,-3.4489,-3.5061,0.0,0.0,0.0,0.0,0.0,-3.5577,0.0,0.0,-3.5469,-3.5423,0.0,0.0,0.0,0.0,0.0,0.0,-3.5337,0.0,0.0,0.0,0.0,0.0,0.0,0.0,0.0,0.0,0.0,0.0,0.0,0.0,0.0,0.0,0.0,0.0,0.0,0.0,0.0,0.0,0.0,0.0,0.0,0.0,0.0,0.0,-3.5268,-3.5377,-3.5492,-3.5571,-3.56,-3.56,-3.5802,-3.5943,-3.5943,-3.6705,-3.7218,-3.7422,-3.7939,-3.8582,-3.9292,-3.9292,-3.9605,-4.0096,-4.0096,-3.9575,-3.8701,-3.8892,-3.8739,-3.8435,-3.8351,-3.8463,-3.8717,-3.8996,-3.9078,-3.9259,0.0,0.0,0.0,0.0,0.0,0.0,0.0,0.0,0.0,0.0,0.0,0.0,-2.9796,-3.0213,-3.0599,-3.0938,-3.0955,-3.0932,-3.0814,-3.0831,-3.0753,-3.063,-3.0609,-3.0589,-3.0506,0.0,0.0,0.0,0.0,0.0,0.0,0.0,0.0,0.0,0.0,0.0,0.0,0.0,0.0,0.0,-3.4812,0.0,0.0,-3.5475,-3.5571,0.0,0.0,0.0,-3.56,-3.5549,-3.5543,0.0,0.0,0.0,0.0,0.0,0.0,0.0,0.0,0.0,0.0,0.0,0.0,0.0,-3.4942,-3.4942,0.0,0.0,0.0,0.0,0.0,0.0,0.0,0.0,0.0,0.0,0.0,0.0,0.0,0.0,0.0,0.0,0.0,-3.5222,-3.5268,-3.5377,-3.5383,-3.5429,-3.5543,-3.5594,-3.56,-3.56,-3.56,-3.56,-3.56,-3.6079,-3.6451,-3.6812,-3.7229,-3.7821,-3.8548,-3.8853,-3.9225,-3.9673,-3.9977,-3.9918,-3.9592,-3.9592,-3.9269,-3.8794,-3.8712,-3.8892,-3.9232,-3.9391,-3.947,-3.9563,0.0,0.0,0.0,0.0,0.0,0.0,0.0,0.0,0.0,0.0,-2.967,-2.9568,-2.9977,-3.0003,-3.0233,-3.0841,-3.0892,-3.0831,-3.0692,-3.0671,-3.063,-3.0506,-3.0506,-3.0506,-3.0506,-3.0506,0.0,0.0,0.0,0.0,0.0,0.0,0.0,0.0,0.0,0.0,0.0,0.0,0.0,-3.4041,-3.4931,-3.5314,0.0,0.0,-3.56,0.0,-3.56,-3.56,-3.56,-3.56,-3.56,0.0,0.0,0.0,0.0,0.0,-3.5337,0.0,0.0,0.0,0.0,0.0,0.0,0.0,-3.4495,-3.4435,-3.4621,0.0,0.0,0.0,0.0,0.0,0.0,0.0,0.0,0.0,0.0,0.0,0.0,0.0,0.0,0.0,-3.5135,-3.5158,-3.5251,-3.5492,-3.5514,-3.5543,-3.56,-3.56,-3.56,-3.56,-3.56,-3.56,-3.56,-3.56,-3.596,-3.6677,-3.6677,-3.706,-3.7804,-3.8447,-3.8836,-3.9039,-3.9706,-4.0028,-4.0096,-4.002,-3.9401,-3.8557,-3.9082,-3.9312,-3.9365,-3.9893,-4.0087,-4.0087,-2.9875,0.0,0.0,0.0,0.0,0.0,0.0,0.0,0.0,-2.954,-2.9607,-2.99,-3.063,-3.0597,-3.0603,-3.0733,-3.0733,-3.0671,-3.0547,-3.0547,-3.0526,-3.0506,-3.0506,-3.0506,-3.0506,-3.0506,0.0,0.0,0.0,0.0,0.0,0.0,0.0,0.0,0.0,0.0,0.0,0.0,0.0,-3.5004,-3.5201,0.0,-3.5469,-3.5554,-3.56,-3.56,-3.56,-3.56,-3.56,0.0,-3.5571,-3.552,0.0,0.0,0.0,0.0,0.0,0.0,0.0,0.0,0.0,0.0,0.0,0.0,-3.3503,-3.3562,-3.3617,0.0,0.0,0.0,0.0,0.0,0.0,0.0,0.0,0.0,0.0,0.0,0.0,0.0,0.0,0.0,-3.5509,-3.5509,-3.5532,-3.5594,-3.5594,-3.5577,-3.56,-3.56,-3.56,-3.56,-3.56,-3.56,-3.56,-3.56,-3.5667,-3.5819,-3.5819,-3.6248,-3.7032,-3.7168,-3.7895,-3.9005,-3.914,-3.9554,-4.0045,-3.947,-3.9418,-3.9773,-3.9876,-3.9901,-3.9918,-3.9935,-3.9952,-3.9952,-2.9712,0.0,0.0,0.0,0.0,0.0,0.0,0.0,0.0,-2.9937,-3.0144,-3.0416,-3.076,-3.0733,-3.0671,-3.0609,-3.0609,-3.0568,-3.0489,-3.0506,-3.0506,-3.0506,-3.0506,-3.0506,-3.0506,-3.0506,-3.0506,0.0,0.0,0.0,0.0,0.0,0.0,0.0,0.0,0.0,0.0,0.0,-3.4605,-3.54,-3.54,0.0,-3.5514,-3.5571,-3.56,-3.56,-3.56,-3.56,-3.56,-3.56,-3.5594,0.0,0.0,-3.5594,-3.5549,0.0,-3.56,-3.56,0.0,0.0,0.0,-3.4032,0.0,0.0,0.0,-3.2937,-3.3097,-3.3475,0.0,0.0,0.0,0.0,0.0,0.0,0.0,0.0,0.0,0.0,0.0,0.0,0.0,0.0,-3.5036,-3.5222,-3.5412,-3.5526,-3.5594,-3.56,-3.56,-3.56,-3.56,-3.56,-3.56,-3.56,-3.56,-3.56,-3.56,-3.56,-3.56,-3.5802,-3.6214,-3.6626,-3.7202,-3.7922,-3.8667,-3.9191,-3.9538,-3.9484,-3.9661,-3.9961,-3.9609,-3.9635,-3.9884,-3.9833,-3.9781,-3.9824,-3.0038,0.0,0.0,0.0,0.0,0.0,0.0,0.0,0.0,-3.0605,-3.0862,-3.0915,-3.0712,0.0,0.0,0.0,-3.074,-3.074,0.0,0.0,0.0,-3.0489,-3.0506,-3.0506,-3.0506,-3.0506,-3.0506,-3.0506,0.0,0.0,0.0,0.0,0.0,0.0,0.0,0.0,0.0,0.0,0.0,-3.5537,0.0,-3.5537,-3.552,-3.5594,-3.56,-3.56,-3.56,-3.56,-3.56,-3.56,0.0,-3.56,-3.56,-3.56,0.0,0.0,0.0,0.0,0.0,0.0,0.0,0.0,0.0,-3.213,0.0,0.0,0.0,-3.3375,0.0,0.0,0.0,0.0,0.0,0.0,0.0,0.0,0.0,0.0,0.0,0.0,0.0,0.0,0.0,-3.4852,-3.5244,-3.5616,-3.5616,-3.56,-3.56,-3.56,-3.56,-3.56,-3.56,-3.56,-3.56,-3.56,-3.56,-3.56,-3.5577,-3.5594,-3.5611,-3.6236,-3.6591,-3.6793,-3.7993,-3.8644,-3.8965,-3.9404,-3.9689,-3.9772,-3.9185,-3.9265,-3.9703,-3.9703,-3.9703,-3.9703,-3.0871,-3.0944,0.0,0.0,0.0,0.0,0.0,0.0,0.0,-3.1191,-3.1304,0.0,0.0,0.0,0.0,0.0,0.0,0.0,-3.1237,0.0,0.0,-3.051,-3.0506,-3.0506,-3.0506,-3.0506,-3.0506,-3.0506,0.0,0.0,0.0,0.0,0.0,0.0,-3.2952,0.0,0.0,0.0,-3.5764,0.0,-3.5577,-3.5577,0.0,-3.56,-3.56,-3.56,-3.56,-3.56,-3.56,0.0,-3.56,-3.56,0.0,-3.56,0.0,0.0,0.0,0.0,0.0,0.0,0.0,0.0,-3.2357,0.0,0.0,0.0,-3.1402,-3.1506,0.0,0.0,0.0,0.0,0.0,0.0,0.0,0.0,0.0,0.0,0.0,0.0,0.0,0.0,0.0,-3.4861,-3.541,-3.6143,-3.5827,-3.56,-3.56,-3.56,-3.56,-3.56,-3.56,-3.56,-3.56,-3.56,-3.56,-3.56,-3.5543,-3.5514,-3.5514,-3.5484,-3.5847,-3.6451,-3.6618,-3.7457,-3.8631,-3.8588,-3.8954,-3.9554,-3.9573,-3.9651,-3.9703,-3.9703,-3.9703,-3.9703,-3.1225,-3.0998,0.0,0.0,0.0,0.0,0.0,0.0,0.0,-3.1452,-3.1257,0.0,0.0,0.0,0.0,0.0,0.0,-3.1547,0.0,0.0,0.0,0.0,0.0,0.0,-3.0506,-3.0506,-3.0609,-3.0794,-3.0671,0.0,0.0,0.0,0.0,0.0,-3.3328,0.0,-3.4504,0.0,0.0,0.0,0.0,0.0,0.0,-3.56,-3.56,-3.56,-3.56,-3.56,-3.56,0.0,-3.56,0.0,0.0,0.0,0.0,0.0,0.0,0.0,0.0,0.0,0.0,0.0,0.0,0.0,0.0,0.0,-3.119,0.0,0.0,0.0,0.0,0.0,0.0,0.0,0.0,0.0,0.0,0.0,0.0,0.0,0.0,0.0,0.0,0.0,0.0,0.0,-3.5266,-3.5259,-3.5985,-3.5756,-3.56,-3.56,-3.56,-3.56,-3.56,-3.56,-3.56,-3.56,-3.5571,-3.5549,-3.5549,-3.5452,-3.5574,-3.5893,-3.6243,-3.6755,-3.7384,-3.8112,-3.8569,-3.8885,-3.9318,-3.9484,-3.9484,-3.9484,-3.9484,-3.9484,-3.1914,0.0,0.0,0.0,0.0,0.0,0.0,0.0,0.0,0.0,0.0,0.0,-3.1117,-3.1181,0.0,0.0,0.0,-3.1861,0.0,0.0,-3.1317,0.0,0.0,0.0,0.0,-3.0777,-3.0818,-3.1055,-3.0938,0.0,0.0,0.0,0.0,0.0,0.0,-3.4444,-3.5238,0.0,0.0,-3.628,-3.5937,-3.5783,-3.5761,-3.5644,-3.56,-3.56,-3.56,-3.56,-3.56,-3.56,-3.56,0.0,-3.56,0.0,0.0,0.0,0.0,0.0,-3.56,0.0,0.0,0.0,0.0,0.0,0.0,0.0,0.0,0.0,0.0,0.0,0.0,0.0,0.0,0.0,0.0,0.0,0.0,0.0,0.0,0.0,0.0,0.0,0.0,0.0,0.0,-3.5005,-3.4648,-3.489,-3.6066,-3.5698,-3.5557,-3.5783,-3.5667,-3.56,-3.56,-3.56,-3.56,-3.56,-3.5594,-3.5571,-3.5571,-3.5475,-3.5446,-3.548,-3.5867,-3.6171,-3.6415,-3.7378,-3.7968,-3.84,-3.8828,-3.9133,-3.9299,-3.9299,-3.9299,-3.9299,-3.3339,-3.3321,0.0,0.0,0.0,0.0,0.0,0.0,0.0,0.0,0.0,0.0,0.0,0.0,0.0,0.0,0.0,-3.3132,-3.2685,0.0,-3.1967,0.0,0.0,0.0,0.0,0.0,-3.1254,-3.119,-3.1317,0.0,0.0,0.0,0.0,0.0,0.0,-3.4444,-3.5238,-3.5994,-3.6301,-3.6301,-3.628,-3.628,-3.6237,0.0,-3.56,-3.56,-3.56,0.0,0.0,-3.56,-3.56,0.0,0.0,0.0,0.0,0.0,0.0,0.0,0.0,0.0,0.0,-3.3592,0.0,0.0,0.0,0.0,-3.119,0.0,0.0,0.0,0.0,0.0,0.0,-3.1762,0.0,0.0,0.0,0.0,0.0,0.0,0.0,0.0,0.0,0.0,0.0,-3.4545,-3.4235,-3.4506,-3.5665,-3.5324,-3.5463,-3.6245,-3.5827,-3.56,-3.56,-3.56,-3.56,-3.56,-3.552,-3.5492,-3.5492,-3.5377,-3.5314,-3.5291,-3.5192,-3.5538,-3.6204,-3.6108,-3.692,-3.8212,-3.8245,-3.8676,-3.9299,-3.9299,-3.9299,-3.9299,0.0,0.0,0.0,0.0,0.0,0.0,0.0,-3.2621,0.0,0.0,0.0,0.0,0.0,0.0,-3.2368,0.0,0.0,-3.2925,-3.2718,-3.2266,0.0,0.0,0.0,-3.1298,0.0,0.0,-3.1841,-3.1985,-3.1677,0.0,0.0,0.0,0.0,0.0,0.0,-3.5018,0.0,0.0,0.0,0.0,0.0,-3.6301,-3.6259,0.0,0.0,-3.56,-3.56,-3.56,0.0,-3.56,-3.56,-3.56,-3.56,-3.56,-3.56,-3.56,-3.5805,0.0,0.0,0.0,-3.5723,-3.418,0.0,0.0,0.0,0.0,0.0,0.0,0.0,0.0,0.0,0.0,-3.3103,-3.2832,-3.312,0.0,0.0,0.0,0.0,0.0,0.0,0.0,0.0,0.0,0.0,-3.4314,-3.3917,-3.4088,-3.5244,-3.5441,-3.5491,-3.5521,-3.5874,-3.5915,-3.56,-3.56,-3.56,-3.56,-3.5594,-3.5571,-3.5571,-3.5383,-3.5291,-3.5291,-3.5065,-3.512,-3.5385,-3.5818,-3.629,-3.6854,-3.7831,-3.8361,-3.8626,-3.9133,-3.9299,-3.9299,-3.3452,0.0,0.0,0.0,0.0,0.0,0.0,0.0,0.0,0.0,-3.2636,0.0,-3.2892,0.0,-3.2964,0.0,-3.3734,-3.3783,-3.3569,-3.3,0.0,-3.2704,-3.1943,0.0,0.0,0.0,0.0,-3.247,-3.2162,-3.2056,0.0,0.0,0.0,0.0,0.0,0.0,0.0,0.0,-3.7132,0.0,0.0,-3.6597,0.0,0.0,-3.5876,-3.56,0.0,-3.56,-3.56,-3.56,-3.56,-3.5622,-3.58,-3.5849,-3.5871,-3.6028,-3.6284,-3.6512,-3.6512,-3.6698,0.0,-3.4666,-3.4206,0.0,-3.1999,0.0,0.0,0.0,0.0,0.0,0.0,0.0,0.0,-3.3393,-3.3393,-3.3393,0.0,-3.3393,0.0,0.0,0.0,0.0,0.0,0.0,-3.2562,-3.3689,-3.3397,-3.3684,0.0,0.0,-3.5289,-3.531,-3.5782,-3.5915,-3.56,-3.56,-3.56,-3.56,-3.56,-3.56,-3.56,-3.5452,-3.536,-3.5354,-3.5105,-3.497,-3.5003,-3.5437,-3.576,-3.6092,-3.7052,-3.7774,-3.833,-3.9033,-3.9299,-3.9299,0.0,0.0,0.0,0.0,-3.3241,0.0,0.0,0.0,-3.2979,0.0,-3.2787,-3.2891,-3.389,-3.3996,-3.4299,-3.5064,-3.554,0.0,-3.5149,-3.4405,0.0,0.0,-3.2809,-3.2421,-3.3173,0.0,0.0,0.0,-3.2749,-3.2634,0.0,0.0,0.0,0.0,-3.4248,0.0,-3.6363,-3.6758,-3.7152,-3.7505,-3.7094,-3.717,-3.7469,-3.7055,-3.6392,-3.565,-3.5644,-3.5644,-3.5644,-3.5644,-3.5644,-3.5739,-3.6195,-3.6343,-3.6409,-3.6781,-3.6919,-3.6919,-3.6919,-3.6939,-3.6589,-3.5005,0.0,0.0,0.0,0.0,-3.2334,0.0,0.0,0.0,0.0,0.0,0.0,-3.3393,-3.3393,-3.3393,-3.3393,0.0,0.0,0.0,0.0,0.0,0.0,-3.2351,-3.2469,-3.2795,-3.2811,0.0,0.0,0.0,-3.4845,-3.5615,-3.5629,-3.5594,-3.56,-3.56,-3.56,-3.56,-3.56,-3.56,-3.5577,-3.5498,-3.5469,-3.5469,-3.5198,-3.5088,-3.5065,-3.4947,-3.5313,-3.5959,-3.5992,-3.6979,-3.8443,-3.9086,-3.9299,-3.9299,-3.3466,-3.3393,-3.3393,0.0,-3.3349,-3.3334,0.0,0.0,0.0,0.0,-3.4112,-3.4369,-3.5211,-3.5317,-3.5407,-3.5606,-3.5738,0.0,0.0,0.0,0.0,-3.5335,-3.4101,-3.3655,-3.4204,-3.3563,0.0,-3.318,-3.2941,0.0,-3.2666,0.0,0.0,0.0,0.0,0.0,-3.6848,-3.7202,-3.7596,-3.7967,-3.7541,-3.7414,0.0,0.0,-3.6761,-3.6519,-3.622,-3.6131,-3.6131,-3.6131,-3.6308,-3.658,-3.6701,-3.6759,-3.6779,-3.686,-3.7113,-3.7358,-3.7358,-3.7613,-3.7398,-3.5526,-3.5047,-3.4569,0.0,0.0,0.0,0.0,0.0,0.0,0.0,0.0,0.0,0.0,0.0,0.0,0.0,0.0,0.0,-3.3393,0.0,0.0,-3.3101,-3.2862,-3.2829,-3.3226,-3.3117,0.0,0.0,0.0,0.0,-3.4809,-3.5368,-3.5638,-3.5583,-3.56,-3.5571,-3.552,-3.552,-3.5475,-3.5367,-3.5268,-3.5198,-3.5198,-3.5018,-3.4947,-3.4947,-3.4923,-3.5015,-3.523,-3.5794,-3.6928,-3.8347,-3.9139,-3.9395,-3.9299,-3.3591,0.0,0.0,-3.3864,0.0,0.0,-3.3918,0.0,0.0,-3.5023,-3.5116,0.0,-3.6236,-3.6327,-3.6472,-3.6816,-3.6852,0.0,0.0,0.0,0.0,-3.6028,-3.5189,-3.4697,-3.4591,-3.4172,0.0,-3.3393,0.0,0.0,-3.3068,0.0,0.0,0.0,0.0,-3.5625,0.0,-3.7429,-3.795,-3.8192,-3.7897,0.0,0.0,-3.7559,-3.7339,-3.7132,-3.69,-3.6719,-3.6557,-3.6557,-3.6719,-3.6939,-3.7113,-3.7152,-3.7208,-3.7394,-3.7632,-3.781,-3.781,-3.7984,-3.776,-3.5918,-3.5473,-3.4993,-3.3189,-3.2943,-3.3068,0.0,0.0,0.0,0.0,0.0,0.0,0.0,0.0,0.0,0.0,0.0,0.0,0.0,-3.3304,0.0,-3.3378,-3.307,-3.299,-3.3364,0.0,0.0,0.0,0.0,0.0,-3.4747,-3.5149,-3.5531,-3.5915,-3.5667,-3.5549,-3.5543,-3.5543,-3.5498,-3.5377,-3.5245,-3.5152,-3.5088,-3.497,-3.4899,-3.4899,-3.4899,-3.4899,-3.4989,-3.5784,-3.6754,-3.7814,-3.87,-3.9139,-3.9299,0.0,0.0,0.0,0.0,0.0,0.0,0.0,-3.4824,0.0,-3.584,0.0,-3.6272,-3.7067,-3.7158,-3.7448,-3.8136,0.0,-3.8037,-3.7614,-3.7318,-3.6973,-3.6576,-3.6166,-3.5623,-3.4932,-3.4824,0.0,0.0,0.0,0.0,-3.3393,0.0,0.0,0.0,0.0,0.0,0.0,-3.7612,-3.8209,-3.8209,-3.8209,-3.8209,-3.8209,-3.8209,-3.795,-3.7578,-3.7578,-3.7321,-3.6978,-3.6978,-3.7017,-3.7132,-3.7469,-3.7578,-3.7667,-3.8071,-3.8209,-3.8209,-3.8209,-3.8209,-3.7812,-3.6184,-3.5804,-3.5369,-3.3773,-3.3393,-3.3393,-3.3393,-3.3393,-3.3393,0.0,0.0,0.0,0.0,0.0,0.0,0.0,0.0,0.0,0.0,0.0,0.0,-3.3364,-3.3119,-3.3088,0.0,0.0,0.0,0.0,0.0,0.0,-3.4886,-3.4838,-3.5229,-3.6125,0.0,-3.552,-3.5532,-3.5554,-3.5503,-3.5423,-3.5291,-3.5182,-3.5065,-3.4947,-3.4899,-3.4899,-3.4899,-3.4899,-3.4989,-3.5839,-3.6497,-3.7094,-3.806,-3.8733,-3.9219,0.0,0.0,0.0,0.0,0.0,-3.582,-3.6488,-3.6019,-3.5892,-3.6687,-3.6796,-3.7104,-3.7901,-3.7991,-3.8064,-3.8191,-3.8209,0.0,0.0,0.0,0.0,-3.7872,-3.718,-3.6723,-3.6578,-3.5928,-3.5188,0.0,-3.4389,-3.4063,-3.3393,0.0,0.0,0.0,0.0,0.0,-3.7794,-3.8082,0.0,-3.8209,-3.8209,-3.8209,-3.8209,-3.8209,-3.814,-3.8089,-3.8089,-3.7774,-3.7377,-3.7377,-3.765,-3.7985,-3.8072,-3.8089,-3.8088,-3.8192,-3.8209,-3.8209,-3.8209,-3.8209,-3.7812,-3.6184,-3.5804,-3.5369,-3.3773,-3.3393,-3.3393,-3.3393,-3.3393,-3.3393,-3.3393,0.0,0.0,0.0,0.0,0.0,0.0,0.0,0.0,0.0,0.0,0.0,0.0,0.0,0.0,0.0,0.0,0.0,0.0,0.0,0.0,0.0,-3.424,0.0,0.0,0.0,-3.5441,-3.5182,-3.5297,-3.5245,-3.4994,-3.497,-3.497,-3.4923,-3.4923,-3.4899,-3.4899,-3.4899,-3.4899,-3.4965,-3.5735,-3.6165,-3.6505,-3.7902,-3.8546,-3.8772,0.0,0.0,0.0,0.0,0.0,0.0,0.0,-3.7286,0.0,-3.7575,-3.7629,-3.7774,-3.8172,-3.8209,-3.8209,-3.8209,-3.8209,-3.8209,-3.8209,-3.8209,-3.8209,-3.8209,-3.7828,0.0,-3.7013,-3.6633,-3.6037,-3.5206,-3.479,-3.4407,-3.4009,0.0,0.0,0.0,0.0,-3.7069,0.0,0.0,0.0,-3.8209,-3.8209,-3.8209,-3.8209,-3.8209,-3.8209,-3.8209,-3.8209,-3.8054,-3.7862,-3.7862,-3.802,-3.8209,-3.8209,-3.8209,-3.8209,-3.8209,-3.8209,-3.8209,-3.8209,-3.8209,-3.7919,-3.6707,-3.6109,-3.5478,-3.4298,-3.3701,-3.3393,-3.3393,-3.3393,-3.3393,-3.3393,-3.3393,0.0,0.0,0.0,0.0,0.0,0.0,0.0,0.0,0.0,0.0,0.0,0.0,0.0,0.0,0.0,0.0,0.0,0.0,0.0,0.0,0.0,0.0,0.0,0.0,0.0,-3.5314,-3.536,-3.5268,-3.4994,-3.4994,-3.497,-3.4899,-3.4899,-3.4899,-3.4899,-3.4899,-3.4899,-3.4932,-3.5369,-3.5758,-3.624,-3.7469,-3.8154,-3.8588,0.0,-3.6439,0.0,0.0,-3.7312,0.0,-3.81,-3.8209,-3.8209,-3.8209,-3.8209,-3.8209,-3.8209,-3.8209,-3.8209,-3.8209,-3.8209,-3.8209,-3.8209,-3.8209,-3.8209,-3.8209,-3.8209,-3.7901,-3.7267,-3.7267,-3.6852,0.0,-3.5421,-3.495,-3.4591,-3.4135,0.0,0.0,0.0,0.0,0.0,0.0,-3.8209,-3.8209,-3.8209,-3.8209,-3.8209,-3.8209,-3.8209,-3.8209,-3.8209,-3.8209,-3.8209,-3.8209,-3.8209,-3.8209,-3.8209,-3.8209,-3.8209,-3.8209,-3.8209,-3.8209,-3.8209,-3.8209,-3.8009,-3.7194,-3.6508,-3.5802,-3.4824,-3.4117,-3.361,-3.3447,-3.3393,-3.3393,-3.3393,-3.3393,0.0,0.0,0.0,0.0,0.0,0.0,0.0,0.0,0.0,0.0,0.0,0.0,0.0,0.0,0.0,0.0,0.0,0.0,0.0,0.0,0.0,-3.49,-3.5248,0.0,-3.5915,-3.5469,-3.5469,-3.5314,-3.5088,-3.5065,-3.4994,-3.4899,-3.4899,-3.4899,-3.4899,-3.4923,-3.4923,-3.4923,-3.5041,-3.5383,-3.5933,-3.6941,-3.7768,-3.848,0.0,0.0,0.0,0.0,0.0,0.0,-3.8224,-3.8209,-3.8209,-3.8209,-3.8209,-3.8209,-3.8209,-3.8209,-3.8209,-3.8209,-3.8209,-3.8209,-3.8209,-3.8209,-3.8209,-3.8209,-3.8209,-3.8172,-3.81,-3.81,-3.7701,0.0,0.0,-3.6019,-3.4609,-3.5261,0.0,0.0,0.0,0.0,0.0,-3.8209,-3.8209,-3.8209,-3.8209,-3.8209,-3.8209,-3.8209,-3.8209,-3.8209,-3.8209,-3.8209,-3.8209,-3.8209,-3.8209,-3.8209,-3.8209,-3.8209,-3.8209,-3.8209,-3.8209,-3.8209,-3.8209,-3.8209,-3.8009,-3.7194,-3.6941,-3.6488,-3.495,-3.4537,-3.428,-3.3556,-3.3393,-3.3393,-3.3393,-3.3393,-3.3393,0.0,0.0,0.0,0.0,0.0,0.0,0.0,0.0,0.0,0.0,-3.2977,0.0,0.0,0.0,0.0,0.0,0.0,0.0,-3.2609,0.0,-3.4525,-3.3799,-3.5438,-3.5975,-3.5314,-3.5314,-3.5245,-3.5105,-3.497,-3.4923,-3.4899,-3.4899,-3.4899,-3.4899,-3.5018,-3.4994,-3.4923,-3.5041,-3.5138,-3.5311,-3.639,-3.736,-3.8306,0.0,0.0,0.0,0.0,0.0,0.0,0.0,-3.829,-3.8209,-3.8209,-3.8209,-3.8209,-3.8209,-3.8209,-3.8209,-3.8209,-3.8209,-3.8209,-3.8209,-3.8209,-3.8209,-3.8209,-3.8209,-3.8209,-3.8209,-3.8209,-3.8046,0.0,0.0,-3.6669,-3.6037,-3.5892,0.0,0.0,0.0,-3.7982,-3.8322,-3.8322,-3.8322,-3.8322,-3.8322,-3.8322,-3.8322,-3.8322,-3.8322,-3.8322,-3.8322,-3.8289,-3.8257,-3.8257,-3.8224,-3.8209,-3.8209,-3.8209,-3.8209,-3.8209,-3.8209,-3.8209,-3.8209,-3.8209,-3.8118,-3.781,-3.7357,-3.6832,-3.6182,-3.5294,-3.4516,-3.419,-3.3737,-3.3393,-3.3393,-3.3393,-3.3393,0.0,0.0,0.0,0.0,0.0,0.0,0.0,0.0,0.0,0.0,0.0,0.0,0.0,0.0,0.0,0.0,0.0,0.0,-3.3008,0.0,-3.5012,-3.4511,-3.6186,-3.66,-3.5783,-3.5783,-3.5577,-3.5222,-3.5158,-3.5105,-3.5018,-3.4923,-3.4899,-3.4923,-3.5041,-3.5065,-3.5041,-3.5245,-3.5291,-3.5352,-3.6392,-3.6941,-3.7435,-3.9322,0.0,-3.9078,0.0,-3.8829,-3.8661,-3.8507,-3.8385,-3.8274,-3.8209,-3.8209,-3.8209,-3.8209,-3.8209,-3.8209,-3.8209,-3.8209,-3.8209,-3.8209,-3.8209,-3.8209,-3.8209,-3.8209,0.0,-3.8209,-3.8209,-3.8209,-3.8209,-3.7629,0.0,-3.6995,-3.6449,0.0,0.0,-3.8067,-3.837,-3.8399,-3.8399,-3.8399,-3.8399,-3.8399,-3.8399,-3.8399,-3.8399,-3.8399,-3.8399,-3.8399,-3.8352,-3.8307,-3.8307,-3.8257,-3.8209,-3.8209,-3.8209,-3.8209,-3.8209,-3.8209,-3.8209,-3.8209,-3.8209,-3.8209,-3.8209,-3.7774,-3.7285,-3.7049,-3.5928,-3.4824,-3.4353,-3.381,-3.3393,-3.3393,-3.3393,-3.3393,-3.3393,0.0,0.0,0.0,0.0,0.0,0.0,-3.3393,-3.3349,-3.3223,0.0,0.0,0.0,0.0,0.0,0.0,0.0,0.0,0.0,0.0,0.0,-3.4907,-3.6631,-3.7114,-3.6333,-3.6182,-3.5898,-3.5532,-3.5383,-3.5245,-3.5152,-3.5018,-3.497,-3.497,-3.5088,-3.5205,-3.5287,-3.5429,-3.5498,-3.5577,-3.6373,-3.678,-3.7183,-3.9608,-3.9589,-3.9514,-3.9237,-3.9197,-3.9045,-3.8569,-3.851,-3.8433,-3.8242,-3.8209,-3.8209,-3.8209,-3.8209,-3.8209,-3.8209,-3.8209,-3.8209,-3.8209,-3.8209,-3.8209,0.0,0.0,-3.8209,-3.8209,-3.8209,-3.8209,-3.8209,0.0,0.0,-3.6995,0.0,-3.7507,-3.8289,-3.8368,-3.8399,-3.8399,-3.8399,-3.8399,-3.8399,-3.8399,-3.8399,-3.8399,-3.8399,-3.8399,-3.8399,-3.8399,-3.8352,-3.8307,-3.8307,-3.8257,-3.8209,-3.8209,-3.8209,-3.8209,-3.8209,-3.8209,-3.8209,-3.8209,-3.8209,-3.8209,-3.8209,-3.8191,-3.7991,-3.7176,-3.6363,-3.5333,-3.3737,-3.3411,-3.3393,-3.3393,-3.3393,-3.3393,-3.3393,0.0,0.0,0.0,0.0,0.0,0.0,-3.3393,-3.3422,-3.3495,0.0,0.0,0.0,0.0,0.0,0.0,0.0,0.0,-3.2718,-3.4713,0.0,-3.4419,-3.6468,-3.7284,-3.688,-3.6354,-3.6097,-3.6075,-3.5532,-3.5291,-3.5291,-3.5152,-3.5088,-3.5105,-3.5245,-3.5447,-3.5693,-3.5549,-3.5667,-3.5912,-3.6287,-3.6897,-3.785,-3.9796,-3.9691,-3.9602,-3.9539,-3.935,-3.9156,-3.8998,-3.8707,-3.8478,-3.8417,-3.829,-3.8209,-3.8209,-3.8209,-3.8209,0.0,-3.8209,-3.8209,0.0,-3.8209,-3.8209,-3.8209,-3.8209,-3.8209,-3.8209,-3.8209,-3.8209,-3.8209,0.0,0.0,0.0,-3.797,-3.8145,-3.8449,-3.8462,-3.8528,-3.8593,-3.8593,-3.8593,-3.8593,-3.8593,-3.8593,-3.8593,-3.8593,-3.8562,-3.8478,-3.8478,-3.8401,-3.8307,-3.8307,-3.8257,-3.8209,-3.8209,-3.8209,-3.8209,-3.8209,-3.8209,-3.8209,-3.8209,-3.8209,-3.8209,-3.8209,-3.8209,-3.8136,-3.7883,-3.6779,-3.5496,-3.4443,-3.3791,-3.3393,-3.3393,-3.3393,-3.3393,-3.3393,-3.3437,0.0,0.0,0.0,0.0,0.0,-3.3466,-3.3477,0.0,-3.3298,0.0,0.0,0.0,0.0,0.0,0.0,0.0,0.0,-3.5162,0.0,-3.6178,-3.7375,-3.7739,-3.7321,-3.7133,-3.6902,-3.6641,-3.6378,-3.6253,-3.6253,-3.6109,-3.6049,-3.6049,-3.6211,-3.6298,-3.6402,-3.6437,-3.6498,-3.6583,-3.6701,-3.6898,-3.7314,-3.9889,-3.9754,-3.9649,-3.9693,-3.9508,-3.9416,-3.9615,-3.94,-3.9289,-3.9525,-3.9086,-3.8758,-3.8758,-3.8422,0.0,-3.8209,-3.8209,-3.8209,-3.8209,-3.8209,-3.8209,-3.8209,-3.8209,-3.8225,-3.8242,-3.8242,0.0,-3.829,-3.8322,-3.8352,-3.8399,-3.843,-3.8462,-3.851,-3.8559,-3.8624,-3.8707,-3.8707,-3.8707,-3.8707,-3.8707,-3.8707,-3.8707,-3.8707,-3.8658,-3.8575,-3.8575,-3.8481,-3.8387,-3.8387,-3.8305,-3.8242,-3.8242,-3.8225,-3.8209,-3.8209,-3.8209,-3.8209,-3.8209,-3.8209,-3.8209,-3.8209,-3.8209,-3.8118,-3.7828,-3.6961,-3.5946,-3.4842,-3.4208,-3.3755,-3.3465,-3.3393,-3.3393,-3.3393,-3.3437,-3.3452,-3.3411,0.0,0.0,0.0,0.0,0.0,0.0,-3.3357,-3.3268,0.0,0.0,0.0,0.0,0.0,0.0,-3.4573,-3.5369,0.0,-3.6995,-3.781,-3.8054,-3.7756,-3.7578,-3.7302,-3.69,-3.6803,-3.6783,-3.6783,-3.6629,-3.6588,-3.6571,-3.6669,-3.6788,-3.6925,-3.6902,-3.6997,-3.7132,-3.7132,-3.7132,-3.7295,-4.0092,-3.9985,-3.9886,0.0,-3.9842,0.0,-4.0461,-4.0519,-4.0714,-4.127,-4.0454,-3.982,-3.9818,-3.8933,-3.8348,-3.8347,0.0,0.0,0.0,-3.8209,-3.8209,-3.8209,-3.8209,-3.8242,-3.8307,-3.8289,-3.8338,-3.8399,-3.8399,-3.8415,-3.8415,-3.8478,-3.851,-3.8525,-3.864,-3.8707,-3.8707,-3.8707,-3.8707,-3.8707,-3.8707,-3.8707,-3.8707,-3.8707,-3.8692,-3.8692,-3.8692,-3.8609,-3.8476,-3.8476,-3.8417,-3.8307,-3.8307,-3.8257,-3.8225,-3.8209,-3.8209,-3.8209,-3.8209,-3.8209,-3.8209,-3.8209,-3.8209,-3.8009,-3.7249,-3.7049,-3.656,-3.5005,-3.4643,-3.4353,-3.3553,-3.3408,-3.3408,-3.3408,-3.3408,-3.3408,-3.3408,0.0,0.0,0.0,0.0,0.0,0.0,-3.3509,-3.3477,0.0,0.0,0.0,0.0,0.0,-3.3661,-3.4645,-3.546,-3.6272,-3.7085,-3.7828,-3.8209,-3.8192,-3.7756,-3.7358,-3.6978,-3.6978,-3.6978,-3.6978,-3.6862,-3.6805,-3.6805,-3.6805,-3.7022,-3.7341,-3.7094,-3.7227,-3.7542,-3.7542,-3.7542,-3.7721,0.0,0.0,-4.1787,-4.1895,-4.1817,-4.1782,-4.1905,-4.17,-4.1608,-4.174,-4.1271,-4.096,-4.1059,-4.0225,-3.9733,-3.9931,-3.8873,-3.8209,-3.8209,-3.8209,-3.8209,-3.8209,-3.8241,-3.829,-3.8307,-3.8354,-3.8417,-3.8478,-3.8478,-3.8528,-3.8627,-3.8643,-3.8658,-3.8658,-3.8692,-3.8707,-3.8707,-3.8707,-3.8707,-3.8707,-3.8707,-3.8707,-3.8707,-3.8707,-3.8643,-3.8559,-3.8559,-3.8494,-3.8415,-3.8415,-3.8399,-3.8385,-3.8385,-3.8368,-3.832,-3.8224,-3.8209,-3.8209,-3.8257,-3.8241,-3.8225,-3.8257,-3.8242,-3.8154,-3.7955,-3.7448,-3.6739,-3.5792,-3.5099,-3.4458,-3.368,-3.3549,-3.3549,-3.3549,-3.3605,-3.3619,-3.3563,-3.3643,0.0,0.0,-3.3605,-3.3605,-3.3661,-3.3506,-3.3437,0.0,0.0,0.0,0.0,-3.4271,-3.4633,-3.5478,-3.629,-3.7104,-3.7919,-3.81,-3.8209,-3.8209,-3.8089,-3.7985,-3.788,-3.788,-3.788,-3.788,-3.7863,-3.7827,-3.7827,-3.7827,-3.7915,-3.7984,-3.7915,-3.7933,-3.8037,-3.8037,-3.8037,-3.809,-4.2688,-4.2622,-4.2506,-4.2591,-4.2484,-4.253,-4.2928,-4.2843,-4.285,-4.3227,-4.265,-4.2235,-4.2319,-4.1106,-4.0342,-4.0488,-3.9309,-3.8582,-3.864,-3.8538,-3.8523,-3.864,-3.8566,-3.8538,-3.8566,-3.873,-3.8861,-3.8966,-3.8966,-3.8927,-3.8896,-3.9021,-3.9007,-3.8881,-3.8881,-3.8881,-3.8881,-3.875,-3.8707,-3.8707,-3.8707,-3.8707,-3.8707,-3.8707,-3.8658,-3.859,-3.859,-3.8578,-3.8546,-3.8546,-3.8496,-3.8446,-3.8446,-3.8415,-3.8401,-3.8322,-3.8289,-3.8305,-3.8338,-3.8322,-3.8305,-3.8338,-3.8322,-3.8289,-3.8289,-3.7944,-3.7414,-3.6664,-3.5845,-3.5074,-3.4298,-3.3814,-3.3549,-3.3549,-3.3591,-3.3591,-3.3524,-3.3615,0.0,-3.3577,-3.3591,-3.3605,-3.3619,-3.3506,-3.3466,-3.3509,-3.3782,0.0,-3.4588,-3.5294,-3.5892,-3.6327,-3.6777,-3.7393,-3.8191,-3.8209,-3.8209,-3.8209,-3.8209,-3.8209,-3.8209,-3.8209,-3.8209,-3.8209,-3.8209,-3.8209,-3.8209,-3.8209,-3.8209,-3.8209,-3.8209,-3.8209,-3.8209,-3.8209,-3.8209,-3.8209,-4.3157,-4.3086,-4.3003,-4.3003,-4.2908,-4.3088,-4.384,-4.3912,-4.4166,-4.4837,-4.4109,-4.3554,-4.358,-4.2019,-4.0958,-4.0865,-3.9935,-3.9315,-3.9223,-3.898,-3.8952,-3.9192,-3.8994,-3.89,-3.8966,-3.921,-3.9383,-3.9514,-3.9514,-3.9389,-3.917,-3.9383,-3.9389,-3.917,-3.917,-3.917,-3.9156,-3.8925,-3.8807,-3.8807,-3.8807,-3.8807,-3.8825,-3.878,-3.8765,-3.875,-3.8704,-3.8707,-3.8707,-3.8707,-3.8624,-3.8525,-3.8525,-3.8478,-3.8449,-3.8449,-3.8449,-3.8449,-3.8415,-3.8415,-3.8415,-3.8399,-3.843,-3.8462,-3.8415,-3.843,-3.8209,-3.7377,-3.6666,-3.5969,-3.5163,-3.4345,-3.3788,-3.3759,-3.3706,-3.3615,-3.3509,0.0,-3.3629,-3.3481,-3.3549,-3.3591,-3.3534,-3.3629,-3.3687,-3.3687,-3.4392,-3.4872,-3.4966,-3.6268,-3.7065,-3.7176,-3.7176,-3.7502,-3.8191,-3.8209,-3.8209,-3.8209,-3.8209,-3.8209,-3.8209,-3.8209,-3.8209,-3.8209,-3.8209,-3.8209,-3.8209,-3.8209,-3.8209,-3.8209,-3.8209,-3.8209,-3.8209,-3.8209,-3.8209,-3.8209,-4.4762,-4.4904,-4.4874,-4.4874,-4.4864,-4.4891,-4.5025,-4.4957,-4.4928,-4.5061,-4.483,-4.4687,-4.4824,-4.3846,-4.2993,-4.2489,-4.1529,-4.0461,-3.9287,-3.9152,-3.9152,-3.9192,-3.9205,-3.9236,-3.9231,-3.9402,-3.9483,-3.9514,-3.9514,-3.9489,-3.9452,-3.9489,-3.9489,-3.9439,-3.9439,-3.9439,-3.9439,-3.9383,-3.9389,-3.9389,-3.9389,-3.9389,-3.935,-3.9129,-3.9031,-3.9021,-3.878,-3.8707,-3.8707,-3.8707,-3.8692,-3.8658,-3.8658,-3.8658,-3.8643,-3.8643,-3.8643,-3.8627,-3.8528,-3.8494,-3.8478,-3.8415,-3.8566,-3.8688,-3.8462,-3.8585,-3.8464,-3.75,-3.7199,-3.69,-3.6186,-3.5551,-3.5066,-3.4952,-3.4606,-3.4237,-3.3959,0.0,-3.4023,-3.3766,-3.3712,-3.3671,-3.3671,-3.4235,-3.4608,-3.4608,-3.5341,-3.6061,-3.6674,-3.6946,-3.7368,-3.7991,-3.8009,-3.8082,-3.8209,-3.8209,-3.8209,-3.8209,-3.8209,-3.8209,-3.8209,-3.8209,-3.8209,-3.8209,-3.8209,-3.8209,-3.8209,-3.8209,-3.8209,-3.8209,-3.8209,-3.8209,-3.8209,-3.8209,-3.8209,-3.8209,-4.522,-4.5307,-4.5307,-4.5307,-4.5307,-4.5307,-4.5307,-4.5254,-4.5203,-4.5203,-4.5159,-4.5148,-4.5192,-4.4397,-4.3577,-4.286,-4.1952,-4.0945,-3.9867,-3.9656,-3.9644,-3.9788,-3.9679,-3.969,-3.9851,-3.9762,-3.9792,-3.9933,-3.9933,-3.9859,-3.9717,-3.9859,-3.9848,-3.9717,-3.9717,-3.9717,-3.9705,-3.9563,-3.9514,-3.9514,-3.9514,-3.9514,-3.9489,-3.9363,-3.9324,-3.9298,-3.9183,-3.9142,-3.9142,-3.9142,-3.9142,-3.9142,-3.9142,-3.9142,-3.9142,-3.9142,-3.8921,-3.8719,-3.88,-3.871,-3.8667,-3.8923,-3.898,-3.8966,-3.8994,-3.9087,-3.9061,-3.8595,-3.814,-3.7745,-3.7432,-3.6752,-3.6192,-3.6131,-3.5928,0.0,-3.4946,-3.4938,-3.495,-3.4791,-3.4779,-3.4958,-3.5379,-3.5725,-3.5935,-3.5935,-3.6514,-3.7015,-3.7338,-3.7645,-3.7954,-3.8287,-3.8241,-3.8209,-3.8209,-3.8209,-3.8209,-3.8209,-3.8209,-3.8209,-3.8209,-3.8209,-3.8209,-3.8209,-3.8209,-3.8209,-3.8209,-3.8209,-3.8209,-3.8209,-3.8209,-3.8209,-3.8209,-3.8209,-3.8209,-3.8209,-4.5307,-4.5307,-4.5307,-4.5307,-4.5307,-4.5307,-4.5307,-4.5307,-4.5307,-4.5307,-4.5307,-4.5307,-4.5307,-4.4704,-4.3902,-4.2889,-4.2183,-4.1361,-4.0358,-4.0108,-4.0087,-4.0301,-4.0098,-4.0087,-4.0301,-4.0098,-4.0098,-4.0301,-4.0301,-4.0186,-3.9996,-4.0196,-4.0186,-3.9996,-3.9996,-3.9996,-3.9986,-3.9762,-3.9682,-3.9682,-3.9682,-3.9682,-3.9682,-3.9623,-3.958,-3.9568,-3.9508,-3.9514,-3.9514,-3.9514,-3.9514,-3.9514,-3.9514,-3.9514,-3.9514,-3.9514,-3.9205,-3.8921,-3.9142,-3.9031,-3.8974,-3.9401,-3.9401,-3.9324,-3.9477,-3.9563,-3.9587,-3.9495,-3.9007,-3.8587,-3.8587,-3.7866,-3.7276,-3.7272,0.0,-3.6844,0.0,-3.6047,-3.6047,-3.5944,-3.5979,-3.6238,-3.6862,-3.7106,-3.7225,-3.7225,-3.7733,-3.8044,-3.7998,-3.8398,-3.8566,-3.8491,-3.8322,-3.8207,-3.8207,-3.8209,-3.8209,-3.8209,-3.8209,-3.8209,-3.8209,-3.8209,-3.8209,-3.8209,-3.8209,-3.8209,-3.8209,-3.8209,-3.8209,-3.8209,-3.8209,-3.8209,-3.8209,-3.8289,-3.8322,-3.8338,-4.5307,-4.5307,-4.5307,-4.5307,-4.5307,-4.5307,-4.5307,-4.5307,-4.5307,-4.5307,-4.5307,-4.5307,-4.5307,-4.5239,-4.4551,-4.2947,-4.2737,-4.203,-4.0416,-4.0272,-4.0291,-4.0301,-4.0272,-4.0291,-4.0301,-4.0272,-4.0291,-4.0301,-4.0301,-4.0291,-4.0263,-4.0301,-4.0291,-4.0263,-4.0263,-4.0263,-4.0263,-4.0244,-4.0244,-4.0244,-4.0244,-4.0244,-4.0206,-3.9975,-3.9881,-3.9848,-3.9599,-3.9514,-3.9514,-3.9514,-3.9514,-3.9514,-3.9514,-3.9514,-3.9514,-3.9514,-3.9458,-3.9452,-3.9477,-3.9464,-3.9446,-3.9483,-3.967,-3.9773,-3.9544,-3.9693,-3.9796,-3.9544,-3.9458,-3.942,-3.942,-3.889,-3.8453,-3.8392,0.0,0.0,-3.7125,-3.7196,-3.7186,-3.6942,-3.69,-3.6938,-3.6994,-3.7716,-3.8199,-3.8199,-3.8926,-3.9296,-3.9182,-3.9225,-3.909,-3.8789,-3.8446,-3.829,-3.829,-3.8242,-3.8209,-3.8209,-3.8209,-3.8209,-3.8209,-3.8209,-3.8209,-3.8209,-3.8209,-3.8209,-3.8209,-3.8209,-3.8209,-3.8209,-3.8209,-3.8209,-3.8241,-3.8554,-3.8655,-3.8715,-4.5307,-4.5307,-4.5307,-4.5307,-4.5307,-4.5307,-4.5307,-4.5307,-4.5307,-4.5307,-4.5307,-4.5307,-4.5307,-4.5307,-4.4628,-4.2947,-4.2794,-4.2087,-4.0416,-4.0301,-4.0301,-4.0301,-4.0301,-4.0301,-4.0301,-4.0301,-4.0301,-4.0301,-4.0301,-4.0301,-4.0301,-4.0301,-4.0301,-4.0301,-4.0301,-4.0301,-4.0301,-4.0301,-4.0301,-4.0301,-4.0301,-4.0301,-4.0291,-4.0186,-4.0157,-4.0128,-4.0017,-3.9996,-3.9996,-3.9996,-3.9996,-3.9996,-3.9996,-3.9996,-3.9996,-3.9996,-3.9996,-3.9996,-3.9996,-3.9739,-3.9587,-3.9903,-3.9954,-3.9914,-3.9975,-4.0077,-4.0108,-4.0026,-3.9996,-3.9996,-3.9996,-3.9811,-3.9642,-3.9621,0.0,-3.9089,-3.8413,-3.8356,-3.8347,-3.826,-3.825,-3.8459,-3.8991,-3.9342,-3.954,-3.954,-3.9678,-3.9739,-3.9667,-3.9513,-3.9364,-3.9234,-3.8994,-3.8691,-3.8368,-3.8307,-3.8257,-3.8257,-3.8225,-3.8209,-3.8209,-3.8209,-3.8209,-3.8209,-3.8338,-3.8322,-3.8209,-3.832,-3.843,-3.8507,-3.8507,-3.8538,-3.8597,-3.8896,-3.8896,-3.8799,-4.5307,-4.5307,-4.5307,-4.5307,-4.5307,-4.5307,-4.5307,-4.5307,-4.5307,-4.5307,-4.5307,-4.5307,-4.5307,-4.5307,-4.4628,-4.2947,-4.2794,-4.2087,-4.0416,-4.0301,-4.0301,-4.0301,-4.0301,-4.0301,-4.0301,-4.0301,-4.0301,-4.0301,-4.0301,-4.0301,-4.0301,-4.0301,-4.0301,-4.0301,-4.0301,-4.0301,-4.0301,-4.0301,-4.0301,-4.0301,-4.0301,-4.0301,-4.0301,-4.0301,-4.0291,-4.0291,-4.0291,-4.0319,-4.0328,-4.0328,-4.0328,-4.0328,-4.0328,-4.0328,-4.0328,-4.0328,-4.0328,-4.0328,-4.0328,-4.0049,-3.9862,-4.0206,-4.0166,-4.0077,-4.0253,-4.0301,-4.0301,-4.0301,-4.0301,-4.0301,-4.0301,-4.0301,-4.0301,-4.0301,-4.0301,-4.0091,-3.9489,-3.9412,-3.9412,-3.9412,-3.9412,-3.9642,-4.0244,-4.0301,-4.0301,-4.0301,-4.0118,-4.0027,-4.0027,-3.9762,-3.9635,-3.9635,-3.9408,-3.9119,-3.8748,-3.8494,-3.8322,-3.8257,-3.8207,-3.8209,-3.8209,-3.8209,-3.8209,-3.8209,-3.8354,-3.8385,-3.8368,-3.8525,-3.867,-3.8857,-3.8857,-3.89,-3.8952,-3.9244,-3.9244,-3.9131,-4.5307,-4.5307,-4.5307,-4.5307,-4.5307,-4.5307,-4.5307,-4.5307,-4.5307,-4.5307,-4.5307,-4.5307,-4.5307,-4.5307,-4.4638,-4.2947,-4.2794,-4.2087,-4.0396,-4.0301,-4.0301,-4.0301,-4.0301,-4.0301,-4.0301,-4.0301,-4.0301,-4.0301,-4.0301,-4.0301,-4.0301,-4.0301,-4.0301,-4.0301,-4.0301,-4.0301,-4.0301,-4.0301,-4.0301,-4.0301,-4.0301,-4.0301,-4.0301,-4.0301,-4.03,-4.0307,-4.0307,-4.0334,-4.0407,-4.0407,-4.0407,-4.0407,-4.0407,-4.0407,-4.0407,-4.0407,-4.0407,-4.0407,-4.0407,-4.0407,-4.0381,-4.0329,-4.0301,-4.0301,-4.0301,-4.0301,-4.0301,-4.0301,-4.0301,-4.0301,-4.0301,-4.0301,-4.0301,-4.0301,-4.0301,-4.0301,-4.0301,-4.0301,-4.0301,-4.0301,-4.0301,-4.0301,-4.0301,-4.0301,-4.0301,-4.0301,-4.0301,-4.0301,-4.0301,-4.0057,-3.9903,-3.9903,-3.9647,-3.9495,-3.9495,-3.8851,-3.8417,-3.8209,-3.8209,-3.8209,-3.8209,-3.8209,-3.8209,-3.8209,-3.8209,-3.8401,-3.87,-3.8715,-3.8896,-3.9205,-3.9205,-3.9205,-3.9244,-3.9576,-3.9709,-3.9761,-4.5653,-4.5607,-4.5563,-4.5516,-4.5465,-4.5429,-4.5369,-4.5328,-4.5307,-4.5307,-4.5338,-4.5359,-4.5359,-4.538,-4.471,-4.3024,-4.2871,-4.2153,-4.0478,-4.0336,-4.0299,-4.0299,-4.0301,-4.0301,-4.0301,-4.0301,-4.0301,-4.0301,-4.0301,-4.0301,-4.0301,-4.0301,-4.0301,-4.0301,-4.0301,-4.0301,-4.031,-4.0309,-4.0299,-4.0308,-4.0354,-4.0363,-4.0363,-4.0363,-4.0372,-4.037,-4.037,-4.0379,-4.0407,-4.0407,-4.0407,-4.0407,-4.0407,-4.0407,-4.0407,-4.0407,-4.0407,-4.0407,-4.0407,-4.0407,-4.0398,-4.0372,-4.0363,-4.0363,-4.0363,-4.0363,-4.0363,-4.0363,-4.0326,-4.0299,-4.0299,-4.0299,-4.0299,-4.0299,-4.0299,-4.0299,-4.0299,-4.031,-4.0301,-4.0301,-4.0301,-4.0301,-4.0301,-4.0301,-4.0301,-4.0301,-4.0301,-4.0301,-4.0301,-4.0215,-4.0176,-4.0176,-4.0007,-3.9829,-3.9648,-3.9262,-3.8999,-3.8913,-3.89,-3.8857,-3.8755,-3.8872,-3.8896,-3.891,-3.91,-3.9122,-3.9077,-3.9242,-3.9421,-3.9541,-3.9541,-3.9614,-3.9732,-4.0008,-3.9998,-3.9884,-4.5789,-4.5777,-4.5737,-4.5689,-4.5642,-4.5618,-4.556,-4.5526,-4.549,-4.549,-4.5535,-4.5545,-4.5485,-4.5484,-4.4783,-4.306,-4.2294,-4.1461,-4.0419,-4.0353,-4.0334,-4.0334,-4.0336,-4.0328,-4.0301,-4.0301,-4.0291,-4.03,-4.03,-4.0309,-4.0337,-4.0337,-4.0337,-4.0337,-4.0337,-4.0337,-4.0346,-4.0335,-4.0334,-4.0334,-4.0379,-4.0407,-4.0407,-4.0407,-4.0415,-4.0441,-4.0441,-4.043,-4.0447,-4.0447,-4.0447,-4.0447,-4.0447,-4.0447,-4.0447,-4.0447,-4.0447,-4.0447,-4.0447,-4.0447,-4.0447,-4.0447,-4.0413,-4.0407,-4.0407,-4.0407,-4.0407,-4.0407,-4.037,-4.0334,-4.0334,-4.0334,-4.0334,-4.0334,-4.0334,-4.0334,-4.0334,-4.0345,-4.0337,-4.0337,-4.0328,-4.03,-4.03,-4.0301,-4.0301,-4.0301,-4.0301,-4.0301,-4.0301,-4.0301,-4.0301,-4.0301,-4.0225,-4.0108,-3.9929,-3.9769,-3.9537,-3.9208,-3.9197,-3.9152,-3.9072,-3.9165,-3.9205,-3.9205,-3.9371,-3.9433,-3.9408,-3.9566,-3.9766,-3.9948,-3.9948,-3.9998,-4.0087,-4.0244,-4.0196,-4.0087,-4.5836,-4.585,-4.5825,-4.5838,-4.5813,-4.582,-4.5814,-4.5795,-4.5789,-4.5789,-4.5814,-4.577,-4.563,-4.5557,-4.4827,-4.3092,-4.1415,-4.0411,-4.0358,-4.0402,-4.0447,-4.0447,-4.0438,-4.0396,-4.0336,-4.0319,-4.03,-4.0316,-4.0316,-4.0334,-4.0407,-4.0407,-4.0407,-4.0407,-4.0407,-4.0407,-4.0407,-4.0415,-4.0415,-4.0415,-4.0415,-4.0405,-4.0405,-4.0405,-4.0449,-4.051,-4.051,-4.0495,-4.0496,-4.0496,-4.0496,-4.0496,-4.0496,-4.0496,-4.0496,-4.0496,-4.0496,-4.0496,-4.0496,-4.0496,-4.0496,-4.0496,-4.0452,-4.0405,-4.0405,-4.0405,-4.0405,-4.0405,-4.0415,-4.0415,-4.0415,-4.0415,-4.0415,-4.0415,-4.0415,-4.0415,-4.0415,-4.0407,-4.0407,-4.0407,-4.0353,-4.0316,-4.0316,-4.0309,-4.032,-4.032,-4.032,-4.032,-4.032,-4.0291,-4.0291,-4.0291,-4.031,-4.0301,-4.0301,-4.0301,-3.9956,-3.9269,-3.9282,-3.9282,-3.9269,-3.9282,-3.9295,-3.9295,-3.9295,-3.9457,-3.9761,-3.9761,-3.9979,-4.0291,-4.0291,-4.0291,-4.0301,-4.0224,-4.0186,-4.0186,-4.6184,-4.6144,-4.6098,-4.6049,-4.5998,-4.5944,-4.5894,-4.5826,-4.5789,-4.5789,-4.5852,-4.5877,-4.5847,-4.5239,-4.4405,-4.3379,-4.1707,-4.0718,-4.0693,-4.0715,-4.0709,-4.0709,-4.066,-4.0623,-4.0604,-4.0465,-4.0381,-4.037,-4.037,-4.0398,-4.0407,-4.0407,-4.0407,-4.0407,-4.0407,-4.0407,-4.0407,-4.0468,-4.0485,-4.0474,-4.0487,-4.0484,-4.0484,-4.0484,-4.0492,-4.05,-4.05,-4.0508,-4.0496,-4.0496,-4.0496,-4.0496,-4.0496,-4.0496,-4.0496,-4.0496,-4.0496,-4.0496,-4.0496,-4.0496,-4.0496,-4.0496,-4.0481,-4.0484,-4.0484,-4.0484,-4.0484,-4.0484,-4.0471,-4.0485,-4.0485,-4.0485,-4.0485,-4.0485,-4.0485,-4.0485,-4.0485,-4.0432,-4.0407,-4.0407,-4.0398,-4.037,-4.037,-4.0381,-4.0381,-4.0381,-4.0381,-4.0381,-4.0381,-4.0326,-4.0308,-4.0308,-4.031,-4.0301,-4.0301,-4.0301,-4.0166,-3.9914,-4.0017,-4.0017,-3.9914,-4.0017,-4.0058,-4.0058,-4.0058,-4.0089,-4.0167,-4.0167,-4.0225,-4.0308,-4.0308,-4.0326,-4.0304,-3.9614,-3.9365,-3.927,-4.63,-4.6273,-4.624,-4.6209,-4.6167,-4.6121,-4.6103,-4.6049,-4.6045,-4.6045,-4.6072,-4.6064,-4.6002,-4.5224,-4.4175,-4.2849,-4.1558,-4.0806,-4.0796,-4.0791,-4.0791,-4.0791,-4.0776,-4.0747,-4.0747,-4.0642,-4.0596,-4.0582,-4.0582,-4.0589,-4.0584,-4.0584,-4.0584,-4.0584,-4.0584,-4.0584,-4.059,-4.063,-4.0615,-4.0598,-4.0636,-4.063,-4.0595,-4.0623,-4.0649,-4.0649,-4.0649,-4.0649,-4.0649,-4.0649,-4.0649,-4.0649,-4.0649,-4.0649,-4.0649,-4.0649,-4.0649,-4.0649,-4.0649,-4.0649,-4.0649,-4.0649,-4.0649,-4.0617,-4.0508,-4.0496,-4.0496,-4.0496,-4.0492,-4.0495,-4.0495,-4.0495,-4.0495,-4.0495,-4.0495,-4.0495,-4.0495,-4.0479,-4.0463,-4.0463,-4.0458,-4.0432,-4.0407,-4.0407,-4.0407,-4.0407,-4.0407,-4.0407,-4.0407,-4.037,-4.0353,-4.0353,-4.0345,-4.0327,-4.03,-4.03,-4.0263,-4.0205,-4.0282,-4.0253,-4.0205,-4.0282,-4.0301,-4.0301,-4.0301,-4.0301,-4.0262,-3.9898,-3.9734,-3.9691,-3.9299,-3.9182,-3.9142,-3.8709,-3.8536,-3.8479,-4.63,-4.63,-4.63,-4.63,-4.63,-4.63,-4.63,-4.63,-4.63,-4.63,-4.63,-4.6269,-4.6144,-4.5219,-4.386,-4.2014,-4.1231,-4.085,-4.0857,-4.085,-4.0859,-4.0859,-4.0859,-4.0859,-4.0859,-4.0859,-4.0833,-4.0801,-4.0801,-4.0791,-4.081,-4.081,-4.081,-4.081,-4.081,-4.081,-4.081,-4.081,-4.078,-4.0717,-4.0776,-4.0775,-4.0723,-4.0776,-4.081,-4.081,-4.081,-4.081,-4.081,-4.081,-4.0791,-4.0795,-4.0795,-4.08,-4.08,-4.08,-4.08,-4.08,-4.08,-4.08,-4.08,-4.08,-4.08,-4.0757,-4.059,-4.0547,-4.0559,-4.0559,-4.0559,-4.0559,-4.0559,-4.0559,-4.0559,-4.0559,-4.0559,-4.0559,-4.0559,-4.0559,-4.0559,-4.0559,-4.0542,-4.0523,-4.0465,-4.0465,-4.0449,-4.0444,-4.0455,-4.0447,-4.0413,-4.0424,-4.0424,-4.0424,-4.0388,-4.0362,-4.0316,-4.0307,-4.0308,-4.0329,-4.0329,-4.0301,-4.0301,-4.0301,-4.0225,-4.0072,-4.0072,-3.9985,-3.98,-3.915,-3.8878,-3.8824,-3.8153,-3.7912,-3.7901,-3.7747,-3.7613,-3.7479,-4.63,-4.63,-4.63,-4.63,-4.63,-4.63,-4.63,-4.63,-4.63,-4.63,-4.63,-4.6298,-4.6273,-4.4829,-4.3146,-4.1384,-4.1111,-4.1055,-4.1053,-4.1055,-4.1055,-4.1055,-4.1055,-4.1055,-4.1055,-4.1055,-4.097,-4.0806,-4.0806,-4.0806,-4.081,-4.081,-4.081,-4.081,-4.081,-4.081,-4.081,-4.081,-4.0781,-4.0791,-4.0806,-4.0781,-4.0791,-4.0806,-4.081,-4.081,-4.081,-4.081,-4.081,-4.081,-4.0805,-4.0803,-4.0803,-4.0796,-4.0809,-4.0809,-4.0809,-4.0809,-4.0809,-4.0809,-4.0809,-4.0809,-4.0809,-4.0785,-4.0779,-4.0762,-4.0766,-4.0766,-4.0766,-4.0766,-4.0766,-4.0766,-4.0766,-4.0766,-4.0766,-4.0766,-4.0766,-4.0766,-4.0766,-4.0766,-4.0766,-4.0761,-4.0756,-4.0756,-4.0713,-4.0662,-4.0655,-4.0621,-4.0481,-4.0499,-4.0493,-4.0493,-4.0379,-4.0353,-4.0398,-4.0325,-4.0325,-4.0389,-4.0389,-4.0364,-4.0301,-4.0301,-3.9881,-3.9183,-3.9183,-3.8744,-3.8054,-3.7993,-3.8016,-3.8057,-3.7936,-3.7936,-3.7896,-3.7139,-3.6428,-3.5813,-4.63,-4.63,-4.63,-4.63,-4.63,-4.63,-4.63,-4.63,-4.63,-4.63,-4.63,-4.6105,-4.5636,-4.4016,-4.2474,-4.1207,-4.1109,-4.1109,-4.1109,-4.1109,-4.1109,-4.1109,-4.1109,-4.1109,-4.1109,-4.1109,-4.1053,-4.0967,-4.0967,-4.0967,-4.0967,-4.0967,-4.0967,-4.0967,-4.0967,-4.0967,-4.0967,-4.0967,-4.0945,-4.0906,-4.0951,-4.0945,-4.0929,-4.0951,-4.0972,-4.0978,-4.0969,-4.0972,-4.0972,-4.0972,-4.0976,-4.0962,-4.0962,-4.0964,-4.0968,-4.0968,-4.0968,-4.0968,-4.0968,-4.0968,-4.0968,-4.0968,-4.0968,-4.0968,-4.0968,-4.0979,-4.0933,-4.0809,-4.0807,-4.0807,-4.0807,-4.0799,-4.0794,-4.0794,-4.08,-4.081,-4.081,-4.081,-4.081,-4.081,-4.0775,-4.0738,-4.0738,-4.068,-4.063,-4.0588,-4.06,-4.0571,-4.0496,-4.0492,-4.0503,-4.0503,-4.0444,-4.0419,-4.0468,-3.9934,-3.9709,-3.9788,-3.9288,-3.9265,-3.9618,-3.9618,-3.9191,-3.8447,-3.8447,-3.8277,-3.7932,-3.7488,-3.7302,-3.7295,-3.6856,-3.6684,-3.6663,-3.6276,-3.5927,-3.5604]},{"header":{"parameterUnit":"m.s-1","parameterCategory":1,"la1":30.6,"la2":28.766,"lo1":-90.7593,"lo2":-88.6598,"dy":0.0162,"dx":0.0183,"nx":116,"ny":114,"refTime":"2023-06-26T06:00:00:Z","depth":0,"parameterNumber":3,"parameterNumberName":"V-component_of_WINDS"},"data":[0.0,0.0,0.0,0.0,0.0,0.0,0.0,0.0,0.0,0.0,0.0,0.0,0.0,0.0,0.0,0.0,0.0,0.0,0.0,0.0,0.0,0.0,0.0,0.0,0.0,0.0,0.0,0.0,0.0,0.0,0.0,0.0,0.0,0.0,0.0,0.0,0.0,0.0,0.0,0.0,0.0,0.0,0.0,0.0,0.0,0.0,0.0,0.0,0.0,0.0,0.0,0.0,0.0,0.0,0.0,0.0,0.0,0.0,0.0,0.0,0.0,0.0,0.0,0.0,0.0,0.0,0.0,0.0,0.0,0.0,0.0,0.0,0.0,0.0,0.0,0.0,0.0,0.0,0.0,0.0,0.0,0.0,0.0,0.0,0.0,0.0,0.0,0.0,0.0,0.0,0.0,0.0,0.0,0.0,0.0,0.0,0.0,0.0,0.0,0.0,0.0,0.0,0.0,0.0,0.0,0.0,0.0,0.0,0.0,0.0,0.0,0.0,0.0,0.0,0.0,0.0,0.0,0.0,0.0,0.0,0.0,0.0,0.0,0.0,0.0,0.0,0.0,0.0,0.0,0.0,0.0,0.0,0.0,0.0,0.0,0.0,0.0,0.0,0.0,0.0,0.0,0.0,0.0,0.0,0.0,0.0,0.0,0.0,0.0,0.0,0.0,0.0,0.0,0.0,0.0,0.0,0.0,0.0,0.0,0.0,0.0,0.0,0.0,0.0,0.0,0.0,0.0,0.0,0.0,0.0,0.0,0.0,0.0,0.0,0.0,0.0,0.0,0.0,0.0,0.0,0.0,0.0,0.0,0.0,0.0,0.0,0.0,0.0,0.0,0.0,0.0,0.0,0.0,0.0,0.0,0.0,0.0,0.0,0.0,0.0,0.0,0.0,0.0,0.0,0.0,0.0,0.0,0.0,0.0,0.0,0.0,0.0,0.0,0.0,0.0,0.0,0.0,0.0,0.0,0.0,0.0,0.0,0.0,0.0,0.0,0.0,0.0,0.0,0.0,0.0,0.0,0.0,0.0,0.0,0.0,0.0,0.0,0.0,0.0,0.0,0.0,0.0,0.0,0.0,0.0,0.0,0.0,0.0,0.0,0.0,0.0,0.0,0.0,0.0,0.0,0.0,0.0,0.0,0.0,0.0,0.0,0.0,0.0,0.0,0.0,0.0,0.0,0.0,0.0,0.0,0.0,0.0,0.0,0.0,0.0,0.0,0.0,0.0,0.0,0.0,0.0,0.0,0.0,0.0,0.0,0.0,0.0,0.0,0.0,0.0,0.0,0.0,0.0,0.0,0.0,0.0,0.0,0.0,0.0,0.0,0.0,0.0,0.0,0.0,0.0,0.0,0.0,0.0,0.0,0.0,0.0,0.0,0.0,0.0,0.0,0.0,0.0,0.0,0.0,0.0,0.0,0.0,0.0,0.0,0.0,0.0,0.0,0.0,0.0,0.0,0.0,0.0,0.0,0.0,0.0,0.0,0.0,0.0,0.0,0.0,0.0,0.0,0.0,0.0,0.0,0.0,0.0,0.0,0.0,0.0,0.0,0.0,0.0,0.0,0.0,0.0,0.0,0.0,0.0,0.0,0.0,0.0,0.0,0.0,0.0,0.0,0.0,0.0,0.0,0.0,0.0,0.0,0.0,0.0,0.0,0.0,0.0,0.0,0.0,0.0,0.0,0.0,0.0,0.0,0.0,0.0,0.0,0.0,0.0,0.0,0.0,0.0,0.0,0.0,0.0,0.0,0.0,0.0,0.0,0.0,0.0,0.0,0.0,0.0,0.0,0.0,0.0,0.0,0.0,0.0,0.0,0.0,0.0,0.0,0.0,0.0,0.0,0.0,0.0,0.0,0.0,0.0,0.0,0.0,0.0,0.0,0.0,0.0,0.0,0.0,0.0,0.0,0.0,0.0,0.0,0.0,0.0,0.0,0.0,0.0,0.0,0.0,0.0,0.0,0.0,0.0,0.0,0.0,0.0,0.0,0.0,0.0,0.0,0.0,0.0,0.0,0.0,0.0,0.0,0.0,0.0,0.0,0.0,0.0,0.0,0.0,0.0,0.0,0.0,0.0,0.0,0.0,0.0,0.0,0.0,0.0,0.0,0.0,0.0,0.0,0.0,0.0,0.0,0.0,0.0,0.0,0.0,0.0,0.0,0.0,0.0,0.0,0.0,0.0,0.0,0.0,0.0,0.0,0.0,0.0,0.0,0.0,0.0,0.0,0.0,0.0,0.0,0.0,0.0,0.0,0.0,0.0,0.0,0.0,0.0,0.0,0.0,0.0,0.0,0.0,0.0,0.0,0.0,0.0,0.0,0.0,0.0,0.0,0.0,0.0,0.0,0.0,0.0,0.0,0.0,0.0,0.0,0.0,0.0,0.0,0.0,0.0,0.0,0.0,0.0,0.0,0.0,0.0,0.0,0.0,0.0,0.0,0.0,0.0,0.0,0.0,0.0,0.0,0.0,0.0,0.0,0.0,0.0,0.0,0.0,0.0,0.0,0.0,0.0,0.0,0.0,0.0,0.0,0.0,0.0,0.0,0.0,0.0,0.0,0.0,0.0,0.0,0.0,0.0,0.0,0.0,0.0,0.0,0.0,0.0,0.0,0.0,0.0,0.0,0.0,0.0,0.0,0.0,0.0,0.0,0.0,0.0,0.0,0.0,0.0,0.0,0.0,0.0,0.0,0.0,0.0,0.0,0.0,0.0,0.0,0.0,0.0,0.0,0.0,0.0,0.0,0.0,0.0,0.0,0.0,0.0,0.0,0.0,0.0,0.0,0.0,0.0,0.0,0.0,0.0,0.0,0.0,0.0,0.0,0.0,0.0,0.0,0.0,0.0,0.0,0.0,0.0,0.0,0.0,0.0,0.0,0.0,0.0,0.0,0.0,0.0,0.0,0.0,0.0,0.0,0.0,0.0,0.0,0.0,0.0,0.0,0.0,0.0,0.0,0.0,0.0,0.0,0.0,0.0,0.0,0.0,0.0,0.0,0.0,0.0,0.0,0.0,0.0,0.0,0.0,0.0,0.0,0.0,0.0,0.0,0.0,0.0,0.0,0.0,0.0,0.0,0.0,0.0,0.0,0.0,0.0,0.0,0.0,0.0,0.0,0.0,0.0,0.0,0.0,0.0,0.0,0.0,0.0,0.0,0.0,0.0,0.0,0.0,0.0,0.0,0.0,0.0,0.0,0.0,0.0,0.0,0.0,0.0,0.0,0.0,0.0,0.0,0.0,0.0,0.0,0.0,0.0,0.0,0.0,0.0,0.0,0.0,0.0,0.0,0.0,0.0,0.0,0.0,0.0,0.0,0.0,0.0,0.0,0.0,0.0,0.0,0.0,0.0,0.0,0.0,0.0,0.0,0.0,0.0,0.0,0.0,0.0,0.0,0.0,0.0,0.0,0.0,0.0,0.0,0.0,0.0,0.0,0.0,0.0,0.0,0.0,0.0,0.0,0.0,0.0,0.0,0.0,0.0,0.0,0.0,0.0,0.0,0.0,0.0,0.0,0.0,0.0,0.0,0.0,0.0,0.0,0.0,0.0,0.0,0.0,0.0,0.0,0.0,0.0,0.0,0.0,0.0,0.0,0.0,0.0,0.0,0.0,0.0,0.0,0.0,0.0,0.0,0.0,0.0,0.0,0.0,0.0,0.0,0.0,0.0,0.0,0.0,0.0,0.0,0.0,0.0,0.0,0.0,0.0,0.0,0.0,0.0,0.0,0.0,0.0,0.0,0.0,0.0,0.0,0.0,0.0,0.0,0.0,0.0,0.0,0.0,0.0,0.0,0.0,0.0,0.0,0.0,0.0,0.0,0.0,0.0,0.0,0.0,0.0,0.0,0.0,0.0,0.0,0.0,0.0,0.0,0.0,0.0,0.0,0.0,0.0,0.0,0.0,0.0,0.0,0.0,0.0,0.0,0.0,0.0,0.0,0.0,0.0,0.0,0.0,0.0,0.0,0.0,0.0,0.0,0.0,0.0,0.0,0.0,0.0,0.0,0.0,0.0,0.0,0.0,0.0,0.0,0.0,0.0,0.0,0.0,0.0,0.0,0.0,0.0,0.0,0.0,0.0,0.0,0.0,0.0,0.0,0.0,0.0,0.0,0.0,0.0,0.0,0.0,0.0,0.0,0.0,0.0,0.0,0.0,0.0,0.0,0.0,0.0,0.0,0.0,0.0,0.0,0.0,0.0,0.0,0.0,0.0,0.0,0.0,0.0,0.0,0.0,0.0,0.0,0.0,0.0,0.0,0.0,0.0,0.0,0.0,0.0,0.0,0.0,0.0,0.0,0.0,0.0,0.0,0.0,0.0,0.0,0.0,0.0,0.0,0.0,0.0,0.0,0.0,0.0,0.0,0.0,0.0,0.0,0.0,0.0,0.0,0.0,0.0,0.0,0.0,0.0,0.0,0.0,0.0,0.0,0.0,0.0,0.0,0.0,0.0,0.0,0.0,0.0,0.0,0.0,0.0,0.0,0.0,0.0,0.0,0.0,0.0,0.0,0.0,0.0,0.0,0.0,0.0,0.0,0.0,0.0,0.0,0.0,0.0,0.0,0.0,0.0,0.0,0.0,0.0,0.0,0.0,0.0,0.0,0.0,0.0,0.0,0.0,0.0,0.0,0.0,0.0,0.0,0.0,0.0,0.0,0.0,0.0,0.0,0.0,0.0,0.0,0.0,0.0,0.0,0.0,0.0,0.0,0.0,0.0,0.0,0.0,0.0,0.0,0.0,0.0,0.0,0.0,0.0,0.0,0.0,0.0,0.0,0.0,0.0,0.0,0.0,0.0,0.0,0.0,0.0,0.0,0.0,0.0,0.0,0.0,0.0,0.0,0.0,0.0,0.0,0.0,0.0,0.0,0.0,0.0,0.0,0.0,0.0,0.0,0.0,0.0,0.0,0.0,0.0,0.0,0.0,0.0,0.0,0.0,0.0,0.0,0.0,0.0,0.0,0.0,0.0,0.0,0.0,0.0,0.0,0.0,0.0,0.0,0.0,0.0,0.0,0.0,0.0,0.0,0.0,0.0,0.0,0.0,0.0,0.0,0.0,0.0,0.0,0.0,0.0,0.0,0.0,0.0,0.0,0.0,0.0,0.0,0.0,0.0,0.0,0.0,0.0,0.0,0.0,0.0,0.0,0.0,0.0,0.0,0.0,0.0,0.0,0.0,0.0,0.0,0.0,0.0,0.0,0.0,0.0,0.0,0.0,0.0,0.0,0.0,0.0,0.0,0.0,0.0,0.0,0.0,0.0,0.0,0.0,0.0,0.0,0.0,0.0,0.0,0.0,0.0,0.0,0.0,0.0,0.0,0.0,0.0,0.0,0.0,0.0,0.0,0.0,0.0,0.0,0.0,0.0,0.0,0.0,0.0,0.0,0.0,0.0,0.0,0.0,0.0,0.0,0.0,0.0,0.0,0.0,0.0,0.0,0.0,0.0,0.0,0.0,0.0,0.0,0.0,0.0,0.0,0.0,0.0,0.0,0.0,0.0,0.0,0.0,0.0,0.0,0.0,0.0,0.0,0.0,0.0,0.0,0.0,0.0,0.0,0.0,0.0,0.0,0.0,0.0,0.0,0.0,0.0,0.0,0.0,0.0,0.0,0.0,0.0,0.0,0.0,0.0,0.0,0.0,0.0,0.0,0.0,0.0,0.0,0.0,0.0,0.0,0.0,0.0,0.0,0.0,0.0,0.0,0.0,0.0,0.0,0.0,0.0,0.0,0.0,0.0,0.0,0.0,0.0,0.0,0.0,0.0,0.0,0.0,0.0,0.0,0.0,0.0,0.0,0.0,0.0,0.0,0.0,0.0,0.0,0.0,0.0,0.0,0.0,0.0,0.0,0.0,0.0,0.0,0.0,0.0,0.0,0.0,0.0,0.0,0.0,0.0,0.0,0.0,0.0,0.0,0.0,0.0,0.0,0.0,0.0,0.0,0.0,0.0,0.0,0.0,0.0,0.0,0.0,0.0,0.0,0.0,0.0,0.0,0.0,0.0,0.0,0.0,0.0,0.0,0.0,0.0,0.0,0.0,0.0,0.0,0.0,0.0,0.0,0.0,0.0,0.0,0.0,0.0,0.0,0.0,0.0,0.0,-2.1051,0.0,0.0,0.0,0.0,0.0,0.0,0.0,0.0,0.0,0.0,0.0,0.0,0.0,0.0,0.0,0.0,0.0,0.0,0.0,0.0,0.0,0.0,0.0,0.0,0.0,0.0,0.0,0.0,0.0,0.0,0.0,0.0,0.0,0.0,0.0,0.0,0.0,0.0,0.0,-1.1425,-1.0319,-0.9244,-0.8756,-0.8483,-0.8382,0.0,0.0,0.0,0.0,0.0,0.0,0.0,0.0,0.0,0.0,0.0,0.0,0.0,0.0,0.0,0.0,0.0,0.0,0.0,0.0,0.0,0.0,0.0,0.0,0.0,0.0,0.0,0.0,0.0,0.0,0.0,0.0,0.0,0.0,0.0,0.0,0.0,0.0,0.0,0.0,0.0,0.0,0.0,0.0,0.0,0.0,0.0,0.0,0.0,0.0,0.0,0.0,0.0,0.0,0.0,0.0,0.0,0.0,0.0,0.0,0.0,0.0,0.0,0.0,0.0,0.0,0.0,0.0,0.0,0.0,0.0,-2.1411,0.0,0.0,0.0,0.0,0.0,0.0,0.0,0.0,0.0,0.0,0.0,0.0,0.0,0.0,0.0,0.0,0.0,0.0,0.0,0.0,0.0,0.0,0.0,0.0,0.0,0.0,0.0,0.0,0.0,0.0,0.0,0.0,0.0,0.0,0.0,0.0,0.0,0.0,-1.0874,-0.9203,-0.7418,-0.6568,-0.6803,-0.7885,0.0,0.0,0.0,0.0,0.0,0.0,0.0,0.0,0.0,0.0,0.0,0.0,0.0,0.0,0.0,0.0,0.0,0.0,0.0,0.0,0.0,0.0,0.0,0.0,0.0,0.0,0.0,0.0,0.0,0.0,0.0,0.0,0.0,0.0,0.0,0.0,0.0,0.0,0.0,0.0,0.0,0.0,0.0,0.0,0.0,0.0,0.0,0.0,0.0,0.0,0.0,0.0,0.0,0.0,0.0,0.0,0.0,0.0,0.0,0.0,0.0,0.0,0.0,0.0,-2.0831,-2.1559,-2.1594,-2.2423,-2.2843,-2.292,-2.2256,-2.1973,-2.1961,0.0,0.0,0.0,0.0,0.0,0.0,0.0,0.0,0.0,0.0,0.0,0.0,0.0,0.0,0.0,0.0,0.0,0.0,0.0,0.0,0.0,0.0,0.0,0.0,0.0,0.0,0.0,0.0,0.0,0.0,0.0,0.0,0.0,0.0,-1.2589,-1.2158,-1.0989,-0.8887,-0.7311,-0.6322,-0.6189,-0.631,-0.664,-0.6822,0.0,0.0,0.0,0.0,0.0,0.0,0.0,0.0,0.0,0.0,0.0,0.0,0.0,0.0,0.0,0.0,0.0,0.0,0.0,0.0,0.0,0.0,0.0,0.0,0.0,0.0,0.0,0.0,0.0,0.0,0.0,0.0,0.0,0.0,0.0,0.0,0.0,0.0,0.0,0.0,0.0,0.0,0.0,-1.3339,-1.4049,0.0,0.0,0.0,0.0,0.0,0.0,0.0,0.0,0.0,0.0,0.0,0.0,0.0,-1.822,-1.8592,-1.9321,-1.9854,-2.0225,-2.1331,-2.1861,-2.1896,-2.2752,-2.3136,-2.3169,-2.3062,0.0,-2.2298,-2.1843,0.0,0.0,0.0,0.0,0.0,0.0,0.0,0.0,0.0,0.0,0.0,0.0,0.0,0.0,0.0,0.0,0.0,0.0,0.0,0.0,0.0,0.0,0.0,0.0,0.0,0.0,0.0,0.0,0.0,0.0,0.0,0.0,-1.1778,-1.1233,-1.024,-0.8832,-0.8017,-0.7018,-0.5863,-0.5863,-0.5908,-0.5994,-0.5591,-0.5897,-0.6732,-0.6823,0.0,0.0,0.0,0.0,0.0,0.0,0.0,0.0,0.0,0.0,0.0,0.0,0.0,0.0,0.0,0.0,0.0,0.0,0.0,0.0,0.0,0.0,0.0,0.0,0.0,0.0,0.0,0.0,0.0,0.0,0.0,0.0,0.0,0.0,0.0,0.0,0.0,0.0,0.0,-1.3637,-1.4042,-1.4165,-1.4042,-1.397,0.0,0.0,0.0,0.0,0.0,0.0,0.0,0.0,0.0,-1.8147,-1.8636,-1.9202,-1.9787,-2.0359,-2.0684,-2.0855,-2.1963,-2.2512,-2.2548,-2.337,-2.3769,-2.3758,-2.3572,-2.3361,-2.3082,-2.2591,-2.2337,-2.2215,0.0,0.0,0.0,0.0,-2.2052,-2.2052,0.0,0.0,0.0,0.0,0.0,0.0,0.0,0.0,0.0,0.0,0.0,0.0,0.0,0.0,0.0,-1.1428,0.0,0.0,0.0,0.0,0.0,0.0,0.0,-1.145,-1.1293,-0.98,-0.8541,-0.7507,-0.7327,-0.6735,-0.5688,-0.5466,-0.5329,-0.5285,-0.4344,-0.465,-0.5802,-0.5622,-0.58,0.0,0.0,0.0,0.0,0.0,0.0,0.0,0.0,0.0,0.0,0.0,0.0,0.0,0.0,0.0,0.0,0.0,0.0,0.0,0.0,0.0,0.0,0.0,0.0,0.0,0.0,0.0,0.0,0.0,0.0,0.0,0.0,0.0,0.0,0.0,0.0,0.0,0.0,-1.466,-1.4843,-1.4712,-1.4828,-1.4947,0.0,0.0,0.0,0.0,0.0,0.0,-1.7342,-1.7608,-1.8176,-1.9125,-1.9566,-2.0098,-2.0704,-2.1596,-2.2024,-2.2072,-2.3149,-2.3674,-2.3712,-2.432,-2.4579,-2.4556,-2.4184,-2.4,-2.3942,-2.3224,-2.2888,-2.2888,-2.2741,-2.2719,-2.2719,-2.2719,-2.2719,-2.2719,0.0,0.0,0.0,0.0,0.0,0.0,0.0,0.0,0.0,0.0,0.0,0.0,0.0,0.0,-1.1242,-1.1409,-1.1223,-1.1186,0.0,0.0,0.0,0.0,0.0,-1.2184,-1.1022,-0.8918,-0.7768,-0.78,-0.647,-0.5777,-0.5688,-0.4792,-0.4387,-0.4344,-0.3405,-0.376,-0.5008,-0.4287,-0.4287,-0.4861,0.0,0.0,0.0,0.0,0.0,0.0,0.0,0.0,0.0,0.0,0.0,0.0,0.0,0.0,0.0,0.0,0.0,0.0,0.0,0.0,0.0,0.0,0.0,0.0,0.0,0.0,0.0,0.0,0.0,0.0,0.0,0.0,0.0,0.0,0.0,0.0,0.0,0.0,0.0,-1.6333,-1.6489,0.0,0.0,0.0,0.0,-1.6901,-1.7235,-1.7704,-1.8314,-1.8692,-1.9009,-1.9277,-2.0513,-2.1233,-2.1273,-2.3295,-2.4329,-2.4329,-2.5176,-2.5558,-2.5558,-2.5597,-2.5635,-2.5612,-2.5073,-2.4843,-2.4728,-2.3433,-2.2888,-2.2888,-2.2741,-2.2719,-2.2719,-2.2719,-2.2719,-2.2719,0.0,0.0,0.0,0.0,0.0,0.0,0.0,0.0,0.0,0.0,0.0,0.0,0.0,-1.3266,-1.2315,-1.1669,-1.0925,-1.0625,-1.0812,0.0,0.0,0.0,0.0,-1.0074,-0.8404,-0.755,-0.7044,-0.6828,-0.6156,-0.5882,-0.5912,-0.4913,-0.4427,-0.4377,-0.2658,-0.2329,-0.2952,-0.2862,-0.3173,-0.3796,-0.4685,-0.6116,0.0,0.0,0.0,0.0,0.0,0.0,0.0,0.0,0.0,0.0,0.0,0.0,0.0,0.0,0.0,0.0,0.0,0.0,0.0,0.0,0.0,0.0,0.0,0.0,0.0,0.0,0.0,0.0,0.0,0.0,0.0,0.0,0.0,0.0,0.0,0.0,0.0,-1.6277,-1.6654,0.0,-1.7261,-1.7475,-1.8189,-1.9464,-1.9234,-1.9514,-2.0571,-2.0212,-2.0236,-2.0821,-2.1331,-2.1826,-2.2402,-2.3708,-2.4388,-2.4388,-2.5255,-2.5716,-2.5716,-2.5716,-2.5716,-2.5704,-2.5509,-2.5429,-2.5383,-2.488,-2.4307,-2.372,-2.3685,-2.3661,-2.3661,-2.3661,-2.3661,-2.3661,0.0,0.0,0.0,0.0,0.0,0.0,0.0,0.0,0.0,0.0,0.0,-1.5471,-1.5136,-1.3991,-1.2865,-1.1892,-1.1074,-1.0594,-1.0594,0.0,0.0,0.0,-1.0639,-0.9165,-0.7462,-0.7054,-0.6689,-0.6276,-0.6175,-0.5909,-0.5559,-0.45,-0.3805,-0.3364,-0.1685,-0.1083,-0.1343,-0.1612,-0.2014,-0.255,-0.3347,-0.4835,-0.6764,0.0,0.0,0.0,0.0,0.0,0.0,0.0,0.0,0.0,0.0,0.0,0.0,0.0,0.0,0.0,0.0,0.0,0.0,0.0,0.0,0.0,0.0,0.0,0.0,0.0,0.0,0.0,0.0,0.0,0.0,0.0,0.0,0.0,0.0,0.0,-1.7424,-1.6727,-1.7415,-1.8162,-1.8628,-1.8905,-1.9684,-2.1184,-2.057,-2.0485,-2.1371,-2.1315,-2.1497,-2.2021,-2.2934,-2.368,-2.4281,-2.5284,-2.5769,-2.5769,-2.641,-2.6714,-2.6714,-2.6714,-2.6714,-2.6703,-2.637,-2.6232,-2.6198,-2.5853,-2.5314,-2.4705,-2.4705,-2.4705,-2.4682,-2.4499,-2.4441,-2.4418,0.0,0.0,0.0,0.0,0.0,0.0,0.0,0.0,0.0,0.0,-1.5623,-1.495,-1.4939,-1.3738,-1.2725,-1.2114,-1.1669,-1.126,-1.085,-1.1005,0.0,0.0,0.0,-0.9663,-0.8476,-0.7514,-0.6783,-0.6328,-0.645,-0.5847,-0.4569,-0.3518,-0.2446,-0.1432,-0.0462,-0.0183,-0.0403,-0.0628,-0.0852,-0.1211,-0.2594,-0.362,-0.4597,0.0,0.0,0.0,0.0,0.0,0.0,0.0,0.0,0.0,0.0,0.0,0.0,0.0,0.0,0.0,0.0,0.0,0.0,0.0,0.0,0.0,0.0,0.0,0.0,0.0,0.0,0.0,0.0,0.0,0.0,0.0,0.0,0.0,-1.7577,-1.8118,-1.8456,-1.787,-1.8906,-1.9997,-2.0889,-2.0697,-2.0918,-2.1926,-2.1104,-2.0618,-2.0721,-2.2019,-2.2752,-2.2794,-2.5391,-2.6745,-2.6745,-2.8019,-2.8657,-2.8614,-2.8657,-2.8657,-2.8657,-2.8657,-2.8657,-2.86,-2.7649,-2.7236,-2.7156,-2.617,-2.5769,-2.5757,-2.5739,-2.5677,-2.5608,-2.513,-2.4897,-2.4829,0.0,0.0,0.0,0.0,0.0,0.0,0.0,0.0,0.0,0.0,-1.6298,-1.5868,-1.5771,-1.4788,-1.4019,-1.3694,-1.2542,-1.1781,-1.1669,0.0,0.0,0.0,0.0,-0.9152,-0.7526,-0.7156,-0.6968,-0.697,-0.6962,-0.6785,-0.6429,-0.4376,-0.3361,-0.3199,-0.119,-0.0406,-0.0628,-0.0897,-0.1031,-0.1166,-0.1658,-0.2941,-0.4601,0.0,0.0,0.0,0.0,0.0,0.0,0.0,0.0,0.0,0.0,0.0,0.0,0.0,0.0,0.0,0.0,0.0,0.0,0.0,0.0,0.0,0.0,0.0,0.0,0.0,0.0,0.0,0.0,0.0,0.0,0.0,0.0,-2.1272,-1.9432,-1.9982,-2.0398,-1.9997,-2.0605,-2.0951,-2.068,-2.0841,-2.1741,-2.3705,-2.2566,-2.2872,-2.5384,-2.4559,-2.4351,-2.5088,-2.5824,-2.5871,-2.5128,-2.6864,-2.736,-2.6619,-2.7667,-2.8181,-2.8181,-2.8181,-2.8181,-2.8213,-2.8242,-2.8299,-2.8233,-2.7609,-2.7381,-2.7276,-2.612,-2.5499,-2.5233,-2.5417,-2.5244,-2.4941,0.0,0.0,0.0,0.0,0.0,0.0,0.0,0.0,0.0,0.0,-1.6517,-1.6211,-1.6,-1.5453,-1.4939,-1.445,-1.323,-1.2445,-1.2261,0.0,0.0,0.0,0.0,-0.9284,-0.7705,-0.7402,-0.723,-0.7211,-0.7272,-0.706,-0.6476,-0.4629,-0.3588,-0.3225,-0.1381,-0.0588,-0.0718,-0.0987,-0.1211,-0.1436,-0.166,-0.2597,-0.3974,-0.4947,-0.6536,-0.8436,-0.9806,-1.0684,-1.1375,-1.2149,0.0,0.0,0.0,0.0,0.0,0.0,0.0,0.0,0.0,0.0,0.0,0.0,0.0,0.0,0.0,0.0,0.0,0.0,0.0,0.0,0.0,0.0,0.0,0.0,-2.2304,-2.2468,-2.2109,-2.2266,-2.208,-2.1242,-2.2138,-2.2848,-2.2806,-2.302,-2.3702,-2.5016,-2.3912,-2.3902,-2.5426,-2.5023,-2.5109,-2.5837,-2.6913,-2.7288,-2.6831,-2.8438,-2.8908,-2.8324,-2.8908,-2.9093,-2.8891,-2.8711,-2.8498,0.0,-2.8366,-2.8408,-2.8386,-2.7866,-2.7645,0.0,0.0,0.0,0.0,0.0,-2.5161,-2.4747,0.0,0.0,0.0,0.0,0.0,0.0,0.0,0.0,0.0,0.0,0.0,-1.6175,-1.5841,-1.5805,-1.5505,-1.4788,-1.381,-1.3039,0.0,0.0,0.0,-1.0921,-1.0473,-0.9705,-0.8544,-0.7883,-0.7476,-0.7235,-0.7463,-0.6994,-0.5785,-0.4604,-0.3514,-0.2601,-0.1301,-0.0776,-0.0807,-0.1076,-0.148,-0.1885,-0.2242,-0.2645,-0.3179,-0.491,-0.593,-0.677,-0.9104,-1.0149,-1.0572,-1.166,0.0,0.0,0.0,0.0,0.0,0.0,0.0,0.0,0.0,0.0,0.0,0.0,0.0,0.0,0.0,0.0,0.0,0.0,0.0,0.0,0.0,0.0,0.0,0.0,-2.2783,-2.319,-2.4897,-2.4712,-2.3868,-2.2253,-2.3779,-2.5189,-2.591,-2.5929,-2.5916,-2.5958,-2.5079,-2.4228,-2.354,0.0,0.0,0.0,0.0,-2.9718,-3.0133,-3.1205,-3.1718,-3.1515,-3.1035,-3.0548,-3.0078,-2.9639,-2.915,-2.8773,-2.837,-2.8209,-2.8122,-2.7574,-2.7323,-2.7213,-2.7149,-2.6955,-2.6551,-2.5626,-2.4976,-2.4585,0.0,0.0,0.0,0.0,0.0,0.0,0.0,0.0,0.0,-1.6899,-1.6517,-1.6175,-1.5841,-1.5805,-1.5726,-1.5576,-1.4258,-1.3028,0.0,0.0,-1.1964,-1.1247,-1.0431,-0.9536,-0.854,-0.7817,-0.7414,-0.7368,-0.7503,-0.7444,-0.7152,-0.5127,-0.414,-0.3983,-0.1955,-0.1125,-0.13,-0.1794,-0.2019,-0.2199,-0.3179,-0.3626,-0.3758,-0.434,-0.545,-0.682,-0.7489,-0.8364,-0.9279,-0.9666,-1.0496,-1.137,-1.1542,0.0,0.0,0.0,0.0,0.0,0.0,0.0,0.0,0.0,0.0,0.0,0.0,0.0,0.0,0.0,0.0,0.0,0.0,0.0,0.0,-2.3215,-2.4408,-2.518,-2.5236,-2.671,-2.7068,-2.5217,-2.6109,-2.6648,-2.6053,-2.5549,-2.5735,-2.6853,-2.5567,-2.5488,-2.7231,-2.6833,-2.7402,-2.917,-2.9705,-3.0057,-3.0155,-3.1264,-3.1168,-2.9872,0.0,0.0,-2.9569,-2.9471,-2.9368,-2.9272,-2.9564,-2.9495,-2.9077,-2.8612,-2.7978,-2.7238,-2.6857,-2.6852,-2.6998,-2.6484,-2.6,-2.5626,0.0,0.0,0.0,0.0,0.0,0.0,0.0,0.0,0.0,0.0,-1.6795,-1.6456,-1.607,-1.6035,-1.5894,-1.5541,-1.4086,0.0,0.0,-1.1938,-1.1808,-1.0936,-1.0269,-0.9449,-0.854,-0.7784,-0.7415,-0.7415,-0.7522,-0.7362,-0.6879,-0.5162,-0.4148,-0.3731,-0.2306,-0.1705,-0.1839,-0.2332,-0.2734,-0.3092,-0.3671,-0.4206,-0.4654,-0.479,-0.5366,-0.6207,-0.7003,-0.7749,-0.8448,-0.9148,-1.0193,-1.1154,-1.1284,-1.2272,-1.3398,0.0,0.0,0.0,0.0,0.0,0.0,0.0,0.0,0.0,0.0,0.0,0.0,0.0,0.0,-2.1105,0.0,0.0,-2.3019,-2.4452,-2.537,-2.6153,-2.6892,-2.8209,-2.85,-2.6778,-2.7699,-2.8344,-2.814,-2.805,-2.8252,-2.8673,-2.7953,-2.7582,-2.7683,-2.7744,-2.8097,-2.8826,-2.9949,-3.0674,-3.0926,-3.201,-3.201,-3.0926,-3.0908,-3.0489,-2.9742,-2.9463,-2.9237,-2.9016,-2.9254,-2.9214,-2.8991,-2.8757,-2.8241,-2.7589,-2.7322,-2.7083,-2.6868,-2.642,-2.6099,-2.5899,0.0,0.0,0.0,0.0,0.0,0.0,0.0,0.0,0.0,0.0,-1.7038,-1.6769,-1.6412,-1.6307,-1.5947,0.0,0.0,0.0,0.0,-1.1774,-1.1714,-1.0807,-1.0209,-0.9536,-0.8803,-0.7841,-0.7326,-0.7326,-0.7451,-0.7131,-0.6328,-0.517,-0.4171,-0.3435,-0.2664,-0.2378,-0.2423,-0.2913,-0.3448,-0.3983,-0.4117,-0.4699,-0.5416,-0.546,-0.5463,-0.5594,-0.6786,-0.7356,-0.7702,-0.8711,-0.9927,-1.102,-1.102,-1.21,-1.3398,-1.3398,-1.3743,0.0,0.0,0.0,0.0,0.0,0.0,0.0,0.0,0.0,-1.8851,-1.9896,-2.0614,-2.1505,-2.2829,-2.3156,-2.3836,-2.5726,-2.62,-2.6936,-2.8605,-2.9309,-2.9249,-2.821,-2.9082,-2.994,-3.0331,-3.0662,-3.0678,-3.0362,-3.015,-2.932,-2.7638,-2.8411,-2.8788,-2.8373,-3.0138,-3.1405,-3.1942,-3.2745,-3.2846,-3.2218,-3.1721,-3.0952,-3.0069,-2.963,-2.9239,-2.8876,-2.8794,-2.8752,-2.8742,-2.8649,-2.839,-2.8059,-2.8059,-2.7552,-2.6775,-2.6366,-2.6092,-2.6055,0.0,0.0,0.0,0.0,0.0,0.0,0.0,0.0,0.0,0.0,0.0,0.0,0.0,0.0,0.0,0.0,0.0,0.0,-1.144,-1.1735,-1.188,-1.1754,-1.0552,-0.9836,-0.9749,-0.8028,-0.7122,-0.7122,-0.7139,-0.7101,-0.6964,-0.5612,-0.4893,-0.4712,-0.3406,-0.2913,-0.3138,-0.3582,-0.3983,-0.4297,-0.4968,-0.5282,-0.5416,-0.5599,-0.5688,-0.5733,-0.6127,-0.6387,-0.6605,-0.6966,-0.8404,-1.0053,-1.0053,-1.1612,-1.3398,-1.3398,0.0,-1.4088,-1.4088,-1.437,-1.4734,-1.5048,-1.5298,-1.5506,0.0,0.0,-1.8262,-1.9229,-2.0617,-2.2131,-2.3546,-2.4084,-2.4807,-2.6291,-2.7272,-2.8232,-2.9257,-2.9825,-3.0251,-3.0571,-3.072,-3.0859,-3.0928,-3.0547,-3.0433,-3.0706,-2.9915,-2.9424,-2.959,-2.9715,-3.0202,-3.113,-3.1396,-3.205,-3.3119,-3.2684,-3.2218,-3.1669,-3.1157,-3.0567,-3.0016,-2.9974,-2.9891,-2.9818,-2.9404,-2.9228,-2.9197,-2.8783,-2.8587,-2.8535,-2.8535,-2.8224,-2.7717,-2.7272,-2.6895,-2.6542,0.0,0.0,0.0,0.0,0.0,0.0,0.0,0.0,0.0,0.0,0.0,0.0,0.0,0.0,0.0,0.0,0.0,0.0,-1.2131,-1.182,-1.156,-1.1335,-1.0923,-1.0313,-0.9488,-0.8711,-0.8061,-0.7584,-0.7584,-0.7272,-0.6688,-0.611,-0.5534,-0.4959,-0.4202,-0.4026,-0.4251,-0.4344,-0.4567,-0.4968,-0.5282,-0.5549,-0.5861,-0.6523,-0.683,-0.6915,-0.7048,-0.7261,0.0,0.0,-0.9536,-1.0755,-1.0885,-1.2095,-1.3434,-1.3519,-1.3822,0.0,-1.437,-1.4573,0.0,0.0,-1.5485,-1.5751,-1.6032,-1.6997,-1.8198,-1.9512,-2.0562,-2.1793,-2.3724,-2.4223,-2.5019,0.0,-2.7808,-2.8531,-2.9737,-3.0354,-3.0767,-3.0985,-3.1525,-3.1869,-3.1869,-3.1655,-3.1739,-3.2245,-3.1856,-3.1429,-3.0897,-3.1545,-3.1801,-3.1637,-3.2218,-3.2807,-3.3281,-3.2684,-3.2117,-3.1567,-3.1054,-3.0536,-2.9994,-2.9994,-2.9994,-2.9984,-2.9787,-2.9704,-2.9694,-2.9497,-2.9259,-2.9021,-2.9021,-2.8731,-2.8266,-2.781,-2.7355,-2.7019,0.0,0.0,0.0,0.0,0.0,0.0,0.0,0.0,0.0,0.0,0.0,0.0,0.0,0.0,0.0,0.0,0.0,0.0,0.0,-1.2308,-1.1756,-1.1266,-1.1332,-1.0905,-0.9876,-0.9678,-0.9274,-0.8632,-0.8372,-0.7969,-0.7335,-0.6987,-0.6502,-0.5968,-0.5706,-0.5753,-0.5933,-0.563,-0.5722,-0.6033,-0.5769,-0.5858,-0.6302,-0.7224,-0.7702,-0.7965,-0.8225,-0.84,0.0,0.0,-1.0577,-1.1456,-1.1628,-1.2534,-1.3519,-1.3652,-1.3923,-1.4273,-1.4594,0.0,0.0,-1.5458,-1.5804,-1.6124,-1.6447,-1.7182,-1.8161,-1.9597,-2.0535,-2.1704,-2.3801,-2.4451,0.0,-2.7521,-2.8089,-2.8662,-2.9841,-3.0583,-3.1065,-3.1192,-3.1972,-3.2546,-3.2695,-3.2707,-3.2868,-3.3258,-3.3281,-3.2958,-3.2106,-3.2857,-3.2908,-3.2106,-3.2857,-3.3231,-3.3069,-3.2617,-3.2046,-3.1362,-3.0986,-3.0517,-2.9994,-2.9994,-2.9994,-2.9994,-2.9994,-2.9994,-2.9994,-2.9994,-2.9798,-2.9497,-2.9497,-2.9208,-2.8763,-2.8421,-2.7935,-2.7486,0.0,0.0,0.0,0.0,0.0,0.0,0.0,0.0,0.0,0.0,0.0,0.0,0.0,0.0,0.0,0.0,0.0,0.0,0.0,-1.3278,-1.2905,-1.2081,-1.1768,-1.1579,-1.1543,-1.0884,-1.0524,-1.0524,-0.9618,-0.9362,-0.9749,-0.8396,-0.8002,-0.8392,-0.8162,-0.8209,-0.8348,-0.7691,-0.7518,-0.7658,-0.6738,-0.6384,-0.6473,-0.7438,-0.7962,-0.8313,-0.9231,0.0,0.0,0.0,-1.0707,-1.1671,-1.1714,-1.2619,0.0,-1.3695,-1.4061,-1.4529,0.0,0.0,-1.5699,-1.5843,-1.6133,-1.6397,-1.6397,-1.7048,-1.7957,-1.9154,-2.0598,-2.2206,-2.3895,-2.5106,-2.6191,-2.7154,-2.8074,-2.8899,-2.9439,-3.0352,-3.1192,-3.1603,-3.2167,-3.2684,0.0,-3.3258,-3.3269,-3.3281,-3.3281,-3.3281,-3.3231,-3.3281,-3.3281,-3.3231,-3.3281,-3.3019,-3.2409,-3.2347,-3.1828,-3.0847,-3.0757,-3.0482,-2.9994,-2.9994,-2.9994,-2.9994,-2.9994,-2.9994,-2.9994,-2.9994,-2.9984,-2.9973,-2.9973,-2.9694,-2.928,-2.927,-2.868,-2.7903,0.0,0.0,0.0,0.0,0.0,0.0,0.0,0.0,0.0,0.0,0.0,0.0,0.0,0.0,0.0,0.0,0.0,0.0,0.0,-1.4183,-1.3579,-1.2743,-1.2837,-1.2678,-1.2088,-1.1843,-1.1578,-1.1343,-1.0999,-1.0832,-1.0842,-1.0318,-1.0058,-0.9884,-0.9357,-0.9222,-0.9396,-0.8694,-0.8563,-0.8694,-0.8388,-0.8348,-0.8659,-0.9696,-1.0308,-1.0664,0.0,0.0,0.0,-1.1794,-1.24,-1.2833,-1.296,-1.3349,-1.3776,-1.4144,-1.4613,-1.5086,0.0,0.0,-1.5954,-1.6199,-1.6499,-1.6824,-1.7139,-1.7803,-1.8599,-1.9364,-2.0778,-2.2308,-2.3691,-2.4855,-2.6094,-2.7539,-2.8021,-2.8549,-2.9393,-3.039,-3.1167,-3.1613,-3.2489,0.0,0.0,0.0,0.0,-3.3281,-3.3281,-3.3281,-3.3281,-3.3281,-3.343,-3.3752,-3.3396,-3.3247,-3.3365,-3.2637,-3.2052,-3.1732,-3.1331,-3.106,-3.0905,-3.0594,-3.045,-3.0439,-3.0129,-2.9994,-2.9994,-2.9994,-2.9994,-2.9994,-2.9994,-2.9901,-2.9766,-2.9766,-2.9373,-2.8794,0.0,0.0,0.0,0.0,0.0,0.0,0.0,0.0,0.0,0.0,0.0,0.0,0.0,0.0,0.0,0.0,0.0,0.0,0.0,0.0,-1.4403,-1.3558,-1.3623,-1.3556,-1.3273,-1.3257,-1.3159,-1.3069,-1.2868,-1.279,-1.2766,-1.2083,-1.1746,-1.1574,-1.0966,-1.0747,-1.0718,-1.023,-1.0043,-1.0057,-0.9794,-0.9783,-1.0053,-1.1133,-1.166,0.0,0.0,0.0,0.0,-1.3052,-1.3355,-1.3525,-1.3652,-1.3851,-1.4035,-1.4372,-1.493,0.0,0.0,-1.6017,-1.6387,-1.6527,-1.6829,-1.711,-1.7438,-1.788,-1.8535,-1.9492,-2.0787,-2.2217,-2.3846,-2.5036,-2.6188,-2.7547,-2.7904,-2.8233,-2.8874,-3.0147,-3.1109,-3.1397,-3.2551,0.0,0.0,0.0,0.0,-3.3281,-3.3281,-3.3281,-3.3281,-3.3453,-3.3683,-3.3993,-3.361,-3.344,-3.3604,-3.2868,-3.2356,-3.2138,-3.1608,-3.1381,-3.136,-3.1071,-3.0936,-3.0905,-3.0439,-3.0243,-3.0232,-3.0067,-2.9994,-2.9994,-2.9994,-2.9994,-2.9994,-2.9994,-2.9756,-2.9374,0.0,0.0,0.0,0.0,0.0,0.0,0.0,0.0,0.0,0.0,0.0,0.0,0.0,0.0,0.0,0.0,0.0,0.0,0.0,0.0,0.0,-1.4594,-1.4132,-1.4214,-1.498,-1.4946,-1.5108,-1.5538,-1.5025,-1.5011,-1.5372,-1.363,-1.3032,-1.3364,-1.2911,-1.2566,-1.2312,-1.2101,-1.1891,-1.1638,-1.099,-1.074,-1.0826,-1.1746,0.0,0.0,0.0,0.0,0.0,0.0,0.0,0.0,0.0,-1.4111,-1.4512,-1.4436,-1.5119,-1.5794,-1.5711,-1.6337,-1.7001,-1.696,-1.7106,-1.7279,-1.7279,-1.7372,-1.7878,-1.953,-2.0632,-2.2005,0.0,0.0,-2.6443,-2.7158,-2.7657,-2.7998,-2.7998,-2.9697,-3.0942,0.0,0.0,0.0,0.0,0.0,0.0,-3.3281,0.0,-3.3292,-3.3315,-3.3752,-3.4027,-3.4085,-3.393,-3.3659,-3.319,-3.2995,-3.2622,-3.2019,-3.165,-3.1443,-3.1443,-3.1422,-3.1412,-3.1381,-3.0926,-3.0708,-3.0657,-3.0212,-3.0015,-2.9994,-2.9994,-2.9994,-2.9994,-2.9994,-2.9827,-2.9597,0.0,0.0,0.0,0.0,0.0,0.0,0.0,0.0,0.0,0.0,0.0,0.0,0.0,0.0,0.0,0.0,0.0,0.0,0.0,0.0,0.0,0.0,0.0,0.0,0.0,0.0,0.0,-1.587,-1.5961,-1.5796,-1.5448,-1.4533,-1.3879,-1.3394,-1.2802,-1.2528,-1.2444,-1.2678,-1.2711,-1.2661,0.0,-1.2699,-1.2741,0.0,0.0,0.0,0.0,0.0,0.0,0.0,0.0,0.0,0.0,-1.4374,-1.4817,-1.5027,-1.5666,-1.6384,-1.66,-1.6925,-1.7217,-1.7184,-1.7267,-1.7279,-1.7279,-1.8156,-1.9072,-1.953,-2.1381,-2.3176,0.0,0.0,0.0,-2.6724,-2.7176,0.0,-2.7951,-2.9081,0.0,0.0,0.0,-3.2845,-3.3247,-3.3281,0.0,0.0,-3.3281,-3.3442,-3.3798,-3.3935,-3.4349,-3.5106,-3.4231,-3.3868,-3.4119,-3.3212,-3.2664,-3.2494,-3.2437,-3.2385,-3.2375,-3.2033,-3.1868,-3.1847,-3.1391,-3.1008,-3.0677,-3.0563,-3.0315,-2.9994,-2.9994,-2.9994,-2.9994,-2.9994,-2.9942,-2.9869,0.0,0.0,0.0,0.0,0.0,0.0,0.0,0.0,0.0,0.0,0.0,0.0,0.0,0.0,0.0,0.0,0.0,0.0,0.0,0.0,0.0,0.0,0.0,0.0,0.0,0.0,0.0,0.0,0.0,0.0,-1.61,-1.5521,-1.4857,-1.4063,-1.3449,-1.2883,-1.2478,-1.2927,0.0,0.0,0.0,0.0,0.0,0.0,0.0,0.0,0.0,0.0,0.0,0.0,0.0,-1.4243,-1.4328,-1.4631,-1.4927,-1.5165,0.0,-1.6514,-1.6687,-1.7028,-1.7279,-1.7279,-1.7279,-1.7419,-1.7878,-1.8241,-1.8934,-2.0286,-2.1563,0.0,0.0,0.0,0.0,0.0,0.0,0.0,-2.7647,-2.8566,-2.9567,0.0,-3.1596,0.0,-3.3235,-3.3281,-3.3281,0.0,-3.3476,-3.3717,-3.3993,-3.4429,-3.4923,-3.5497,-3.4786,-3.4328,-3.4099,-3.3172,-3.2669,-3.2669,-3.2669,-3.2669,-3.2669,-3.2401,-3.2287,-3.2256,0.0,-3.1516,-3.1247,-3.0853,-3.0532,-3.0284,-3.0077,-2.9994,-2.9994,-2.9994,-2.9942,-2.9774,0.0,0.0,0.0,0.0,0.0,0.0,0.0,0.0,0.0,0.0,0.0,0.0,0.0,0.0,0.0,0.0,0.0,0.0,0.0,0.0,0.0,0.0,0.0,0.0,0.0,0.0,0.0,0.0,0.0,0.0,0.0,0.0,0.0,0.0,0.0,0.0,0.0,0.0,0.0,0.0,0.0,0.0,0.0,0.0,0.0,0.0,0.0,0.0,0.0,0.0,-1.4286,-1.4482,-1.4608,-1.476,-1.4947,-1.5134,-1.5806,-1.6476,-1.6454,-1.6872,-1.7279,-1.7279,-1.7279,-1.7559,-1.8565,-1.8241,-1.8495,-2.1292,0.0,-2.1762,-2.3925,0.0,-2.5285,-2.5931,0.0,-2.675,-2.7154,-2.8052,-2.9048,-2.9997,-3.1056,-3.2052,-3.3032,-3.3247,-3.3281,-3.3281,-3.3798,-3.4108,-3.4108,-3.5003,-3.5436,-3.5344,-3.5318,-3.4714,-3.3512,-3.2955,-3.2669,-3.2669,-3.2669,-3.2669,-3.2669,-3.2669,-3.2669,-3.2706,-3.2246,0.0,-3.1915,-3.1122,-3.0739,-3.0636,-3.018,-2.9994,-2.9994,-2.9994,-2.9827,-2.9606,0.0,0.0,0.0,0.0,0.0,0.0,0.0,0.0,0.0,0.0,0.0,0.0,0.0,0.0,0.0,0.0,0.0,0.0,0.0,0.0,0.0,0.0,0.0,0.0,0.0,0.0,0.0,0.0,0.0,0.0,0.0,0.0,0.0,0.0,0.0,0.0,0.0,0.0,0.0,0.0,0.0,0.0,0.0,0.0,0.0,0.0,0.0,0.0,0.0,0.0,-1.4615,-1.465,-1.4482,-1.4741,-1.5127,-1.5426,-1.5951,-1.6499,-1.6763,-1.704,-1.7279,-1.7279,-1.7279,-1.7559,-1.8565,-1.9285,0.0,0.0,0.0,-2.2457,-2.329,-2.379,0.0,-2.5255,0.0,0.0,0.0,0.0,-2.8354,0.0,0.0,0.0,0.0,0.0,0.0,0.0,0.0,-3.4659,-3.4659,-3.521,-3.5273,-3.467,-3.4659,-3.4099,-3.2841,-3.2727,-3.2669,-3.2669,-3.2669,-3.2669,-3.2669,-3.2669,-3.2669,-3.2727,-3.2587,0.0,-3.1946,-3.1474,-3.1029,-3.0636,-3.018,-2.9994,-2.9994,-2.9994,-2.9827,-2.9554,0.0,0.0,0.0,0.0,0.0,0.0,0.0,0.0,0.0,0.0,0.0,0.0,0.0,0.0,0.0,0.0,0.0,0.0,0.0,0.0,0.0,0.0,0.0,0.0,0.0,0.0,0.0,0.0,0.0,0.0,0.0,0.0,0.0,0.0,0.0,0.0,0.0,0.0,0.0,0.0,0.0,0.0,0.0,0.0,0.0,0.0,0.0,0.0,0.0,0.0,-1.4622,-1.4915,-1.4908,-1.4999,-1.516,-1.5402,-1.5798,-1.6162,-1.6323,-1.6718,-1.7084,-1.7084,-1.7084,-1.7445,-1.888,0.0,0.0,0.0,0.0,-2.1678,-2.264,0.0,0.0,0.0,0.0,0.0,0.0,0.0,0.0,0.0,0.0,0.0,0.0,0.0,0.0,0.0,0.0,-3.3926,-3.4733,-3.523,-3.5295,-3.498,-3.4379,-3.3773,-3.3172,-3.2841,-3.2669,-3.2669,-3.2669,-3.2669,-3.2669,-3.2669,-3.2669,-3.2669,-3.2669,0.0,-3.2308,-3.1909,-3.1454,-3.0998,-3.0532,-3.0212,-2.9994,-2.9994,-2.9942,-2.9774,0.0,0.0,0.0,0.0,0.0,0.0,0.0,0.0,0.0,0.0,0.0,0.0,0.0,0.0,0.0,0.0,0.0,0.0,0.0,0.0,0.0,0.0,0.0,0.0,0.0,0.0,0.0,0.0,0.0,0.0,0.0,0.0,0.0,0.0,0.0,0.0,0.0,0.0,0.0,0.0,0.0,0.0,0.0,0.0,0.0,0.0,0.0,0.0,0.0,0.0,-1.4545,-1.4999,-1.5173,-1.5215,-1.5173,-1.5298,-1.5615,-1.5913,-1.5913,-1.6323,-1.6793,-1.6793,-1.6793,-1.7281,-1.9081,-1.8725,0.0,0.0,-2.1208,-2.1076,-2.222,0.0,0.0,0.0,0.0,0.0,0.0,0.0,0.0,0.0,0.0,0.0,0.0,0.0,0.0,0.0,0.0,0.0,-3.4502,-3.5125,-3.5268,-3.5046,-3.4121,-3.3512,-3.3409,-3.2955,-3.2669,-3.2669,-3.2669,-3.2669,-3.2669,-3.2669,-3.2669,-3.2669,-3.2669,0.0,0.0,-3.2126,-3.1692,-3.1319,-3.076,-3.0315,-2.9994,-2.9994,-2.9942,-2.9931,0.0,0.0,0.0,0.0,0.0,0.0,0.0,0.0,0.0,0.0,0.0,0.0,0.0,0.0,0.0,0.0,0.0,0.0,0.0,0.0,0.0,0.0,0.0,0.0,0.0,0.0,0.0,0.0,0.0,0.0,0.0,0.0,0.0,0.0,0.0,0.0,0.0,0.0,0.0,0.0,0.0,0.0,0.0,0.0,0.0,0.0,0.0,0.0,0.0,0.0,0.0,-1.4482,-1.4692,-1.5041,-1.5347,-1.5173,0.0,0.0,-1.5913,-1.6162,-1.6455,-1.6455,-1.6455,-1.6934,-1.874,0.0,0.0,-2.0953,-2.153,-2.1843,-2.2172,-2.2758,0.0,0.0,0.0,0.0,0.0,0.0,0.0,0.0,0.0,0.0,0.0,0.0,0.0,0.0,0.0,0.0,-3.3868,-3.4868,-3.488,-3.3794,-3.3681,-3.3353,-3.2784,-3.2727,-3.2669,-3.2669,-3.2669,-3.2669,-3.2669,-3.2669,-3.2669,-3.2669,-3.2669,0.0,0.0,-3.1795,-3.1412,-3.1288,-3.0398,-3.0036,-2.9994,-2.9994,-2.9837,-2.9659,0.0,0.0,0.0,0.0,0.0,0.0,0.0,0.0,0.0,0.0,0.0,0.0,0.0,0.0,0.0,0.0,0.0,0.0,0.0,0.0,0.0,0.0,0.0,0.0,0.0,0.0,0.0,0.0,0.0,0.0,0.0,0.0,0.0,0.0,0.0,0.0,0.0,0.0,0.0,0.0,0.0,0.0,0.0,0.0,0.0,0.0,0.0,0.0,0.0,0.0,0.0,0.0,-1.4482,-1.4824,0.0,0.0,-1.5351,-1.5579,-1.5579,-1.5855,-1.6096,-1.6096,-1.6096,-1.6558,-1.833,0.0,0.0,-2.0504,-2.1191,-2.1613,-2.2114,-2.277,-2.3422,0.0,0.0,0.0,0.0,0.0,0.0,0.0,0.0,0.0,0.0,0.0,0.0,0.0,0.0,0.0,-3.4347,-3.434,-3.4379,-3.4647,-3.4323,-3.4054,-3.3773,-3.3773,-3.3445,-3.2669,-3.2669,-3.2669,-3.2669,-3.2669,-3.2669,-3.2669,-3.2669,0.0,0.0,-3.2043,-3.1619,-3.1309,-3.0667,-3.0243,-2.9994,-2.9994,-2.9942,-2.9827,0.0,0.0,0.0,0.0,0.0,0.0,0.0,0.0,0.0,0.0,0.0,0.0,0.0,0.0,0.0,0.0,0.0,0.0,0.0,0.0,0.0,0.0,0.0,0.0,0.0,0.0,0.0,0.0,0.0,0.0,0.0,0.0,0.0,0.0,0.0,0.0,0.0,0.0,0.0,0.0,0.0,0.0,0.0,0.0,0.0,0.0,0.0,0.0,0.0,0.0,0.0,0.0,0.0,0.0,0.0,0.0,-1.5173,-1.5389,-1.5389,-1.5557,-1.5732,-1.5732,-1.5732,-1.6227,0.0,0.0,-1.8519,-2.0323,-2.0967,-2.1407,-2.2166,-2.277,-2.3422,-2.4082,0.0,-2.4766,0.0,0.0,0.0,0.0,0.0,0.0,0.0,0.0,0.0,0.0,0.0,0.0,0.0,-3.4083,-3.4406,-3.5542,-3.5179,-3.5013,-3.5013,-3.4692,-3.4256,-3.3762,-3.3378,-3.3218,-3.3218,-3.3218,-3.3058,-3.2669,-3.2525,0.0,0.0,-3.1888,-3.1454,-3.1122,-3.0667,-3.0284,-2.9994,-2.9994,-2.9994,-2.9994,0.0,0.0,0.0,0.0,0.0,0.0,0.0,0.0,0.0,0.0,0.0,0.0,0.0,0.0,0.0,0.0,0.0,0.0,0.0,0.0,0.0,0.0,0.0,0.0,0.0,0.0,0.0,0.0,0.0,0.0,0.0,0.0,0.0,0.0,0.0,0.0,0.0,0.0,0.0,0.0,0.0,0.0,0.0,0.0,0.0,0.0,0.0,0.0,0.0,0.0,0.0,0.0,0.0,0.0,0.0,0.0,-1.5041,-1.5389,-1.5389,-1.5389,-1.5389,-1.5389,-1.5389,-1.5873,0.0,0.0,-1.8559,-2.0498,-2.1056,-2.1488,-2.232,-2.2885,-2.3422,-2.4082,-2.4378,0.0,0.0,0.0,0.0,0.0,0.0,0.0,0.0,0.0,0.0,0.0,0.0,0.0,0.0,-3.4285,-3.5005,-3.6151,-3.6185,-3.6185,-3.6185,-3.5068,-3.5068,-3.6131,-3.5013,-3.448,-3.448,-3.448,-3.3818,0.0,0.0,0.0,0.0,-3.1071,-3.0698,-3.0646,-3.018,-3.0005,-2.9994,-2.9994,-2.9994,-2.9994,0.0,0.0,0.0,0.0,0.0,0.0,0.0,0.0,0.0,0.0,0.0,0.0,0.0,0.0,0.0,0.0,0.0,0.0,0.0,0.0,0.0,0.0,0.0,0.0,0.0,0.0,0.0,0.0,0.0,0.0,0.0,0.0,0.0,0.0,0.0,0.0,0.0,0.0,0.0,0.0,0.0,0.0,0.0,0.0,0.0,0.0,0.0,0.0,0.0,0.0,0.0,0.0,0.0,0.0,0.0,-1.4999,0.0,0.0,-1.5389,-1.5389,-1.5389,-1.5389,-1.5865,-1.6583,-1.7755,0.0,-1.9253,-2.0625,-2.1174,-2.1689,-2.2615,-2.3102,-2.3634,-2.4296,-2.4454,0.0,0.0,0.0,0.0,0.0,0.0,0.0,0.0,0.0,0.0,0.0,0.0,0.0,0.0,-3.6283,-3.6335,-3.6263,-3.6275,-3.6275,-3.6275,-3.5164,-3.4421,-3.3938,-3.2909,-3.2393,-3.2393,-3.2393,0.0,0.0,0.0,0.0,0.0,-3.0936,-3.0688,-3.0636,-3.018,-2.9994,-2.9994,-2.9994,-3.0443,-3.1084,0.0,0.0,0.0,0.0,0.0,0.0,0.0,0.0,0.0,0.0,0.0,0.0,0.0,0.0,0.0,0.0,0.0,0.0,0.0,0.0,0.0,0.0,0.0,0.0,0.0,0.0,0.0,0.0,0.0,0.0,0.0,0.0,0.0,0.0,0.0,0.0,0.0,0.0,0.0,0.0,0.0,0.0,-1.4114,0.0,0.0,0.0,0.0,0.0,0.0,0.0,0.0,0.0,0.0,0.0,0.0,0.0,-1.6023,-1.6229,0.0,-1.5389,-1.5465,-1.5824,-1.6304,0.0,0.0,0.0,-1.9618,-2.078,-2.1153,-2.16,-2.2563,-2.2879,-2.3207,-2.3908,-2.4178,0.0,0.0,0.0,0.0,0.0,0.0,0.0,0.0,0.0,0.0,0.0,0.0,0.0,0.0,-3.692,-3.6733,-3.6369,-3.6723,-3.693,-3.693,-3.5829,-3.4941,-3.4211,-3.3123,-3.2405,-3.2048,-3.2048,0.0,0.0,0.0,0.0,0.0,-3.0615,-3.0429,-3.0451,-3.0559,-3.0588,-3.064,-3.1043,-3.1648,-3.2134,0.0,0.0,0.0,0.0,0.0,0.0,0.0,0.0,0.0,0.0,0.0,0.0,0.0,0.0,0.0,0.0,0.0,0.0,0.0,0.0,0.0,0.0,0.0,0.0,0.0,0.0,0.0,-1.6697,-1.6318,-1.5899,-1.543,0.0,0.0,0.0,0.0,0.0,0.0,0.0,0.0,0.0,0.0,0.0,0.0,0.0,0.0,0.0,0.0,0.0,0.0,0.0,0.0,0.0,0.0,0.0,0.0,0.0,0.0,0.0,0.0,-1.5548,0.0,0.0,0.0,0.0,0.0,0.0,0.0,-2.0964,-2.1061,-2.1268,-2.229,-2.2343,-2.2458,-2.3071,-2.3577,0.0,0.0,0.0,0.0,0.0,0.0,0.0,0.0,0.0,0.0,0.0,0.0,0.0,0.0,-3.6405,-3.6405,-3.6405,-3.7362,-3.7889,-3.7889,-3.677,-3.6204,-3.6293,-3.5147,-3.4057,-3.2971,-3.2971,0.0,0.0,0.0,0.0,0.0,-3.0423,-3.0245,-3.0349,-3.133,-3.1677,-3.1728,-3.2739,-3.3101,-3.2951,0.0,0.0,0.0,0.0,0.0,0.0,0.0,0.0,0.0,0.0,0.0,0.0,0.0,0.0,0.0,0.0,0.0,0.0,0.0,0.0,0.0,0.0,0.0,0.0,0.0,0.0,0.0,-1.6697,-1.6599,-1.6151,-1.543,-1.6287,0.0,0.0,0.0,0.0,0.0,0.0,0.0,0.0,0.0,0.0,0.0,0.0,0.0,0.0,-1.3865,-1.4232,0.0,0.0,0.0,0.0,0.0,0.0,0.0,0.0,-1.7836,-1.7917,-1.7521,0.0,-1.6583,-1.7472,-1.7674,0.0,0.0,0.0,0.0,0.0,0.0,-2.1606,-2.2369,-2.2462,-2.2606,-2.3111,-2.3577,0.0,0.0,0.0,0.0,0.0,0.0,0.0,0.0,0.0,0.0,0.0,0.0,0.0,0.0,-3.6405,-3.6405,-3.6405,-3.6656,-3.6795,-3.6795,-3.5697,-3.5148,-3.5148,-3.4047,-3.2989,-3.1965,-3.1965,-3.1821,0.0,0.0,0.0,-3.2617,-3.2493,-3.2448,-3.2448,-3.275,-3.2336,-3.1626,-3.188,-3.1982,-3.1931,0.0,0.0,0.0,0.0,0.0,0.0,0.0,0.0,0.0,0.0,0.0,0.0,0.0,0.0,0.0,0.0,0.0,0.0,0.0,0.0,0.0,0.0,0.0,0.0,0.0,0.0,0.0,0.0,0.0,-1.6346,0.0,0.0,0.0,0.0,0.0,0.0,0.0,0.0,0.0,0.0,-1.4887,0.0,0.0,0.0,0.0,0.0,-1.3837,-1.4547,0.0,-1.5872,-1.6548,-1.7391,0.0,0.0,0.0,0.0,-1.8886,-1.9195,-1.9195,-1.827,-1.7513,-1.8367,-1.8687,-1.8966,-1.9854,0.0,0.0,0.0,0.0,-2.166,-2.21,-2.218,0.0,0.0,0.0,0.0,0.0,0.0,0.0,0.0,0.0,0.0,0.0,0.0,0.0,0.0,0.0,0.0,0.0,-3.6405,-3.6405,-3.6405,-3.6405,-3.6405,-3.6405,-3.581,-3.5271,-3.4775,-3.419,-3.3388,-3.2336,-3.2336,-3.2336,0.0,0.0,0.0,-3.3201,-3.3201,-3.2901,-3.2488,-3.3001,-3.2538,-3.1677,-3.2134,-3.2336,-3.2286,0.0,0.0,0.0,0.0,0.0,0.0,0.0,0.0,0.0,0.0,0.0,0.0,0.0,0.0,0.0,0.0,0.0,0.0,0.0,0.0,0.0,0.0,0.0,0.0,0.0,0.0,0.0,0.0,0.0,0.0,0.0,0.0,-1.697,0.0,0.0,0.0,0.0,0.0,0.0,0.0,-1.5029,0.0,0.0,0.0,0.0,0.0,0.0,0.0,0.0,-1.6166,-1.6985,-1.8198,-1.8359,0.0,0.0,0.0,0.0,0.0,-2.0644,-1.9559,-1.8598,-1.9381,-1.9569,-1.9844,-2.0741,0.0,0.0,0.0,0.0,0.0,0.0,0.0,0.0,0.0,0.0,0.0,0.0,0.0,0.0,0.0,0.0,0.0,0.0,0.0,0.0,0.0,0.0,0.0,0.0,-3.6279,-3.6317,-3.6405,-3.6263,-3.6203,-3.6405,-3.6405,-3.5966,-3.503,-3.503,-3.4385,-3.3201,-3.335,-3.335,-3.3201,0.0,0.0,-3.3697,-3.3499,-3.2889,-3.2185,-3.3089,-3.2689,-3.1728,-3.2639,-3.2851,-3.26,0.0,0.0,0.0,0.0,0.0,0.0,0.0,0.0,0.0,0.0,0.0,0.0,0.0,0.0,0.0,0.0,0.0,0.0,0.0,0.0,0.0,0.0,0.0,0.0,0.0,0.0,0.0,0.0,0.0,0.0,-1.6286,-1.6866,-1.7139,0.0,0.0,0.0,-1.5745,-1.6446,-1.6306,-1.571,-1.5569,0.0,0.0,0.0,0.0,0.0,0.0,0.0,0.0,-1.7158,-1.807,-1.9213,-1.9962,0.0,0.0,0.0,0.0,0.0,-2.0819,-2.0664,-2.0508,-2.0625,-2.0128,-1.9883,-2.0935,0.0,0.0,0.0,0.0,0.0,0.0,0.0,0.0,0.0,0.0,0.0,0.0,0.0,0.0,0.0,0.0,0.0,0.0,0.0,0.0,0.0,0.0,0.0,0.0,-3.5621,-3.5881,-3.6392,-3.5523,-3.5475,-3.6405,-3.6405,-3.631,-3.6156,-3.6156,-3.5126,-3.325,-3.4141,-3.4042,-3.3201,0.0,-3.4239,-3.581,-3.4921,-3.4483,-3.4325,-3.4483,-3.3327,-3.1626,-3.1779,-3.1289,-3.0443,0.0,0.0,0.0,0.0,0.0,0.0,0.0,0.0,0.0,0.0,0.0,0.0,0.0,0.0,0.0,0.0,0.0,0.0,0.0,0.0,0.0,0.0,0.0,0.0,0.0,0.0,0.0,0.0,0.0,-1.7131,-1.6817,-1.7496,-1.7783,-1.774,0.0,0.0,-1.6985,-1.7329,-1.726,-1.6906,0.0,0.0,0.0,0.0,0.0,0.0,0.0,0.0,0.0,0.0,-1.8992,-2.0089,-2.0489,0.0,0.0,0.0,0.0,0.0,-2.0867,-2.0984,-2.1089,-2.1205,-2.0915,-2.076,-2.1233,0.0,0.0,0.0,0.0,0.0,0.0,0.0,0.0,0.0,0.0,0.0,0.0,0.0,0.0,0.0,0.0,0.0,0.0,0.0,0.0,0.0,0.0,0.0,0.0,0.0,-3.5169,-3.5466,-3.4991,-3.4991,-3.5479,-3.5479,-3.5768,-3.6405,-3.581,-3.503,-3.4042,-3.3993,-3.3648,-3.3201,0.0,-3.3525,-3.441,-3.3909,-3.3377,-3.2878,-3.3028,-3.2134,-3.0701,-3.0446,-3.0065,-2.9591,0.0,0.0,0.0,0.0,0.0,0.0,0.0,0.0,0.0,0.0,0.0,0.0,0.0,0.0,0.0,0.0,0.0,0.0,0.0,0.0,0.0,0.0,0.0,0.0,0.0,0.0,-1.7803,-1.7151,-1.7511,-1.7598,-1.7424,-1.8045,-1.8337,0.0,0.0,0.0,-1.8008,-1.8008,-1.7906,-1.7691,0.0,0.0,0.0,0.0,0.0,0.0,0.0,0.0,0.0,0.0,0.0,0.0,0.0,0.0,0.0,-2.0654,-2.078,-2.0906,-2.1022,-2.1167,-2.132,-2.1512,-2.154,-2.1502,-2.154,0.0,0.0,0.0,0.0,0.0,0.0,0.0,0.0,0.0,0.0,0.0,0.0,0.0,0.0,0.0,0.0,0.0,0.0,0.0,0.0,0.0,0.0,0.0,0.0,0.0,-3.4587,-3.468,-3.4487,-3.4429,-3.468,-3.4429,-3.4807,-3.5675,-3.4845,-3.421,-3.3714,-3.3079,-3.2636,-3.2388,-3.2117,-3.2216,-3.2453,-3.2216,-3.1628,-3.0994,-3.1438,-3.0954,-3.0034,-2.9859,-2.9682,-2.9438,0.0,0.0,0.0,0.0,0.0,0.0,0.0,0.0,0.0,0.0,0.0,0.0,0.0,0.0,0.0,0.0,0.0,0.0,0.0,0.0,0.0,0.0,0.0,0.0,0.0,-1.8313,-1.8175,-1.7566,-1.7888,-1.8049,-1.8029,-1.8351,-1.8414,-1.8303,0.0,0.0,-1.8008,-1.8008,-1.7613,-1.6975,-1.6932,0.0,0.0,0.0,0.0,0.0,0.0,0.0,0.0,0.0,0.0,0.0,0.0,0.0,-2.0644,-2.0819,-2.0906,-2.0984,-2.1359,-2.1474,-2.154,-2.1731,-2.1655,0.0,-2.1731,-2.1807,0.0,-2.1807,0.0,0.0,0.0,0.0,0.0,0.0,0.0,0.0,0.0,0.0,0.0,0.0,0.0,0.0,0.0,0.0,0.0,0.0,0.0,0.0,0.0,0.0,0.0,-3.4655,-3.3741,-3.3695,-3.468,-3.3707,-3.3317,-3.354,-3.3448,-3.2394,-3.0562,-3.1216,-3.0987,-3.0046,-2.985,-3.0405,-3.1408,-3.0416,-3.0133,-3.0378,-3.1309,-3.1031,-3.0177,-3.1024,-3.0782,-3.0035,0.0,0.0,0.0,0.0,0.0,0.0,0.0,0.0,0.0,0.0,0.0,0.0,0.0,0.0,0.0,0.0,0.0,0.0,0.0,0.0,0.0,0.0,0.0,-1.8583,-1.8313,-1.8188,-1.8034,-1.7798,-1.8005,-1.8234,-1.852,-1.8435,0.0,0.0,0.0,0.0,-1.8008,-1.8008,-1.7828,-1.7579,-1.7579,-1.7407,0.0,0.0,0.0,0.0,0.0,0.0,0.0,0.0,-2.0333,-2.0605,-2.0741,-2.078,-2.0819,-2.1022,-2.1177,-2.132,-2.1474,-2.1578,-2.1693,-2.1769,-2.1731,0.0,0.0,-2.1807,-2.1807,0.0,0.0,0.0,0.0,0.0,0.0,0.0,0.0,0.0,0.0,0.0,0.0,0.0,0.0,0.0,0.0,0.0,0.0,0.0,0.0,0.0,0.0,0.0,0.0,-3.3696,-3.3319,-3.3275,-3.3696,-3.3319,-3.2528,-3.1386,-3.2461,-3.2582,-3.1805,-3.1244,-3.0823,-3.0398,-3.0193,-3.0328,-3.0752,-3.0328,-3.023,-3.0328,-3.0425,-3.0204,-2.978,-2.9429,-2.9418,-2.9541,0.0,0.0,0.0,0.0,0.0,0.0,0.0,0.0,0.0,0.0,0.0,0.0,0.0,0.0,0.0,0.0,0.0,0.0,0.0,0.0,0.0,0.0,0.0,-1.864,-1.8617,-1.8183,-1.8031,-1.8172,-1.8349,-1.8535,-1.8808,0.0,0.0,0.0,0.0,0.0,0.0,-1.8042,-1.8008,-1.8008,-1.8008,-1.8008,0.0,0.0,0.0,0.0,0.0,0.0,0.0,0.0,-2.0605,-2.0644,-2.0829,-2.0906,-2.0945,-2.1205,-2.1397,-2.1502,-2.1578,-2.1693,-2.1807,0.0,0.0,0.0,-2.1807,-2.1807,-2.1807,0.0,0.0,0.0,0.0,0.0,0.0,0.0,0.0,0.0,0.0,0.0,0.0,0.0,0.0,0.0,0.0,0.0,0.0,0.0,0.0,0.0,0.0,0.0,0.0,0.0,-3.2939,-3.3124,-3.3124,-3.3124,-3.2394,-3.0991,-3.2132,-3.2248,-3.1355,-3.0613,-3.0281,-3.0233,-2.9973,-2.9914,-2.9973,-2.9973,-3.0259,-3.0627,-3.0343,-3.0259,-3.0262,-2.9728,-2.957,-2.949,0.0,0.0,0.0,0.0,0.0,0.0,0.0,0.0,0.0,0.0,0.0,0.0,0.0,0.0,0.0,0.0,0.0,0.0,0.0,0.0,0.0,0.0,0.0,-1.8472,-1.8808,-1.8369,-1.8359,-1.8808,-1.8998,-1.9008,-1.8808,-1.8583,0.0,0.0,0.0,0.0,0.0,-1.8076,-1.8008,-1.8008,-1.8008,-1.8008,-1.8008,0.0,0.0,0.0,0.0,0.0,0.0,0.0,-2.0605,-2.0644,-2.0829,-2.0906,-2.0984,-2.1397,-2.1502,-2.154,-2.1731,-2.1807,0.0,0.0,0.0,0.0,0.0,-2.1807,-2.1807,0.0,0.0,0.0,0.0,0.0,0.0,0.0,0.0,0.0,0.0,0.0,0.0,0.0,0.0,0.0,0.0,0.0,0.0,0.0,0.0,0.0,0.0,0.0,0.0,0.0,-3.2556,-3.3056,-3.3068,-3.3068,-3.2939,-3.2667,-3.2475,-3.0982,-2.8441,-2.891,-2.913,-2.913,-2.8819,-2.8877,-2.9119,-2.9119,-2.9988,-3.1303,-3.1303,-3.1392,-3.1713,-3.2667,-3.1845,-3.017,0.0,0.0,0.0,0.0,0.0,0.0,0.0,0.0,0.0,0.0,0.0,0.0,0.0,0.0,0.0,0.0,0.0,0.0,0.0,0.0,0.0,0.0,0.0,0.0,0.0,0.0,-1.8709,-1.8524,-1.8787,-1.8875,0.0,0.0,0.0,-1.8482,0.0,0.0,-1.8303,-1.8076,-1.8008,-1.8008,-1.8008,-1.8008,-1.8008,0.0,0.0,0.0,0.0,0.0,0.0,0.0,0.0,0.0,-2.1012,-2.1099,-2.1167,-2.1578,-2.1693,-2.1731,-2.1769,0.0,0.0,0.0,0.0,0.0,0.0,0.0,0.0,0.0,0.0,0.0,0.0,0.0,0.0,0.0,0.0,0.0,0.0,0.0,0.0,0.0,0.0,0.0,0.0,0.0,0.0,0.0,0.0,0.0,0.0,0.0,0.0,-2.9624,-2.9926,-3.0233,-3.0557,-3.1084,-3.1089,-3.0678,-3.1649,-3.1717,-3.0904,-3.0181,-3.0272,-3.0869,-3.0125,-3.0215,-3.0925,-3.0925,-3.0869,-3.0678,-3.0238,-3.0181,-3.0237,-2.9349,-2.9084,-2.9037,0.0,0.0,0.0,0.0,0.0,0.0,0.0,0.0,0.0,0.0,0.0,0.0,0.0,0.0,0.0,0.0,0.0,0.0,0.0,0.0,0.0,0.0,0.0,0.0,0.0,-1.9008,-1.8963,0.0,0.0,0.0,0.0,0.0,0.0,-1.8617,0.0,-1.8303,0.0,-1.8076,-1.8008,-1.8008,-1.8008,-1.8008,-1.8008,0.0,0.0,0.0,0.0,0.0,0.0,0.0,0.0,0.0,-2.1089,0.0,-2.1397,-2.1693,-2.1807,-2.1807,-2.1807,0.0,0.0,0.0,0.0,0.0,0.0,0.0,0.0,0.0,0.0,0.0,0.0,0.0,0.0,0.0,0.0,0.0,0.0,0.0,0.0,0.0,0.0,0.0,0.0,0.0,0.0,0.0,0.0,0.0,0.0,0.0,-2.8772,-2.8772,-2.9114,-2.9266,-2.9233,-2.9907,-2.9886,-2.9116,-3.0291,-3.0608,-3.0182,-3.0592,-3.1149,-3.1661,-3.1059,-3.1149,-3.1705,-3.1705,-3.1472,-3.1059,-3.0668,-3.0644,-3.0711,-2.9681,-2.9406,-2.9486,0.0,0.0,0.0,0.0,0.0,0.0,0.0,0.0,0.0,0.0,0.0,0.0,0.0,0.0,0.0,0.0,0.0,0.0,0.0,0.0,0.0,0.0,0.0,0.0,0.0,0.0,0.0,0.0,0.0,0.0,0.0,0.0,-1.8808,-1.8774,0.0,-1.8337,0.0,-1.811,-1.8008,-1.8008,-1.8008,-1.8008,-1.8008,-1.8008,0.0,0.0,0.0,0.0,0.0,0.0,0.0,0.0,-2.1177,-2.1359,-2.154,-2.1731,-2.1807,-2.1807,0.0,0.0,0.0,0.0,0.0,0.0,0.0,0.0,0.0,0.0,0.0,0.0,0.0,0.0,0.0,0.0,0.0,0.0,0.0,0.0,0.0,0.0,0.0,0.0,0.0,0.0,0.0,0.0,0.0,0.0,0.0,-2.7871,-2.8302,-2.8302,-2.9209,-2.9305,-2.8574,-2.931,-2.9164,-2.8168,-2.8858,-2.8643,-2.7722,-3.022,-3.1436,-3.1572,-3.1661,-3.1705,-3.1705,-3.1705,-3.1805,-3.1994,-3.1906,-3.2025,-3.2257,-3.2169,-3.156,-3.0767,0.0,0.0,0.0,0.0,0.0,0.0,0.0,0.0,0.0,0.0,0.0,0.0,0.0,0.0,0.0,0.0,0.0,0.0,0.0,0.0,0.0,0.0,0.0,0.0,0.0,0.0,0.0,0.0,0.0,0.0,0.0,0.0,0.0,-1.8808,0.0,-1.8539,-1.8303,-1.8236,-1.8134,-1.8008,-1.8008,-1.8008,-1.8008,-1.8008,-1.8237,0.0,0.0,0.0,0.0,0.0,0.0,0.0,-2.132,-2.1474,-2.154,-2.1731,-2.1807,-2.1807,0.0,-2.1807,0.0,0.0,0.0,0.0,0.0,0.0,0.0,0.0,0.0,0.0,0.0,0.0,0.0,0.0,0.0,0.0,0.0,0.0,0.0,0.0,0.0,0.0,0.0,0.0,0.0,0.0,0.0,0.0,-2.6051,-2.5648,-2.5412,-2.5412,-2.6115,-2.6598,-2.6769,-2.8008,-2.868,0.0,-2.9555,-2.9767,-2.9482,-2.9077,-2.9477,-3.0588,-3.1383,-3.1705,-3.1705,-3.1705,-3.1805,-3.195,-3.1172,-3.1015,-3.1137,-3.0385,-2.9988,-2.9795,0.0,0.0,0.0,0.0,0.0,0.0,0.0,0.0,0.0,0.0,0.0,0.0,0.0,0.0,0.0,0.0,0.0,0.0,0.0,0.0,0.0,0.0,0.0,0.0,0.0,0.0,0.0,0.0,0.0,0.0,0.0,0.0,0.0,-1.864,0.0,-1.8573,-1.8168,-1.8269,-1.8178,-1.8008,-1.8008,-1.8008,-1.8008,-1.8008,-1.834,-1.8813,-1.901,0.0,0.0,0.0,0.0,0.0,0.0,0.0,-2.1655,-2.1769,-2.1807,-2.1807,0.0,0.0,0.0,0.0,0.0,0.0,0.0,0.0,0.0,0.0,0.0,0.0,0.0,0.0,0.0,0.0,0.0,0.0,0.0,0.0,0.0,0.0,0.0,0.0,0.0,0.0,0.0,0.0,0.0,-2.4861,-2.5746,-2.5295,-2.4978,-2.4978,-2.521,-2.5253,-2.5044,-2.6096,-2.6768,-2.698,-2.7702,-2.8417,-2.9075,-2.9054,-2.948,-3.0196,-3.0993,-3.1332,-3.1356,-3.1609,-3.1761,-3.1805,-3.1306,-3.1193,-3.1238,-3.0746,-3.0566,-3.0476,0.0,0.0,0.0,0.0,0.0,0.0,0.0,0.0,0.0,0.0,0.0,0.0,0.0,0.0,0.0,0.0,0.0,0.0,0.0,0.0,0.0,0.0,0.0,0.0,0.0,0.0,0.0,0.0,0.0,0.0,0.0,0.0,0.0,-1.8549,0.0,-1.8539,-1.8076,-1.8236,-1.8245,-1.8042,-1.8042,-1.8081,-1.8149,-1.8184,-1.8597,-1.9163,-1.9511,-2.0049,-2.0659,-2.1012,0.0,0.0,0.0,0.0,-2.1807,-2.1807,-2.1807,-2.1807,0.0,0.0,0.0,0.0,0.0,0.0,0.0,0.0,0.0,0.0,0.0,0.0,0.0,0.0,0.0,0.0,0.0,0.0,0.0,0.0,0.0,0.0,0.0,0.0,0.0,0.0,0.0,0.0,0.0,-2.4775,-2.5505,-2.5368,-2.5242,-2.52,-2.5094,-2.4681,-2.396,-2.4627,-2.4956,-2.4999,-2.5704,-2.6665,-2.79,-2.9231,-2.9917,-3.011,-3.0555,-3.0735,-3.0783,-3.1356,-3.1573,-3.1585,-3.1669,-3.1705,-3.1705,-3.1705,-3.1705,-3.1572,0.0,0.0,0.0,0.0,0.0,0.0,0.0,0.0,0.0,0.0,0.0,0.0,0.0,0.0,0.0,0.0,0.0,0.0,-1.8303,0.0,0.0,-1.9008,-1.9042,0.0,0.0,0.0,0.0,0.0,0.0,0.0,0.0,0.0,0.0,-1.8774,0.0,0.0,-1.8269,-1.8414,-1.8381,-1.8269,-1.8269,-1.8463,-1.879,-1.8984,-1.9218,-1.9561,-1.9791,-2.0195,-2.0646,-2.0846,-2.1196,0.0,0.0,0.0,-2.1807,-2.1807,-2.1807,-2.1807,0.0,0.0,0.0,0.0,0.0,0.0,0.0,0.0,0.0,0.0,0.0,0.0,0.0,0.0,0.0,0.0,0.0,0.0,0.0,0.0,0.0,0.0,0.0,0.0,0.0,0.0,0.0,0.0,-2.428,-2.4454,-2.4411,-2.4411,-2.4272,-2.4046,-2.4584,-2.4787,-2.4669,-2.5326,-2.5652,-2.5663,-2.6588,-2.7126,-2.7329,-2.8265,-2.922,-3.0086,-3.0158,-3.0194,-3.0242,-3.0814,-3.1019,-3.1067,-3.1524,-3.1705,-3.1705,-3.1705,-3.1705,-3.1572,0.0,0.0,0.0,0.0,0.0,0.0,0.0,0.0,0.0,0.0,0.0,0.0,0.0,0.0,0.0,-1.811,-1.8144,-1.8202,-1.8414,-1.8279,-1.8381,-1.8741,-1.8774,-1.8774,0.0,0.0,0.0,0.0,0.0,0.0,0.0,-1.9108,-1.9008,0.0,0.0,0.0,0.0,-1.8573,-1.8539,-1.8323,-1.8561,-1.8735,-1.8934,-1.9166,-1.9558,-1.9962,-2.0203,-2.0653,-2.1151,-2.1329,-2.1528,-2.1693,-2.1769,0.0,0.0,0.0,0.0,0.0,0.0,0.0,0.0,0.0,0.0,0.0,0.0,0.0,0.0,0.0,0.0,0.0,0.0,0.0,0.0,0.0,0.0,0.0,0.0,0.0,0.0,0.0,0.0,0.0,0.0,0.0,0.0,0.0,-2.367,-2.366,-2.3493,-2.3569,-2.3531,-2.3308,-2.3657,-2.3864,-2.3864,-2.4145,-2.4573,-2.5073,-2.5997,-2.667,-2.7226,-2.7603,-2.8307,-2.922,-2.952,-2.9641,-2.9689,-3.0218,-3.0434,-3.0494,-3.1055,-3.1259,-3.1308,-3.1597,-3.1705,-3.1572,0.0,0.0,0.0,0.0,0.0,0.0,0.0,0.0,0.0,0.0,0.0,0.0,0.0,0.0,0.0,0.0,-1.8008,-1.8144,-1.8414,-1.8212,-1.8212,-1.8482,-1.8549,-1.8583,-1.8583,0.0,0.0,0.0,0.0,0.0,-1.9108,-1.9108,-1.9008,0.0,-1.9031,0.0,0.0,0.0,0.0,0.0,-1.8854,-1.9088,-1.9245,-1.9508,-1.994,-2.0419,-2.0675,-2.1085,-2.1502,-2.1655,-2.1769,-2.1807,-2.1807,-2.1807,0.0,0.0,0.0,0.0,0.0,0.0,0.0,0.0,0.0,0.0,0.0,0.0,0.0,0.0,0.0,0.0,0.0,0.0,0.0,0.0,0.0,0.0,0.0,0.0,0.0,0.0,0.0,0.0,0.0,0.0,0.0,0.0,-2.3081,-2.3032,-2.2819,-2.2886,-2.2858,-2.2658,-2.2742,-2.2828,-2.2935,-2.3042,-2.343,-2.4155,-2.5031,-2.583,-2.6505,-2.6753,-2.7214,-2.7857,-2.8717,-2.91,-2.9136,-2.9677,-2.9893,-2.9941,-3.0513,-3.0718,-3.0735,-3.1308,-3.1512,-3.1392,0.0,0.0,0.0,0.0,0.0,0.0,0.0,0.0,0.0,0.0,0.0,0.0,-1.8008,-1.8008,-1.8008,-1.8008,-1.8008,-1.8076,-1.8303,-1.8303,-1.8347,-1.8482,-1.8674,0.0,-1.8774,0.0,0.0,0.0,0.0,0.0,-1.9108,-1.9108,-1.9098,-1.9065,-1.9108,-1.8975,-1.8774,0.0,0.0,0.0,0.0,-1.9583,-2.0135,-2.0342,-2.0594,0.0,0.0,0.0,-2.1502,-2.1502,-2.1655,-2.1807,-2.1807,-2.1807,-2.1807,0.0,0.0,0.0,0.0,0.0,0.0,0.0,0.0,0.0,0.0,0.0,0.0,0.0,0.0,0.0,0.0,0.0,0.0,0.0,0.0,0.0,0.0,0.0,0.0,0.0,0.0,0.0,0.0,0.0,0.0,0.0,-2.2785,-2.2778,-2.2523,-2.2348,-2.2162,-2.1955,-2.1943,-2.2139,-2.2539,-2.2896,-2.3135,-2.3178,-2.4112,-2.4584,-2.4669,-2.5495,-2.5913,-2.6027,-2.7777,-2.8546,-2.8595,-2.9124,-2.934,-2.9388,-2.9917,-3.0122,-3.0194,-3.0766,-3.0958,-3.0845,0.0,0.0,0.0,0.0,0.0,0.0,0.0,0.0,0.0,0.0,0.0,0.0,0.0,-1.8076,-1.8042,-1.8178,-1.8076,-1.8076,-1.8303,-1.8178,-1.8212,-1.8482,-1.8583,-1.8684,-1.8808,0.0,0.0,0.0,0.0,-1.9108,-1.9108,-1.9108,-1.9108,-1.9108,-1.9108,-1.9008,-1.8828,-1.925,0.0,0.0,0.0,0.0,0.0,0.0,0.0,0.0,0.0,0.0,0.0,-2.1397,-2.154,-2.1617,-2.1769,-2.1807,-2.1807,0.0,0.0,0.0,0.0,0.0,0.0,0.0,0.0,0.0,0.0,0.0,0.0,0.0,0.0,0.0,0.0,0.0,0.0,0.0,0.0,0.0,0.0,0.0,0.0,0.0,0.0,0.0,0.0,0.0,0.0,0.0,0.0,-2.2031,-2.1678,-2.182,-2.1779,-2.1465,-2.1738,-2.1963,-2.2109,-2.2529,-2.2691,-2.2744,-2.3301,-2.3897,-2.4498,-2.4829,-2.5284,-2.583,-2.6494,-2.7133,-2.7696,-2.7883,-2.7953,-2.8041,-2.9159,-2.9237,-2.8825,-2.934,-2.9527,-2.9467,0.0,0.0,0.0,0.0,0.0,0.0,0.0,0.0,0.0,0.0,0.0,0.0,0.0,0.0,-1.7919,-1.8192,-1.8076,-1.8076,-1.8303,-1.8168,-1.8212,-1.8482,-1.8549,-1.864,-1.8808,0.0,0.0,0.0,0.0,0.0,0.0,-1.9108,-1.9065,-1.9008,-1.9075,-1.9042,0.0,0.0,0.0,-1.9777,0.0,0.0,-2.0641,0.0,0.0,0.0,0.0,0.0,0.0,0.0,0.0,0.0,0.0,0.0,0.0,0.0,0.0,0.0,0.0,0.0,0.0,0.0,0.0,0.0,0.0,0.0,0.0,0.0,0.0,0.0,0.0,0.0,0.0,0.0,0.0,0.0,0.0,0.0,0.0,0.0,0.0,0.0,0.0,0.0,0.0,0.0,0.0,0.0,-2.1138,-2.1281,-2.1273,-2.1006,-2.1435,-2.167,-2.167,-2.209,-2.2373,-2.2519,-2.275,-2.3301,-2.4026,-2.4026,-2.436,-2.4893,-2.4893,-2.5788,-2.7185,-2.6846,-2.7092,-2.7667,-2.8005,-2.7969,-2.7736,-2.7975,-2.8071,-2.8053,0.0,0.0,0.0,0.0,0.0,0.0,0.0,0.0,0.0,-1.7988,0.0,0.0,0.0,0.0,0.0,-1.7978,-1.8008,-1.8076,-1.8303,-1.8303,-1.8381,-1.8516,-1.8717,-1.8808,-1.8808,0.0,0.0,0.0,0.0,0.0,0.0,0.0,-1.9008,-1.8808,-1.9008,-1.9108,-1.9116,0.0,-1.9757,-2.017,0.0,-2.0671,-2.0906,0.0,0.0,0.0,-2.0605,-2.0731,0.0,0.0,0.0,0.0,0.0,0.0,0.0,0.0,0.0,0.0,0.0,0.0,0.0,0.0,0.0,0.0,0.0,0.0,0.0,0.0,0.0,0.0,0.0,0.0,0.0,0.0,0.0,0.0,0.0,0.0,0.0,0.0,0.0,0.0,0.0,0.0,0.0,0.0,-2.132,-2.1099,-2.0906,-2.0693,-2.0605,-2.0605,-2.0986,-2.1171,-2.1171,-2.165,-2.207,-2.248,-2.249,-2.2672,-2.3081,-2.3081,-2.3081,-2.3091,-2.3091,-2.4616,-2.7051,-2.6121,-2.6794,-2.8219,-2.6494,-2.6329,-2.7067,-2.6694,-2.6561,-2.6626,0.0,0.0,0.0,0.0,0.0,0.0,0.0,0.0,0.0,0.0,0.0,0.0,-1.7745,-1.8002,-1.8218,-1.8226,-1.8212,-1.8269,-1.8438,-1.8448,-1.8516,-1.8707,-1.8774,-1.8875,-1.9008,0.0,0.0,0.0,0.0,0.0,0.0,0.0,0.0,0.0,-1.8808,-1.9059,-1.9431,-1.9943,0.0,0.0,-2.1135,-2.1171,0.0,0.0,0.0,0.0,0.0,-2.0644,0.0,0.0,-2.0945,-2.1022,0.0,0.0,0.0,0.0,0.0,0.0,-2.1128,0.0,0.0,0.0,0.0,0.0,0.0,0.0,0.0,0.0,0.0,0.0,0.0,0.0,0.0,0.0,0.0,0.0,0.0,0.0,0.0,0.0,0.0,0.0,0.0,0.0,0.0,0.0,-2.1244,-2.1099,-2.0906,-2.0693,-2.0605,-2.0605,-2.0723,-2.0752,-2.0752,-2.1191,-2.1434,-2.1551,-2.1904,-2.2275,-2.2685,-2.2685,-2.2808,-2.3091,-2.3091,-2.3897,-2.5253,-2.4956,-2.5158,-2.5621,-2.5746,-2.5579,-2.5263,-2.5264,-2.5317,-2.5252,0.0,0.0,0.0,0.0,0.0,0.0,0.0,0.0,0.0,0.0,0.0,0.0,-1.7683,-1.7975,-1.8205,-1.8361,-1.8371,-1.8448,-1.8607,-1.8617,-1.8707,-1.8908,-1.8942,-1.8975,-1.9108,0.0,0.0,0.0,0.0,0.0,0.0,0.0,0.0,0.0,0.0,0.0,0.0,0.0,0.0,0.0,-2.128,0.0,0.0,-2.0896,-2.0693,0.0,0.0,0.0,-2.0605,-2.0731,-2.078,0.0,0.0,0.0,0.0,0.0,0.0,0.0,0.0,0.0,0.0,0.0,0.0,0.0,-2.0685,-2.0685,0.0,0.0,0.0,0.0,0.0,0.0,0.0,0.0,0.0,0.0,0.0,0.0,0.0,0.0,0.0,0.0,0.0,-2.132,-2.1244,-2.1099,-2.1051,-2.0974,-2.078,-2.0654,-2.0605,-2.0605,-2.0605,-2.0605,-2.0605,-2.083,-2.1045,-2.12,-2.1494,-2.1836,-2.2256,-2.2432,-2.2646,-2.2847,-2.3023,-2.3396,-2.3907,-2.3907,-2.436,-2.5073,-2.52,-2.4956,-2.4456,-2.4198,-2.4069,-2.4067,0.0,0.0,0.0,0.0,0.0,0.0,0.0,0.0,0.0,0.0,-1.6531,-1.6474,-1.757,-1.7717,-1.7942,-1.8486,-1.8516,-1.8617,-1.8808,-1.8841,-1.8908,-1.9108,-1.9108,-1.9108,-1.9108,-1.9108,0.0,0.0,0.0,0.0,0.0,0.0,0.0,0.0,0.0,0.0,0.0,0.0,0.0,-2.1116,-2.1197,-2.1167,0.0,0.0,-2.0605,0.0,-2.0605,-2.0605,-2.0605,-2.0605,-2.0605,0.0,0.0,0.0,0.0,0.0,-2.1128,0.0,0.0,0.0,0.0,0.0,0.0,0.0,-1.9666,-1.9731,-1.9838,0.0,0.0,0.0,0.0,0.0,0.0,0.0,0.0,0.0,0.0,0.0,0.0,0.0,0.0,0.0,-2.1425,-2.1387,-2.1233,-2.0906,-2.0867,-2.078,-2.0605,-2.0605,-2.0605,-2.0605,-2.0605,-2.0605,-2.0605,-2.0605,-2.0762,-2.1122,-2.1122,-2.1396,-2.1826,-2.2197,-2.2422,-2.2539,-2.2867,-2.3052,-2.3091,-2.3222,-2.4145,-2.54,-2.4659,-2.4327,-2.4241,-2.344,-2.3144,-2.3144,-1.2032,0.0,0.0,0.0,0.0,0.0,0.0,0.0,0.0,-1.6039,-1.6922,-1.77,-1.8268,-1.8475,-1.8616,-1.8741,-1.8741,-1.8841,-1.9042,-1.9042,-1.9075,-1.9108,-1.9108,-1.9108,-1.9108,-1.9108,0.0,0.0,0.0,0.0,0.0,0.0,0.0,0.0,0.0,0.0,0.0,0.0,0.0,-2.1189,-2.1203,0.0,-2.0945,-2.0683,-2.0605,-2.0605,-2.0605,-2.0605,-2.0605,0.0,-2.0693,-2.0819,0.0,0.0,0.0,0.0,0.0,0.0,0.0,0.0,0.0,0.0,0.0,0.0,-1.9587,-1.9524,-1.9507,0.0,0.0,0.0,0.0,0.0,0.0,0.0,0.0,0.0,0.0,0.0,0.0,0.0,0.0,0.0,-2.076,-2.076,-2.0722,-2.0654,-2.0654,-2.0644,-2.0605,-2.0605,-2.0605,-2.0605,-2.0605,-2.0605,-2.0605,-2.0605,-2.0644,-2.0732,-2.0732,-2.0928,-2.1327,-2.1405,-2.1824,-2.2519,-2.2598,-2.2779,-2.3178,-2.4069,-2.4155,-2.3604,-2.343,-2.3387,-2.3396,-2.3406,-2.3416,-2.3416,-1.1967,0.0,0.0,0.0,0.0,0.0,0.0,0.0,0.0,-1.6044,-1.736,-1.8321,-1.862,-1.8741,-1.8841,-1.8942,-1.8942,-1.9008,-1.9098,-1.9108,-1.9108,-1.9108,-1.9108,-1.9108,-1.9108,-1.9108,-1.9108,0.0,0.0,0.0,0.0,0.0,0.0,0.0,0.0,0.0,0.0,0.0,-2.0793,-2.1061,-2.1061,0.0,-2.0867,-2.0693,-2.0605,-2.0605,-2.0605,-2.0605,-2.0605,-2.0605,-2.0654,0.0,0.0,-2.0654,-2.0731,0.0,-2.0605,-2.0605,0.0,0.0,0.0,-1.9648,0.0,0.0,0.0,-1.873,-1.8726,-1.8891,0.0,0.0,0.0,0.0,0.0,0.0,0.0,0.0,0.0,0.0,0.0,0.0,0.0,0.0,-2.033,-2.0748,-2.0964,-2.077,-2.0654,-2.0605,-2.0605,-2.0605,-2.0605,-2.0605,-2.0605,-2.0605,-2.0605,-2.0605,-2.0605,-2.0605,-2.0605,-2.0723,-2.0908,-2.1093,-2.1424,-2.1894,-2.2324,-2.2627,-2.2885,-2.3783,-2.3831,-2.3363,-2.3917,-2.3874,-2.3493,-2.358,-2.3667,-2.3634,-1.2098,0.0,0.0,0.0,0.0,0.0,0.0,0.0,0.0,-1.6574,-1.7639,-1.8438,-1.8774,0.0,0.0,0.0,-1.8654,-1.8654,0.0,0.0,0.0,-1.9098,-1.9108,-1.9108,-1.9108,-1.9108,-1.9108,-1.9108,0.0,0.0,0.0,0.0,0.0,0.0,0.0,0.0,0.0,0.0,0.0,-2.0829,0.0,-2.0829,-2.0819,-2.0654,-2.0605,-2.0605,-2.0605,-2.0605,-2.0605,-2.0605,0.0,-2.0605,-2.0605,-2.0605,0.0,0.0,0.0,0.0,0.0,0.0,0.0,0.0,0.0,-1.8411,0.0,0.0,0.0,-1.798,0.0,0.0,0.0,0.0,0.0,0.0,0.0,0.0,0.0,0.0,0.0,0.0,0.0,0.0,0.0,-2.0376,-2.0864,-2.0615,-2.0615,-2.0605,-2.0605,-2.0605,-2.0605,-2.0605,-2.0605,-2.0605,-2.0605,-2.0605,-2.0605,-2.0605,-2.0644,-2.0654,-2.0664,-2.1026,-2.1232,-2.135,-2.2046,-2.248,-2.2667,-2.3269,-2.3554,-2.3721,-2.4605,-2.4476,-2.3797,-2.3797,-2.3797,-2.3797,-1.2434,-1.2463,0.0,0.0,0.0,0.0,0.0,0.0,0.0,-1.7334,-1.7531,0.0,0.0,0.0,0.0,0.0,0.0,0.0,-1.7808,0.0,0.0,-1.9065,-1.9108,-1.9108,-1.9108,-1.9108,-1.9108,-1.9108,0.0,0.0,0.0,0.0,0.0,0.0,-1.8266,0.0,0.0,0.0,-2.008,0.0,-2.0644,-2.0644,0.0,-2.0605,-2.0605,-2.0605,-2.0605,-2.0605,-2.0605,0.0,-2.0605,-2.0605,0.0,-2.0605,0.0,0.0,0.0,0.0,0.0,0.0,0.0,0.0,-1.8682,0.0,0.0,0.0,-1.7993,-1.8007,0.0,0.0,0.0,0.0,0.0,0.0,0.0,0.0,0.0,0.0,0.0,0.0,0.0,0.0,0.0,-1.839,-1.9226,-1.9471,-2.0167,-2.0605,-2.0605,-2.0605,-2.0605,-2.0605,-2.0605,-2.0605,-2.0605,-2.0605,-2.0605,-2.0605,-2.078,-2.0867,-2.0867,-2.1111,-2.138,-2.174,-2.184,-2.234,-2.3155,-2.3416,-2.3754,-2.412,-2.4013,-2.3884,-2.3797,-2.3797,-2.3797,-2.3797,-1.2497,-1.2485,0.0,0.0,0.0,0.0,0.0,0.0,0.0,-1.7345,-1.7774,0.0,0.0,0.0,0.0,0.0,0.0,-1.7173,0.0,0.0,0.0,0.0,0.0,0.0,-1.9108,-1.9108,-1.8942,-1.864,-1.8841,0.0,0.0,0.0,0.0,0.0,-1.819,0.0,-1.8929,0.0,0.0,0.0,0.0,0.0,0.0,-2.0605,-2.0605,-2.0605,-2.0605,-2.0605,-2.0605,0.0,-2.0605,0.0,0.0,0.0,0.0,0.0,0.0,0.0,0.0,0.0,0.0,0.0,0.0,0.0,0.0,0.0,-1.8008,0.0,0.0,0.0,0.0,0.0,0.0,0.0,0.0,0.0,0.0,0.0,0.0,0.0,0.0,0.0,0.0,0.0,0.0,0.0,-1.9649,-2.0101,-1.9844,-2.0333,-2.0605,-2.0605,-2.0605,-2.0605,-2.0605,-2.0605,-2.0605,-2.0605,-2.0693,-2.0731,-2.0731,-2.0935,-2.1112,-2.1301,-2.1669,-2.203,-2.2462,-2.3184,-2.3635,-2.3829,-2.4094,-2.4196,-2.4196,-2.4196,-2.4196,-2.4196,-1.2773,0.0,0.0,0.0,0.0,0.0,0.0,0.0,0.0,0.0,0.0,0.0,-1.8056,-1.7867,0.0,0.0,0.0,-1.6498,0.0,0.0,-1.7628,0.0,0.0,0.0,0.0,-1.863,-1.8563,-1.8202,-1.8361,0.0,0.0,0.0,0.0,0.0,0.0,-1.8218,-1.8638,0.0,0.0,-1.9341,-1.9971,-2.0245,-2.0284,-2.0527,-2.0605,-2.0605,-2.0605,-2.0605,-2.0605,-2.0605,-2.0605,0.0,-2.0605,0.0,0.0,0.0,0.0,0.0,-2.0605,0.0,0.0,0.0,0.0,0.0,0.0,0.0,0.0,0.0,0.0,0.0,0.0,0.0,0.0,0.0,0.0,0.0,0.0,0.0,0.0,0.0,0.0,0.0,0.0,0.0,0.0,-1.8029,-1.891,-1.9241,-1.8825,-1.9635,-2.0168,-2.0245,-2.0489,-2.0605,-2.0605,-2.0605,-2.0605,-2.0605,-2.0654,-2.0693,-2.0693,-2.0896,-2.0984,-2.1003,-2.1498,-2.1788,-2.1989,-2.2849,-2.3381,-2.3647,-2.4145,-2.4394,-2.4497,-2.4497,-2.4497,-2.4497,-1.347,-1.3462,0.0,0.0,0.0,0.0,0.0,0.0,0.0,0.0,0.0,0.0,0.0,0.0,0.0,0.0,0.0,-1.4021,-1.4939,0.0,-1.6376,0.0,0.0,0.0,0.0,0.0,-1.7818,-1.8008,-1.7628,0.0,0.0,0.0,0.0,0.0,0.0,-1.8218,-1.8638,-1.9088,-1.9301,-1.9301,-1.9341,-1.9341,-1.942,0.0,-2.0605,-2.0605,-2.0605,0.0,0.0,-2.0605,-2.0605,0.0,0.0,0.0,0.0,0.0,0.0,0.0,0.0,0.0,0.0,-1.9394,0.0,0.0,0.0,0.0,-1.8008,0.0,0.0,0.0,0.0,0.0,0.0,-1.4183,0.0,0.0,0.0,0.0,0.0,0.0,0.0,0.0,0.0,0.0,0.0,-1.6989,-1.7774,-1.8058,-1.7588,-1.8389,-1.9005,-1.9323,-2.0167,-2.0605,-2.0605,-2.0605,-2.0605,-2.0605,-2.0819,-2.0906,-2.0906,-2.1099,-2.1167,-2.1205,-2.1407,-2.1778,-2.2186,-2.2453,-2.307,-2.3877,-2.3898,-2.4167,-2.4497,-2.4497,-2.4497,-2.4497,0.0,0.0,0.0,0.0,0.0,0.0,0.0,-1.5125,0.0,0.0,0.0,0.0,0.0,0.0,-1.5525,0.0,0.0,-1.4402,-1.4867,-1.5781,0.0,0.0,0.0,-1.7662,0.0,0.0,-1.662,-1.6341,-1.6932,0.0,0.0,0.0,0.0,0.0,0.0,-1.7746,0.0,0.0,0.0,0.0,0.0,-1.9301,-1.9381,0.0,0.0,-2.0605,-2.0605,-2.0605,0.0,-2.0605,-2.0605,-2.0605,-2.0605,-2.0605,-2.0605,-2.0605,-2.0206,0.0,0.0,0.0,-1.8596,-1.8462,0.0,0.0,0.0,0.0,0.0,0.0,0.0,0.0,0.0,0.0,-1.3839,-1.3726,-1.3592,0.0,0.0,0.0,0.0,0.0,0.0,0.0,0.0,0.0,0.0,-1.5367,-1.636,-1.681,-1.6341,-1.7334,-1.8279,-1.8937,-1.9478,-2.001,-2.0605,-2.0605,-2.0605,-2.0605,-2.0654,-2.0693,-2.0693,-2.1051,-2.1205,-2.1205,-2.154,-2.1786,-2.195,-2.2327,-2.2677,-2.3029,-2.3639,-2.3971,-2.4136,-2.4394,-2.4497,-2.4497,-1.3346,0.0,0.0,0.0,0.0,0.0,0.0,0.0,0.0,0.0,-1.5046,0.0,-1.5469,0.0,-1.5635,0.0,-1.4843,-1.4733,-1.5166,-1.5696,0.0,-1.5951,-1.6762,0.0,0.0,0.0,0.0,-1.5401,-1.5948,-1.6158,0.0,0.0,0.0,0.0,0.0,0.0,0.0,0.0,-1.7513,0.0,0.0,-1.8647,0.0,0.0,-2.004,-2.0605,0.0,-2.0605,-2.0605,-2.0605,-2.0605,-2.0566,-2.0255,-2.0128,-2.0089,-1.9766,-1.9292,-1.8856,-1.8856,-1.8447,0.0,-1.7663,-1.7617,0.0,-1.7239,0.0,0.0,0.0,0.0,0.0,0.0,0.0,0.0,-1.3492,-1.3492,-1.3492,0.0,-1.3492,0.0,0.0,0.0,0.0,0.0,0.0,-1.5662,-1.4605,-1.5308,-1.5573,0.0,0.0,-1.7642,-1.8332,-1.9277,-2.001,-2.0605,-2.0605,-2.0605,-2.0605,-2.0605,-2.0605,-2.0605,-2.0935,-2.1089,-2.1138,-2.1512,-2.1693,-2.1714,-2.209,-2.2346,-2.2553,-2.3153,-2.3546,-2.3835,-2.4332,-2.4497,-2.4497,0.0,0.0,0.0,0.0,-1.3811,0.0,0.0,0.0,-1.4425,0.0,-1.4856,-1.5425,-1.5356,-1.5359,-1.5495,-1.5795,-1.4995,0.0,-1.5604,-1.5498,0.0,0.0,-1.5914,-1.5594,-1.4124,0.0,0.0,0.0,-1.4752,-1.4958,0.0,0.0,0.0,0.0,-1.675,0.0,-1.619,-1.7435,-1.7423,-1.6698,-1.7594,-1.7432,-1.678,-1.7674,-1.9045,-2.0479,-2.0527,-2.0527,-2.0527,-2.0527,-2.0527,-2.0323,-1.9499,-1.9222,-1.9054,-1.8238,-1.7957,-1.7957,-1.7957,-1.7917,-1.7698,-1.7026,0.0,0.0,0.0,0.0,-1.564,0.0,0.0,0.0,0.0,0.0,0.0,-1.3492,-1.3492,-1.3492,-1.3492,0.0,0.0,0.0,0.0,0.0,0.0,-1.5604,-1.5357,-1.4601,-1.4565,0.0,0.0,0.0,-1.7042,-1.7467,-1.9395,-2.0498,-2.0605,-2.0605,-2.0605,-2.0605,-2.0605,-2.0605,-2.0644,-2.0858,-2.0945,-2.0945,-2.1359,-2.1502,-2.154,-2.1731,-2.2066,-2.247,-2.249,-2.2939,-2.3616,-2.4246,-2.4497,-2.4497,-1.3309,-1.3492,-1.3492,0.0,-1.3601,-1.3637,0.0,0.0,0.0,0.0,-1.426,-1.4456,-1.472,-1.4719,-1.4757,-1.4839,-1.4621,0.0,0.0,0.0,0.0,-1.4727,-1.5317,-1.5117,-1.4037,-1.3902,0.0,-1.3956,-1.4366,0.0,-1.4887,0.0,0.0,0.0,0.0,0.0,-1.531,-1.6515,-1.6542,-1.5824,-1.6665,-1.6903,0.0,0.0,-1.8278,-1.8758,-1.9411,-1.9618,-1.9618,-1.9618,-1.9204,-1.8638,-1.8399,-1.8327,-1.8287,-1.8078,-1.7553,-1.7025,-1.7025,-1.655,-1.6067,-1.5957,-1.5926,-1.5891,0.0,0.0,0.0,0.0,0.0,0.0,0.0,0.0,0.0,0.0,0.0,0.0,0.0,0.0,0.0,-1.3492,0.0,0.0,-1.4093,-1.4545,-1.4573,-1.3848,-1.4057,0.0,0.0,0.0,0.0,-1.7071,-1.7875,-1.9049,-2.0595,-2.0605,-2.0693,-2.0819,-2.0819,-2.0896,-2.1041,-2.1244,-2.1359,-2.1359,-2.1617,-2.1731,-2.1731,-2.1769,-2.188,-2.2014,-2.2366,-2.3019,-2.3846,-2.4161,-2.4378,-2.4497,-1.2936,0.0,0.0,-1.3682,0.0,0.0,-1.3704,0.0,0.0,-1.415,-1.4232,0.0,-1.464,-1.4677,-1.4735,-1.4874,-1.4889,0.0,0.0,0.0,0.0,-1.5247,-1.5073,-1.4683,-1.402,-1.3806,0.0,-1.3492,0.0,0.0,-1.4122,0.0,0.0,0.0,0.0,-1.5444,0.0,-1.5743,-1.5865,-1.5431,-1.594,0.0,0.0,-1.6673,-1.7115,-1.7513,-1.7997,-1.8407,-1.8727,-1.8727,-1.8407,-1.7917,-1.7553,-1.7423,-1.735,-1.6992,-1.6509,-1.6147,-1.6147,-1.5782,-1.5352,-1.5154,-1.5103,-1.5034,-1.482,-1.441,-1.4122,0.0,0.0,0.0,0.0,0.0,0.0,0.0,0.0,0.0,0.0,0.0,0.0,0.0,-1.371,0.0,-1.3528,-1.4165,-1.4302,-1.3564,0.0,0.0,0.0,0.0,0.0,-1.6388,-1.7572,-1.8793,-2.001,-2.0489,-2.0731,-2.078,-2.078,-2.0858,-2.1099,-2.1282,-2.1436,-2.1502,-2.1693,-2.1807,-2.1807,-2.1807,-2.1807,-2.1811,-2.2198,-2.2855,-2.3629,-2.3832,-2.4161,-2.4497,0.0,0.0,0.0,0.0,0.0,0.0,0.0,-1.407,0.0,-1.4526,0.0,-1.4655,-1.4929,-1.4966,-1.5082,-1.536,0.0,-1.5707,-1.6501,-1.5553,-1.5315,-1.6046,-1.5119,-1.4438,-1.4114,-1.407,0.0,0.0,0.0,0.0,-1.3492,0.0,0.0,0.0,0.0,0.0,0.0,-1.5196,-1.5389,-1.5389,-1.5389,-1.5389,-1.5389,-1.5389,-1.5865,-1.6535,-1.6535,-1.7107,-1.7836,-1.7836,-1.7755,-1.7513,-1.678,-1.6535,-1.6378,-1.5624,-1.5389,-1.5389,-1.5389,-1.5389,-1.5277,-1.4665,-1.4511,-1.4335,-1.3645,-1.3492,-1.3492,-1.3492,-1.3492,-1.3492,0.0,0.0,0.0,0.0,0.0,0.0,0.0,0.0,0.0,0.0,0.0,0.0,-1.3564,-1.4101,-1.4173,0.0,0.0,0.0,0.0,0.0,0.0,-1.5715,-1.7799,-1.9028,-1.9258,0.0,-2.0819,-2.0722,-2.0683,-2.0809,-2.1022,-2.1205,-2.1349,-2.154,-2.1731,-2.1807,-2.1807,-2.1807,-2.1807,-2.1811,-2.207,-2.253,-2.3123,-2.338,-2.3852,-2.4329,0.0,0.0,0.0,0.0,0.0,-1.4472,-1.4696,-1.4553,-1.4501,-1.4776,-1.482,-1.4944,-1.5265,-1.5301,-1.533,-1.5382,-1.5389,0.0,0.0,0.0,0.0,-1.5542,-1.5069,-1.4791,-1.4732,-1.4516,-1.4262,0.0,-1.3894,-1.3762,-1.3492,0.0,0.0,0.0,0.0,0.0,-1.527,-1.5338,0.0,-1.5389,-1.5389,-1.5389,-1.5389,-1.5389,-1.5506,-1.5631,-1.5631,-1.618,-1.6935,-1.6935,-1.6468,-1.5831,-1.5673,-1.5631,-1.5582,-1.5431,-1.5389,-1.5389,-1.5389,-1.5389,-1.5277,-1.4665,-1.4511,-1.4335,-1.3645,-1.3492,-1.3492,-1.3492,-1.3492,-1.3492,-1.3492,0.0,0.0,0.0,0.0,0.0,0.0,0.0,0.0,0.0,0.0,0.0,0.0,0.0,0.0,0.0,0.0,0.0,0.0,0.0,0.0,0.0,-1.7118,0.0,0.0,0.0,-2.0876,-2.1349,-2.1156,-2.1282,-2.1655,-2.1693,-2.1693,-2.1769,-2.1769,-2.1807,-2.1807,-2.1807,-2.1807,-2.1849,-2.2276,-2.2434,-2.248,-2.3227,-2.3448,-2.3527,0.0,0.0,0.0,0.0,0.0,0.0,0.0,-1.5065,0.0,-1.5133,-1.5155,-1.5214,-1.5374,-1.5389,-1.5389,-1.5389,-1.5389,-1.5389,-1.5389,-1.5389,-1.5389,-1.5389,-1.5236,0.0,-1.4907,-1.4754,-1.456,-1.4269,-1.41,-1.3901,-1.374,0.0,0.0,0.0,0.0,-1.4977,0.0,0.0,0.0,-1.5389,-1.5389,-1.5389,-1.5389,-1.5389,-1.5389,-1.5389,-1.5389,-1.5665,-1.6023,-1.6023,-1.5748,-1.5389,-1.5389,-1.5389,-1.5389,-1.5389,-1.5389,-1.5389,-1.5389,-1.5389,-1.5272,-1.4831,-1.4589,-1.4379,-1.3857,-1.3616,-1.3492,-1.3492,-1.3492,-1.3492,-1.3492,-1.3492,0.0,0.0,0.0,0.0,0.0,0.0,0.0,0.0,0.0,0.0,0.0,0.0,0.0,0.0,0.0,0.0,0.0,0.0,0.0,0.0,0.0,0.0,0.0,0.0,0.0,-2.1167,-2.1089,-2.1244,-2.1655,-2.1655,-2.1693,-2.1807,-2.1807,-2.1807,-2.1807,-2.1807,-2.1807,-2.1828,-2.194,-2.2128,-2.2426,-2.2849,-2.3152,-2.3416,0.0,-1.3353,0.0,0.0,-1.4792,0.0,-1.5345,-1.5389,-1.5389,-1.5389,-1.5389,-1.5389,-1.5389,-1.5389,-1.5389,-1.5389,-1.5389,-1.5389,-1.5389,-1.5389,-1.5389,-1.5389,-1.5389,-1.5265,-1.5009,-1.5009,-1.4889,0.0,-1.4311,-1.4121,-1.402,-1.3792,0.0,0.0,0.0,0.0,0.0,0.0,-1.5389,-1.5389,-1.5389,-1.5389,-1.5389,-1.5389,-1.5389,-1.5389,-1.5389,-1.5389,-1.5389,-1.5389,-1.5389,-1.5389,-1.5389,-1.5389,-1.5389,-1.5389,-1.5389,-1.5389,-1.5389,-1.5389,-1.5309,-1.498,-1.475,-1.4465,-1.407,-1.3784,-1.3579,-1.3514,-1.3492,-1.3492,-1.3492,-1.3492,0.0,0.0,0.0,0.0,0.0,0.0,0.0,0.0,0.0,0.0,0.0,0.0,0.0,0.0,0.0,0.0,0.0,0.0,0.0,0.0,0.0,-1.6928,-1.7767,0.0,-2.001,-2.0945,-2.0945,-2.1167,-2.1502,-2.154,-2.1655,-2.1807,-2.1807,-2.1807,-2.1807,-2.1769,-2.1769,-2.1769,-2.1578,-2.1842,-2.229,-2.2251,-2.2581,-2.3064,0.0,0.0,0.0,0.0,0.0,0.0,-1.5298,-1.5389,-1.5389,-1.5389,-1.5389,-1.5389,-1.5389,-1.5389,-1.5389,-1.5389,-1.5389,-1.5389,-1.5389,-1.5389,-1.5389,-1.5389,-1.5389,-1.5374,-1.5345,-1.5345,-1.5185,0.0,0.0,-1.4553,-1.4027,-1.4291,0.0,0.0,0.0,0.0,0.0,-1.5389,-1.5389,-1.5389,-1.5389,-1.5389,-1.5389,-1.5389,-1.5389,-1.5389,-1.5389,-1.5389,-1.5389,-1.5389,-1.5389,-1.5389,-1.5389,-1.5389,-1.5389,-1.5389,-1.5389,-1.5389,-1.5389,-1.5389,-1.5309,-1.498,-1.4878,-1.4696,-1.4121,-1.3998,-1.385,-1.3558,-1.3492,-1.3492,-1.3492,-1.3492,-1.3492,0.0,0.0,0.0,0.0,0.0,0.0,0.0,0.0,0.0,0.0,-1.4382,0.0,0.0,0.0,0.0,0.0,0.0,0.0,-1.5336,0.0,-1.7073,-1.8591,-1.9092,-1.9942,-2.1167,-2.1167,-2.1282,-2.1512,-2.1693,-2.1769,-2.1807,-2.1807,-2.1807,-2.1807,-2.1617,-2.1655,-2.1769,-2.1578,-2.1533,-2.1586,-2.1382,-2.1461,-2.1617,0.0,0.0,0.0,0.0,0.0,0.0,0.0,-1.5131,-1.5389,-1.5389,-1.5389,-1.5389,-1.5389,-1.5389,-1.5389,-1.5389,-1.5389,-1.5389,-1.5389,-1.5389,-1.5389,-1.5389,-1.5389,-1.5389,-1.5389,-1.5389,-1.5323,0.0,0.0,-1.4769,-1.456,-1.4501,0.0,0.0,0.0,-1.5009,-1.4999,-1.4999,-1.4999,-1.4999,-1.4999,-1.4999,-1.4999,-1.4999,-1.4999,-1.4999,-1.4999,-1.5082,-1.5215,-1.5215,-1.5298,-1.5389,-1.5389,-1.5389,-1.5389,-1.5389,-1.5389,-1.5389,-1.5389,-1.5389,-1.5352,-1.5228,-1.5046,-1.4834,-1.4618,-1.426,-1.3945,-1.3814,-1.3631,-1.3492,-1.3492,-1.3492,-1.3492,0.0,0.0,0.0,0.0,0.0,0.0,0.0,0.0,0.0,0.0,0.0,0.0,0.0,0.0,0.0,0.0,0.0,0.0,-1.431,0.0,-1.5956,-1.6879,-1.7454,-1.8598,-2.0245,-2.0245,-2.0644,-2.132,-2.1387,-2.1512,-2.1617,-2.1769,-2.1807,-2.1769,-2.1578,-2.154,-2.1578,-2.1282,-2.1205,-2.1294,-2.1223,-2.1328,-2.145,-1.2069,0.0,-1.2839,0.0,-1.3512,-1.3928,-1.4349,-1.4783,-1.5173,-1.5389,-1.5389,-1.5389,-1.5389,-1.5389,-1.5389,-1.5389,-1.5389,-1.5389,-1.5389,-1.5389,-1.5389,-1.5389,-1.5389,0.0,-1.5389,-1.5389,-1.5389,-1.5389,-1.5155,0.0,-1.49,-1.4634,0.0,0.0,-1.4899,-1.4873,-1.4692,-1.4692,-1.4692,-1.4692,-1.4692,-1.4692,-1.4692,-1.4692,-1.4692,-1.4692,-1.4692,-1.4866,-1.509,-1.509,-1.5215,-1.5389,-1.5389,-1.5389,-1.5389,-1.5389,-1.5389,-1.5389,-1.5389,-1.5389,-1.5389,-1.5389,-1.5214,-1.5017,-1.4922,-1.4516,-1.407,-1.3879,-1.366,-1.3492,-1.3492,-1.3492,-1.3492,-1.3492,0.0,0.0,0.0,0.0,0.0,0.0,-1.3492,-1.3601,-1.3804,0.0,0.0,0.0,0.0,0.0,0.0,0.0,0.0,0.0,0.0,0.0,-1.6092,-1.6501,-1.7504,-1.9116,-1.9441,-2.0001,-2.0722,-2.1051,-2.1282,-2.1436,-2.1617,-2.1693,-2.1693,-2.1502,-2.131,-2.1098,-2.0974,-2.0858,-2.08,-2.0631,-2.0703,-2.0824,-1.1311,-1.1305,-1.1564,-1.2277,-1.2406,-1.2875,-1.4181,-1.4398,-1.4657,-1.5305,-1.5389,-1.5389,-1.5389,-1.5389,-1.5389,-1.5389,-1.5389,-1.5389,-1.5389,-1.5389,-1.5389,0.0,0.0,-1.5389,-1.5389,-1.5389,-1.5389,-1.5389,0.0,0.0,-1.49,0.0,-1.4775,-1.5082,-1.4824,-1.4692,-1.4692,-1.4692,-1.4692,-1.4692,-1.4692,-1.4692,-1.4692,-1.4692,-1.4692,-1.4692,-1.4692,-1.4866,-1.509,-1.509,-1.5215,-1.5389,-1.5389,-1.5389,-1.5389,-1.5389,-1.5389,-1.5389,-1.5389,-1.5389,-1.5389,-1.5389,-1.5382,-1.5301,-1.4973,-1.4692,-1.432,-1.3631,-1.3499,-1.3492,-1.3492,-1.3492,-1.3492,-1.3492,0.0,0.0,0.0,0.0,0.0,0.0,-1.3492,-1.3419,-1.3236,0.0,0.0,0.0,0.0,0.0,0.0,0.0,0.0,-1.4867,-1.4645,0.0,-1.7067,-1.6812,-1.7139,-1.8037,-1.9076,-1.9599,-1.9638,-2.0722,-2.1205,-2.1205,-2.1436,-2.1502,-2.1512,-2.1282,-2.0828,-2.0246,-2.0731,-2.0489,-1.9855,-1.9244,-1.9259,-1.9286,-1.0477,-1.0868,-1.1262,-1.1198,-1.1843,-1.2534,-1.2954,-1.3802,-1.4482,-1.4699,-1.5131,-1.5389,-1.5389,-1.5389,-1.5389,0.0,-1.5389,-1.5389,0.0,-1.5389,-1.5389,-1.5389,-1.5389,-1.5389,-1.5389,-1.5389,-1.5389,-1.5389,0.0,0.0,0.0,-1.4718,-1.4643,-1.4615,-1.4524,-1.4405,-1.4286,-1.4286,-1.4286,-1.4286,-1.4286,-1.4286,-1.4286,-1.4286,-1.437,-1.4482,-1.4482,-1.4741,-1.509,-1.509,-1.5215,-1.5389,-1.5389,-1.5389,-1.5389,-1.5389,-1.5389,-1.5389,-1.5389,-1.5389,-1.5389,-1.5389,-1.5389,-1.536,-1.5258,-1.486,-1.4386,-1.3916,-1.3653,-1.3492,-1.3492,-1.3492,-1.3492,-1.3492,-1.3382,0.0,0.0,0.0,0.0,0.0,-1.3309,-1.3229,0.0,-1.3622,0.0,0.0,0.0,0.0,0.0,0.0,0.0,0.0,-1.443,0.0,-1.559,-1.5721,-1.6263,-1.7107,-1.7464,-1.7948,-1.8519,-1.8988,-1.9225,-1.9225,-1.9453,-1.9522,-1.9522,-1.9304,-1.9097,-1.8899,-1.8917,-1.8798,-1.859,-1.8399,-1.8397,-1.8351,-1.0038,-1.0559,-1.0949,-1.0636,-1.1375,-1.2098,-1.2443,-1.3231,-1.3913,-1.424,-1.4808,-1.517,-1.517,-1.5329,0.0,-1.5389,-1.5389,-1.5389,-1.5389,-1.5389,-1.5389,-1.5389,-1.5389,-1.5347,-1.5305,-1.5305,0.0,-1.5131,-1.4999,-1.4866,-1.4692,-1.4608,-1.4524,-1.4398,-1.4321,-1.4201,-1.4088,-1.4088,-1.4088,-1.4088,-1.4088,-1.4088,-1.4088,-1.4088,-1.4166,-1.4279,-1.4279,-1.4531,-1.4831,-1.4831,-1.5041,-1.5305,-1.5305,-1.5347,-1.5389,-1.5389,-1.5389,-1.5389,-1.5389,-1.5389,-1.5389,-1.5389,-1.5389,-1.5352,-1.5236,-1.4933,-1.4523,-1.4077,-1.3821,-1.3638,-1.3521,-1.3492,-1.3492,-1.3492,-1.3382,-1.3346,-1.3499,0.0,0.0,0.0,0.0,0.0,0.0,-1.3477,-1.3695,0.0,0.0,0.0,0.0,0.0,0.0,-1.4012,-1.4335,0.0,-1.49,-1.5228,-1.5665,-1.6221,-1.6535,-1.7147,-1.7997,-1.8149,-1.8189,-1.8189,-1.8412,-1.8492,-1.8483,-1.8332,-1.8092,-1.7811,-1.7948,-1.7796,-1.7513,-1.7513,-1.7513,-1.7441,-0.995,-1.0294,-1.0594,0.0,-1.0909,0.0,-1.2419,-1.263,-1.2984,-1.3859,-1.4425,-1.474,-1.469,-1.5043,-1.5251,-1.5202,0.0,0.0,0.0,-1.5389,-1.5389,-1.5389,-1.5389,-1.5305,-1.509,-1.5082,-1.4957,-1.4692,-1.4692,-1.465,-1.465,-1.4482,-1.4398,-1.4356,-1.4159,-1.4088,-1.4088,-1.4088,-1.4088,-1.4088,-1.4088,-1.4088,-1.4088,-1.4088,-1.413,-1.413,-1.413,-1.4243,-1.4433,-1.4433,-1.4699,-1.509,-1.509,-1.5215,-1.5347,-1.5389,-1.5389,-1.5389,-1.5389,-1.5389,-1.5389,-1.5389,-1.5389,-1.5309,-1.5002,-1.4922,-1.4725,-1.4143,-1.3996,-1.3879,-1.3514,-1.3455,-1.3455,-1.3455,-1.3455,-1.3455,-1.3455,0.0,0.0,0.0,0.0,0.0,0.0,-1.32,-1.3229,0.0,0.0,0.0,0.0,0.0,-1.4072,-1.4042,-1.4372,-1.4655,-1.4936,-1.5236,-1.5389,-1.5431,-1.6221,-1.7025,-1.7836,-1.7836,-1.7836,-1.7836,-1.8029,-1.8101,-1.8101,-1.8101,-1.7609,-1.6968,-1.7594,-1.731,-1.6617,-1.6617,-1.6617,-1.6549,0.0,0.0,-1.0419,-1.0058,-1.0378,-1.0757,-1.0984,-1.181,-1.2473,-1.2711,-1.3609,-1.4104,-1.3689,-1.39,-1.3827,-1.3119,-1.4486,-1.5389,-1.5389,-1.5389,-1.5389,-1.5389,-1.5257,-1.5131,-1.509,-1.4915,-1.4699,-1.4482,-1.4482,-1.4405,-1.425,-1.4208,-1.4166,-1.4166,-1.413,-1.4088,-1.4088,-1.4088,-1.4088,-1.4088,-1.4088,-1.4088,-1.4088,-1.4088,-1.4208,-1.4321,-1.4321,-1.444,-1.465,-1.465,-1.4692,-1.4783,-1.4783,-1.4824,-1.495,-1.5298,-1.5389,-1.5389,-1.5215,-1.5257,-1.5347,-1.5215,-1.5305,-1.5367,-1.5287,-1.5082,-1.475,-1.4279,-1.3959,-1.3617,-1.314,-1.3046,-1.3046,-1.3046,-1.29,-1.2863,-1.301,-1.2746,0.0,0.0,-1.29,-1.29,-1.2753,-1.3156,-1.3382,0.0,0.0,0.0,0.0,-1.3977,-1.4125,-1.4379,-1.4662,-1.4944,-1.5272,-1.5345,-1.5389,-1.5389,-1.5631,-1.5831,-1.6031,-1.6031,-1.6031,-1.6031,-1.6072,-1.6105,-1.6105,-1.6105,-1.5948,-1.5782,-1.5948,-1.5906,-1.5707,-1.5707,-1.5707,-1.568,-0.9122,-0.9693,-1.0107,-0.9833,-1.02,-1.0505,-1.0604,-1.118,-1.1682,-1.1785,-1.2532,-1.2963,-1.2686,-1.2911,-1.2865,-1.233,-1.3439,-1.409,-1.3873,-1.4265,-1.4307,-1.3873,-1.4132,-1.4265,-1.4132,-1.362,-1.3239,-1.2991,-1.2991,-1.3167,-1.344,-1.3009,-1.3052,-1.3483,-1.3483,-1.3483,-1.3483,-1.3913,-1.4088,-1.4088,-1.4088,-1.4088,-1.4088,-1.4088,-1.4166,-1.4237,-1.4237,-1.4328,-1.4412,-1.4412,-1.4489,-1.4566,-1.4566,-1.465,-1.4741,-1.4999,-1.5082,-1.5041,-1.4957,-1.4999,-1.5041,-1.4957,-1.4999,-1.5082,-1.5082,-1.4946,-1.4691,-1.4304,-1.3984,-1.3596,-1.3166,-1.3065,-1.3046,-1.3046,-1.2936,-1.2936,-1.3163,-1.282,0.0,-1.2973,-1.2936,-1.29,-1.2863,-1.3156,-1.3309,-1.32,-1.352,0.0,-1.3975,-1.426,-1.4501,-1.4677,-1.4812,-1.5061,-1.5382,-1.5389,-1.5389,-1.5389,-1.5389,-1.5389,-1.5389,-1.5389,-1.5389,-1.5389,-1.5389,-1.5389,-1.5389,-1.5389,-1.5389,-1.5389,-1.5389,-1.5389,-1.5389,-1.5389,-1.5389,-1.5389,-0.9173,-0.9503,-0.978,-0.978,-1.0104,-1.0444,-1.0576,-1.0694,-1.0807,-1.1023,-1.151,-1.1772,-1.1677,-1.19,-1.1987,-1.1815,-1.2067,-1.216,-1.1992,-1.276,-1.2845,-1.2029,-1.2717,-1.3063,-1.2802,-1.2035,-1.1526,-1.1284,-1.1284,-1.1714,-1.2491,-1.1666,-1.1714,-1.2491,-1.2491,-1.2491,-1.2534,-1.3355,-1.3695,-1.3695,-1.3695,-1.3695,-1.3701,-1.3828,-1.387,-1.3913,-1.4039,-1.4088,-1.4088,-1.4088,-1.4201,-1.4356,-1.4356,-1.4482,-1.4615,-1.4615,-1.4615,-1.4615,-1.465,-1.465,-1.465,-1.4692,-1.4608,-1.4524,-1.465,-1.4608,-1.4476,-1.4301,-1.4029,-1.3717,-1.3366,-1.3098,-1.297,-1.3043,-1.2854,-1.282,-1.32,0.0,-1.2783,-1.3273,-1.3046,-1.2936,-1.3083,-1.3162,-1.3227,-1.3227,-1.3677,-1.4001,-1.4083,-1.4561,-1.4881,-1.4973,-1.4973,-1.5104,-1.5382,-1.5389,-1.5389,-1.5389,-1.5389,-1.5389,-1.5389,-1.5389,-1.5389,-1.5389,-1.5389,-1.5389,-1.5389,-1.5389,-1.5389,-1.5389,-1.5389,-1.5389,-1.5389,-1.5389,-1.5389,-1.5389,-0.9514,-0.9596,-0.9641,-0.9641,-0.969,-0.9747,-0.9776,-1.0173,-1.0476,-1.0507,-1.097,-1.1142,-1.0658,-1.0881,-1.0669,-0.9663,-0.9827,-1.0558,-1.1918,-1.2157,-1.2157,-1.2029,-1.1986,-1.1949,-1.1901,-1.1531,-1.1322,-1.1284,-1.1284,-1.137,-1.1499,-1.137,-1.137,-1.1542,-1.1542,-1.1542,-1.1542,-1.1666,-1.1714,-1.1714,-1.1714,-1.1714,-1.1843,-1.2619,-1.2918,-1.3009,-1.3828,-1.4088,-1.4088,-1.4088,-1.413,-1.4166,-1.4166,-1.4166,-1.4208,-1.4208,-1.4208,-1.425,-1.4405,-1.444,-1.4482,-1.465,-1.4132,-1.3795,-1.4524,-1.4139,-1.3668,-1.3974,-1.4001,-1.3796,-1.3305,-1.2415,-1.1903,-1.2292,-1.1244,-1.0795,-1.1818,0.0,-1.1632,-1.2415,-1.2562,-1.2673,-1.2673,-1.3056,-1.3285,-1.3285,-1.361,-1.4023,-1.4492,-1.46,-1.4861,-1.5301,-1.5309,-1.5338,-1.5389,-1.5389,-1.5389,-1.5389,-1.5389,-1.5389,-1.5389,-1.5389,-1.5389,-1.5389,-1.5389,-1.5389,-1.5389,-1.5389,-1.5389,-1.5389,-1.5389,-1.5389,-1.5389,-1.5389,-1.5389,-1.5389,-0.9612,-0.9579,-0.9579,-0.9579,-0.9579,-0.9579,-0.9579,-0.9826,-0.9969,-0.9969,-1.0167,-1.0216,-1.0019,-0.9995,-0.9811,-0.9159,-0.9109,-0.9406,-1.0125,-1.0626,-1.0669,-1.0197,-1.0539,-1.0496,-1.0028,-1.0376,-1.0337,-0.9864,-0.9864,-1.0077,-1.0549,-1.0077,-1.012,-1.0549,-1.0549,-1.0549,-1.0593,-1.1111,-1.1284,-1.1284,-1.1284,-1.1284,-1.137,-1.18,-1.1929,-1.2015,-1.2448,-1.2577,-1.2577,-1.2577,-1.2577,-1.2577,-1.2577,-1.2577,-1.2577,-1.2577,-1.3307,-1.3997,-1.3597,-1.3851,-1.4026,-1.3118,-1.2948,-1.2991,-1.2905,-1.2559,-1.2316,-1.2494,-1.2438,-1.2264,-1.2027,-1.1456,-1.1151,-1.1349,-1.0813,0.0,-1.1144,-1.0974,-1.0936,-1.143,-1.1468,-1.1485,-1.1581,-1.178,-1.1893,-1.1893,-1.2796,-1.3427,-1.3682,-1.431,-1.4759,-1.5033,-1.5257,-1.5389,-1.5389,-1.5389,-1.5389,-1.5389,-1.5389,-1.5389,-1.5389,-1.5389,-1.5389,-1.5389,-1.5389,-1.5389,-1.5389,-1.5389,-1.5389,-1.5389,-1.5389,-1.5389,-1.5389,-1.5389,-1.5389,-1.5389,-0.9579,-0.9579,-0.9579,-0.9579,-0.9579,-0.9579,-0.9579,-0.9579,-0.9579,-0.9579,-0.9579,-0.9579,-0.9579,-0.9502,-0.9332,-0.9116,-0.8966,-0.8792,-0.8624,-0.9213,-0.9301,-0.8612,-0.9257,-0.9301,-0.8612,-0.9257,-0.9257,-0.8612,-0.8612,-0.8955,-0.9602,-0.8911,-0.8955,-0.9602,-0.9602,-0.9602,-0.9646,-1.0376,-1.0679,-1.0679,-1.0679,-1.0679,-1.0679,-1.0895,-1.0977,-1.102,-1.1235,-1.1284,-1.1284,-1.1284,-1.1284,-1.1284,-1.1284,-1.1284,-1.1284,-1.1284,-1.2314,-1.3307,-1.2577,-1.2918,-1.3088,-1.1671,-1.1671,-1.1929,-1.1413,-1.1111,-1.1025,-1.1278,-1.1139,-1.0974,-1.0974,-1.0724,-1.0513,-1.06,0.0,-1.0174,0.0,-1.0336,-1.0336,-1.069,-1.0572,-1.052,-1.0613,-1.0684,-1.0762,-1.0762,-1.1852,-1.2545,-1.2622,-1.3503,-1.4132,-1.4391,-1.4999,-1.534,-1.534,-1.5389,-1.5389,-1.5389,-1.5389,-1.5389,-1.5389,-1.5389,-1.5389,-1.5389,-1.5389,-1.5389,-1.5389,-1.5389,-1.5389,-1.5389,-1.5389,-1.5389,-1.5389,-1.5082,-1.4999,-1.4957,-0.9579,-0.9579,-0.9579,-0.9579,-0.9579,-0.9579,-0.9579,-0.9579,-0.9579,-0.9579,-0.9579,-0.9579,-0.9579,-0.9616,-0.947,-0.9129,-0.9084,-0.8934,-0.8637,-0.8652,-0.8656,-0.8612,-0.8652,-0.8656,-0.8612,-0.8652,-0.8656,-0.8612,-0.8612,-0.8656,-0.8696,-0.8612,-0.8656,-0.8696,-0.8696,-0.8696,-0.8696,-0.8784,-0.8784,-0.8784,-0.8784,-0.8784,-0.8867,-0.9689,-0.999,-1.012,-1.0982,-1.1284,-1.1284,-1.1284,-1.1284,-1.1284,-1.1284,-1.1284,-1.1284,-1.1284,-1.1408,-1.1499,-1.1413,-1.1456,-1.1451,-1.1322,-1.0722,-1.0332,-1.1106,-1.0636,-1.0246,-1.1106,-1.1268,-1.1257,-1.1257,-1.0466,-0.99,-1.0287,0.0,0.0,-0.9731,-0.9533,-0.9574,-1.0332,-1.0407,-1.0418,-1.0433,-1.0681,-1.0908,-1.0908,-1.1208,-1.1547,-1.1792,-1.1852,-1.2419,-1.3451,-1.4566,-1.5131,-1.5131,-1.5305,-1.5389,-1.5389,-1.5389,-1.5389,-1.5389,-1.5389,-1.5389,-1.5389,-1.5389,-1.5389,-1.5389,-1.5389,-1.5389,-1.5389,-1.5389,-1.5389,-1.5257,-1.4223,-1.3831,-1.3662,-0.9579,-0.9579,-0.9579,-0.9579,-0.9579,-0.9579,-0.9579,-0.9579,-0.9579,-0.9579,-0.9579,-0.9579,-0.9579,-0.9579,-0.9486,-0.9129,-0.9096,-0.8946,-0.8637,-0.8612,-0.8612,-0.8612,-0.8612,-0.8612,-0.8612,-0.8612,-0.8612,-0.8612,-0.8612,-0.8612,-0.8612,-0.8612,-0.8612,-0.8612,-0.8612,-0.8612,-0.8612,-0.8612,-0.8612,-0.8612,-0.8612,-0.8612,-0.8656,-0.8955,-0.9087,-0.9126,-0.9515,-0.9602,-0.9602,-0.9602,-0.9602,-0.9602,-0.9602,-0.9602,-0.9602,-0.9602,-0.9602,-0.9602,-0.9602,-1.0463,-1.1025,-0.9903,-0.9777,-0.9859,-0.9689,-0.9345,-0.9213,-0.9563,-0.9602,-0.9602,-0.9602,-0.9283,-0.9061,-0.9238,0.0,-0.8487,-0.8824,-0.8723,-0.8765,-0.9053,-0.9095,-0.9144,-0.9271,-0.94,-0.9493,-0.9493,-1.0077,-1.0463,-1.0582,-1.1144,-1.166,-1.2089,-1.2905,-1.3844,-1.4824,-1.509,-1.5215,-1.5215,-1.5347,-1.5389,-1.5389,-1.5389,-1.5389,-1.5389,-1.4957,-1.4999,-1.5389,-1.495,-1.4608,-1.4349,-1.4349,-1.4265,-1.4048,-1.3014,-1.3014,-1.336,-0.9579,-0.9579,-0.9579,-0.9579,-0.9579,-0.9579,-0.9579,-0.9579,-0.9579,-0.9579,-0.9579,-0.9579,-0.9579,-0.9579,-0.9486,-0.9129,-0.9096,-0.8946,-0.8637,-0.8612,-0.8612,-0.8612,-0.8612,-0.8612,-0.8612,-0.8612,-0.8612,-0.8612,-0.8612,-0.8612,-0.8612,-0.8612,-0.8612,-0.8612,-0.8612,-0.8612,-0.8612,-0.8612,-0.8612,-0.8612,-0.8612,-0.8612,-0.8612,-0.8612,-0.8564,-0.8472,-0.8472,-0.8432,-0.8388,-0.8388,-0.8388,-0.8388,-0.8388,-0.8388,-0.8388,-0.8388,-0.8388,-0.8388,-0.8388,-0.9292,-0.9985,-0.8867,-0.9043,-0.9345,-0.874,-0.8612,-0.8612,-0.8612,-0.8612,-0.8612,-0.8612,-0.8612,-0.8612,-0.8612,-0.8612,-0.8567,-0.8394,-0.8377,-0.8377,-0.8377,-0.8377,-0.8426,-0.86,-0.8612,-0.8612,-0.8612,-0.917,-0.9471,-0.9471,-1.0376,-1.0852,-1.0852,-1.158,-1.2522,-1.3626,-1.444,-1.4999,-1.5215,-1.534,-1.5389,-1.5389,-1.5389,-1.5389,-1.5389,-1.4915,-1.4783,-1.4824,-1.4356,-1.3789,-1.319,-1.319,-1.3063,-1.2845,-1.1858,-1.1858,-1.2291,-0.9579,-0.9579,-0.9579,-0.9579,-0.9579,-0.9579,-0.9579,-0.9579,-0.9579,-0.9579,-0.9579,-0.9579,-0.9579,-0.9579,-0.9437,-0.9129,-0.9096,-0.8946,-0.8633,-0.8612,-0.8612,-0.8612,-0.8612,-0.8612,-0.8612,-0.8612,-0.8612,-0.8612,-0.8612,-0.8612,-0.8612,-0.8612,-0.8612,-0.8612,-0.8612,-0.8612,-0.8612,-0.8612,-0.8612,-0.8612,-0.8612,-0.8612,-0.8612,-0.8612,-0.8428,-0.8201,-0.8201,-0.8069,-0.79,-0.79,-0.79,-0.79,-0.79,-0.79,-0.79,-0.79,-0.79,-0.79,-0.79,-0.79,-0.8032,-0.848,-0.8612,-0.8612,-0.8612,-0.8612,-0.8612,-0.8612,-0.8612,-0.8612,-0.8612,-0.8612,-0.8612,-0.8612,-0.8612,-0.8612,-0.8612,-0.8612,-0.8612,-0.8612,-0.8612,-0.8612,-0.8612,-0.8612,-0.8612,-0.8612,-0.8612,-0.8612,-0.8612,-0.9432,-0.9903,-0.9903,-1.0809,-1.1278,-1.1278,-1.333,-1.4699,-1.5389,-1.5389,-1.5389,-1.5389,-1.5389,-1.5389,-1.5389,-1.5389,-1.4741,-1.3704,-1.3662,-1.3014,-1.1986,-1.1986,-1.1986,-1.1858,-1.0697,-1.0269,-1.0144,-0.6772,-0.7071,-0.7471,-0.7872,-0.8375,-0.8882,-0.9282,-0.948,-0.9579,-0.9579,-0.943,-0.9331,-0.9331,-0.913,-0.8893,-0.8558,-0.8528,-0.8433,-0.8143,-0.8252,-0.8336,-0.8336,-0.852,-0.8612,-0.8612,-0.8612,-0.8612,-0.8612,-0.8612,-0.8612,-0.8612,-0.8612,-0.8612,-0.8612,-0.8612,-0.8612,-0.8568,-0.8384,-0.8336,-0.8292,-0.8164,-0.812,-0.812,-0.812,-0.8076,-0.7984,-0.7984,-0.794,-0.79,-0.79,-0.79,-0.79,-0.79,-0.79,-0.79,-0.79,-0.79,-0.79,-0.79,-0.79,-0.7944,-0.8076,-0.812,-0.812,-0.812,-0.812,-0.812,-0.812,-0.8204,-0.8336,-0.8336,-0.8336,-0.8336,-0.8336,-0.8336,-0.8336,-0.8336,-0.8476,-0.8612,-0.8612,-0.8612,-0.8612,-0.8612,-0.8612,-0.8612,-0.8612,-0.8612,-0.8612,-0.8612,-0.8823,-0.8999,-0.8999,-0.9559,-1.0115,-1.0577,-1.1863,-1.2766,-1.3209,-1.3063,-1.319,-1.3487,-1.3148,-1.3014,-1.2972,-1.2516,-1.2382,-1.2462,-1.1997,-1.1397,-1.0826,-1.0826,-1.0707,-1.0414,-0.9467,-0.951,-0.9898,-0.5622,-0.5874,-0.6174,-0.6523,-0.6974,-0.7378,-0.7726,-0.7925,-0.8021,-0.8021,-0.7875,-0.7928,-0.8379,-0.8276,-0.8199,-0.8273,-0.8221,-0.8106,-0.804,-0.8072,-0.8069,-0.8069,-0.8252,-0.8388,-0.8612,-0.8612,-0.8564,-0.8428,-0.8428,-0.8384,-0.8344,-0.8344,-0.8344,-0.8344,-0.8344,-0.8344,-0.83,-0.816,-0.8069,-0.8069,-0.794,-0.79,-0.79,-0.79,-0.7856,-0.7724,-0.7724,-0.7676,-0.7588,-0.7588,-0.7588,-0.7588,-0.7588,-0.7588,-0.7588,-0.7588,-0.7588,-0.7588,-0.7588,-0.7588,-0.7588,-0.7588,-0.7764,-0.79,-0.79,-0.79,-0.79,-0.79,-0.7984,-0.8069,-0.8069,-0.8069,-0.8069,-0.8069,-0.8069,-0.8069,-0.8069,-0.8208,-0.8344,-0.8344,-0.8388,-0.8428,-0.8428,-0.852,-0.8612,-0.8612,-0.8612,-0.8612,-0.8612,-0.8612,-0.8612,-0.8612,-0.8872,-0.9213,-0.9632,-1.0193,-1.1058,-1.2174,-1.2077,-1.2157,-1.2413,-1.2114,-1.1986,-1.1986,-1.1569,-1.1354,-1.13,-1.088,-1.0284,-0.9637,-0.9637,-0.951,-0.9301,-0.8784,-0.8911,-0.9301,-0.5222,-0.5275,-0.5322,-0.5375,-0.5422,-0.5525,-0.5575,-0.5572,-0.5622,-0.5622,-0.5575,-0.5924,-0.6921,-0.7012,-0.725,-0.7889,-0.7723,-0.7672,-0.7845,-0.7716,-0.7588,-0.7588,-0.7632,-0.7852,-0.8252,-0.8432,-0.8428,-0.8157,-0.8157,-0.8069,-0.79,-0.79,-0.79,-0.79,-0.79,-0.79,-0.79,-0.7856,-0.7856,-0.7856,-0.7856,-0.7808,-0.7808,-0.7808,-0.768,-0.7462,-0.7462,-0.7323,-0.7095,-0.7095,-0.7095,-0.7095,-0.7095,-0.7095,-0.7095,-0.7095,-0.7095,-0.7095,-0.7095,-0.7095,-0.7095,-0.7095,-0.7452,-0.7808,-0.7808,-0.7808,-0.7808,-0.7808,-0.7856,-0.7856,-0.7856,-0.7856,-0.7856,-0.7856,-0.7856,-0.7856,-0.7856,-0.79,-0.79,-0.79,-0.8072,-0.8157,-0.8157,-0.8384,-0.8524,-0.8524,-0.8524,-0.8524,-0.8524,-0.8564,-0.8564,-0.8564,-0.8568,-0.8612,-0.8612,-0.8612,-0.9685,-1.1772,-1.1729,-1.1729,-1.1772,-1.1729,-1.1686,-1.1686,-1.1686,-1.1128,-1.0144,-1.0144,-0.9506,-0.8564,-0.8564,-0.8564,-0.852,-0.8504,-0.8496,-0.8496,-0.2471,-0.2822,-0.3224,-0.3624,-0.4227,-0.4778,-0.5229,-0.5475,-0.5622,-0.5622,-0.5427,-0.5379,-0.5629,-0.5454,-0.5354,-0.5374,-0.5213,-0.509,-0.5132,-0.527,-0.5314,-0.5314,-0.5534,-0.5664,-0.5797,-0.7272,-0.8032,-0.7984,-0.7984,-0.7944,-0.79,-0.79,-0.79,-0.79,-0.79,-0.79,-0.79,-0.7683,-0.7595,-0.7547,-0.7367,-0.7275,-0.7275,-0.7275,-0.7231,-0.7187,-0.7187,-0.7143,-0.7095,-0.7095,-0.7095,-0.7095,-0.7095,-0.7095,-0.7095,-0.7095,-0.7095,-0.7095,-0.7095,-0.7095,-0.7095,-0.7095,-0.7183,-0.7275,-0.7275,-0.7275,-0.7275,-0.7275,-0.7455,-0.7595,-0.7595,-0.7595,-0.7595,-0.7595,-0.7595,-0.7595,-0.7595,-0.7768,-0.79,-0.79,-0.7944,-0.7984,-0.7984,-0.8032,-0.8032,-0.8032,-0.8032,-0.8032,-0.8032,-0.8204,-0.8292,-0.8292,-0.8476,-0.8612,-0.8612,-0.8612,-0.9043,-0.9859,-0.9515,-0.9515,-0.9859,-0.9515,-0.934,-0.934,-0.934,-0.9209,-0.8951,-0.8951,-0.8688,-0.8292,-0.8292,-0.8204,-0.8017,-0.788,-0.783,-0.7811,-0.1617,-0.1818,-0.212,-0.2371,-0.2773,-0.3175,-0.3426,-0.3624,-0.3674,-0.3674,-0.3575,-0.3676,-0.4176,-0.4106,-0.4205,-0.4693,-0.446,-0.4334,-0.4423,-0.4467,-0.4467,-0.4467,-0.4601,-0.4688,-0.4688,-0.5667,-0.6248,-0.6337,-0.6337,-0.6293,-0.6201,-0.6201,-0.6201,-0.6201,-0.6201,-0.6201,-0.6157,-0.6027,-0.6251,-0.6612,-0.5983,-0.6027,-0.6384,-0.5935,-0.5758,-0.5758,-0.5758,-0.5758,-0.5758,-0.5758,-0.5758,-0.5758,-0.5758,-0.5758,-0.5758,-0.5758,-0.5758,-0.5758,-0.5758,-0.5758,-0.5758,-0.5758,-0.5758,-0.598,-0.6915,-0.7095,-0.7095,-0.7095,-0.7231,-0.7323,-0.7323,-0.7323,-0.7323,-0.7323,-0.7323,-0.7323,-0.7323,-0.7411,-0.7499,-0.7499,-0.7635,-0.7768,-0.79,-0.79,-0.79,-0.79,-0.79,-0.79,-0.79,-0.7984,-0.8072,-0.8072,-0.8208,-0.8296,-0.8428,-0.8428,-0.8604,-0.8959,-0.87,-0.874,-0.8959,-0.87,-0.8612,-0.8612,-0.8612,-0.852,-0.842,-0.8344,-0.8174,-0.7895,-0.7862,-0.7749,-0.7653,-0.7524,-0.7491,-0.748,-0.1617,-0.1617,-0.1617,-0.1617,-0.1617,-0.1617,-0.1617,-0.1617,-0.1617,-0.1617,-0.1617,-0.1919,-0.2822,-0.2914,-0.3307,-0.4231,-0.4015,-0.3888,-0.4024,-0.3888,-0.3799,-0.3799,-0.3799,-0.3799,-0.3799,-0.3799,-0.4067,-0.4559,-0.4559,-0.4467,-0.4289,-0.4289,-0.4289,-0.4289,-0.4289,-0.4289,-0.4289,-0.4289,-0.4736,-0.5406,-0.4601,-0.4781,-0.5361,-0.4601,-0.4289,-0.4289,-0.4289,-0.4289,-0.4289,-0.4289,-0.4287,-0.4243,-0.4243,-0.4198,-0.4198,-0.4198,-0.4198,-0.4198,-0.4198,-0.4198,-0.4198,-0.4198,-0.4198,-0.4599,-0.6157,-0.6558,-0.6605,-0.6605,-0.6605,-0.6605,-0.6605,-0.6605,-0.6605,-0.6605,-0.6605,-0.6605,-0.6605,-0.6605,-0.6605,-0.6605,-0.683,-0.7054,-0.7272,-0.7272,-0.736,-0.7496,-0.7544,-0.7588,-0.7764,-0.7812,-0.7812,-0.7812,-0.7896,-0.8028,-0.8157,-0.8201,-0.8292,-0.848,-0.848,-0.852,-0.8612,-0.8612,-0.8596,-0.8563,-0.8563,-0.8408,-0.8143,-0.801,-0.7777,-0.7547,-0.7416,-0.7326,-0.7281,-0.7252,-0.7226,-0.72,-0.1617,-0.1617,-0.1617,-0.1617,-0.1617,-0.1617,-0.1617,-0.1617,-0.1617,-0.1617,-0.1617,-0.1667,-0.1818,-0.1761,-0.179,-0.1852,-0.184,-0.1792,-0.1837,-0.1792,-0.1792,-0.1792,-0.1792,-0.1792,-0.1792,-0.1792,-0.264,-0.4334,-0.4334,-0.4334,-0.4289,-0.4289,-0.4289,-0.4289,-0.4289,-0.4289,-0.4289,-0.4289,-0.4376,-0.4467,-0.4334,-0.4376,-0.4467,-0.4334,-0.4289,-0.4289,-0.4289,-0.4289,-0.4289,-0.4289,-0.4154,-0.3974,-0.3974,-0.3838,-0.3705,-0.3705,-0.3705,-0.3705,-0.3705,-0.3705,-0.3705,-0.3705,-0.3705,-0.3748,-0.4016,-0.4374,-0.469,-0.469,-0.469,-0.469,-0.469,-0.469,-0.469,-0.469,-0.469,-0.469,-0.469,-0.469,-0.469,-0.469,-0.469,-0.4734,-0.4779,-0.4779,-0.5134,-0.5941,-0.5985,-0.6343,-0.7183,-0.7415,-0.7551,-0.7551,-0.794,-0.8072,-0.7944,-0.8113,-0.8113,-0.7988,-0.7988,-0.8212,-0.8612,-0.8612,-0.8522,-0.8329,-0.8329,-0.8235,-0.8002,-0.7816,-0.7605,-0.7398,-0.7202,-0.6988,-0.6767,-0.6674,-0.6546,-0.6436,-0.1617,-0.1617,-0.1617,-0.1617,-0.1617,-0.1617,-0.1617,-0.1617,-0.1617,-0.1617,-0.1617,-0.161,-0.1594,-0.1537,-0.1483,-0.1394,-0.1391,-0.1391,-0.1391,-0.1391,-0.1391,-0.1391,-0.1391,-0.1391,-0.1391,-0.1391,-0.1837,-0.2685,-0.2685,-0.2685,-0.2685,-0.2685,-0.2685,-0.2685,-0.2685,-0.2685,-0.2685,-0.2685,-0.2998,-0.3489,-0.2908,-0.2998,-0.3446,-0.2908,-0.2596,-0.2506,-0.2326,-0.2282,-0.2282,-0.2282,-0.2192,-0.2102,-0.2102,-0.2057,-0.1968,-0.1968,-0.1968,-0.1968,-0.1968,-0.1968,-0.1968,-0.1968,-0.1968,-0.1968,-0.1968,-0.2148,-0.2593,-0.3705,-0.3929,-0.3929,-0.3929,-0.4018,-0.4063,-0.4063,-0.4198,-0.4289,-0.4289,-0.4289,-0.4289,-0.4289,-0.4781,-0.5092,-0.5092,-0.5536,-0.6027,-0.6428,-0.6476,-0.6653,-0.7095,-0.7231,-0.7279,-0.7279,-0.7496,-0.7628,-0.7683,-0.7672,-0.7494,-0.7061,-0.6972,-0.7322,-0.806,-0.806,-0.7707,-0.7126,-0.7126,-0.6749,-0.6093,-0.5896,-0.595,-0.6116,-0.5508,-0.5196,-0.5071,-0.5018,-0.4969,-0.4885]}]]